[[{"header":{"parameterUnit":"m.s-1","parameterCategory":1,"la1":30.6,"la2":28.766,"lo1":-90.7593,"lo2":-88.6598,"dy":0.0162,"dx":0.0183,"nx":116,"ny":114,"refTime":"2023-03-10T06:00:00:Z","depth":0,"parameterNumber":2,"parameterNumberName":"U-component_of_WINDS"},"data":[0.0,0.0,0.0,0.0,0.0,0.0,0.0,0.0,0.0,0.0,0.0,0.0,0.0,0.0,0.0,0.0,0.0,0.0,0.0,0.0,0.0,0.0,0.0,0.0,0.0,0.0,0.0,0.0,0.0,0.0,0.0,0.0,0.0,0.0,0.0,0.0,0.0,0.0,0.0,0.0,0.0,0.0,0.0,0.0,0.0,0.0,0.0,0.0,0.0,0.0,0.0,0.0,0.0,0.0,0.0,0.0,0.0,0.0,0.0,0.0,0.0,0.0,0.0,0.0,0.0,0.0,0.0,0.0,0.0,0.0,0.0,0.0,0.0,0.0,0.0,0.0,0.0,0.0,0.0,0.0,0.0,0.0,0.0,0.0,0.0,0.0,0.0,0.0,0.0,0.0,0.0,0.0,0.0,0.0,0.0,0.0,0.0,0.0,0.0,0.0,0.0,0.0,0.0,0.0,0.0,0.0,0.0,0.0,0.0,0.0,0.0,0.0,0.0,0.0,0.0,0.0,0.0,0.0,0.0,0.0,0.0,0.0,0.0,0.0,0.0,0.0,0.0,0.0,0.0,0.0,0.0,0.0,0.0,0.0,0.0,0.0,0.0,0.0,0.0,0.0,0.0,0.0,0.0,0.0,0.0,0.0,0.0,0.0,0.0,0.0,0.0,0.0,0.0,0.0,0.0,0.0,0.0,0.0,0.0,0.0,0.0,0.0,0.0,0.0,0.0,0.0,0.0,0.0,0.0,0.0,0.0,0.0,0.0,0.0,0.0,0.0,0.0,0.0,0.0,0.0,0.0,0.0,0.0,0.0,0.0,0.0,0.0,0.0,0.0,0.0,0.0,0.0,0.0,0.0,0.0,0.0,0.0,0.0,0.0,0.0,0.0,0.0,0.0,0.0,0.0,0.0,0.0,0.0,0.0,0.0,0.0,0.0,0.0,0.0,0.0,0.0,0.0,0.0,0.0,0.0,0.0,0.0,0.0,0.0,0.0,0.0,0.0,0.0,0.0,0.0,0.0,0.0,0.0,0.0,0.0,0.0,0.0,0.0,0.0,0.0,0.0,0.0,0.0,0.0,0.0,0.0,0.0,0.0,0.0,0.0,0.0,0.0,0.0,0.0,0.0,0.0,0.0,0.0,0.0,0.0,0.0,0.0,0.0,0.0,0.0,0.0,0.0,0.0,0.0,0.0,0.0,0.0,0.0,0.0,0.0,0.0,0.0,0.0,0.0,0.0,0.0,0.0,0.0,0.0,0.0,0.0,0.0,0.0,0.0,0.0,0.0,0.0,0.0,0.0,0.0,0.0,0.0,0.0,0.0,0.0,0.0,0.0,0.0,0.0,0.0,0.0,0.0,0.0,0.0,0.0,0.0,0.0,0.0,0.0,0.0,0.0,0.0,0.0,0.0,0.0,0.0,0.0,0.0,0.0,0.0,0.0,0.0,0.0,0.0,0.0,0.0,0.0,0.0,0.0,0.0,0.0,0.0,0.0,0.0,0.0,0.0,0.0,0.0,0.0,0.0,0.0,0.0,0.0,0.0,0.0,0.0,0.0,0.0,0.0,0.0,0.0,0.0,0.0,0.0,0.0,0.0,0.0,0.0,0.0,0.0,0.0,0.0,0.0,0.0,0.0,0.0,0.0,0.0,0.0,0.0,0.0,0.0,0.0,0.0,0.0,0.0,0.0,0.0,0.0,0.0,0.0,0.0,0.0,0.0,0.0,0.0,0.0,0.0,0.0,0.0,0.0,0.0,0.0,0.0,0.0,0.0,0.0,0.0,0.0,0.0,0.0,0.0,0.0,0.0,0.0,0.0,0.0,0.0,0.0,0.0,0.0,0.0,0.0,0.0,0.0,0.0,0.0,0.0,0.0,0.0,0.0,0.0,0.0,0.0,0.0,0.0,0.0,0.0,0.0,0.0,0.0,0.0,0.0,0.0,0.0,0.0,0.0,0.0,0.0,0.0,0.0,0.0,0.0,0.0,0.0,0.0,0.0,0.0,0.0,0.0,0.0,0.0,0.0,0.0,0.0,0.0,0.0,0.0,0.0,0.0,0.0,0.0,0.0,0.0,0.0,0.0,0.0,0.0,0.0,0.0,0.0,0.0,0.0,0.0,0.0,0.0,0.0,0.0,0.0,0.0,0.0,0.0,0.0,0.0,0.0,0.0,0.0,0.0,0.0,0.0,0.0,0.0,0.0,0.0,0.0,0.0,0.0,0.0,0.0,0.0,0.0,0.0,0.0,0.0,0.0,0.0,0.0,0.0,0.0,0.0,0.0,0.0,0.0,0.0,0.0,0.0,0.0,0.0,0.0,0.0,0.0,0.0,0.0,0.0,0.0,0.0,0.0,0.0,0.0,0.0,0.0,0.0,0.0,0.0,0.0,0.0,0.0,0.0,0.0,0.0,0.0,0.0,0.0,0.0,0.0,0.0,0.0,0.0,0.0,0.0,0.0,0.0,0.0,0.0,0.0,0.0,0.0,0.0,0.0,0.0,0.0,0.0,0.0,0.0,0.0,0.0,0.0,0.0,0.0,0.0,0.0,0.0,0.0,0.0,0.0,0.0,0.0,0.0,0.0,0.0,0.0,0.0,0.0,0.0,0.0,0.0,0.0,0.0,0.0,0.0,0.0,0.0,0.0,0.0,0.0,0.0,0.0,0.0,0.0,0.0,0.0,0.0,0.0,0.0,0.0,0.0,0.0,0.0,0.0,0.0,0.0,0.0,0.0,0.0,0.0,0.0,0.0,0.0,0.0,0.0,0.0,0.0,0.0,0.0,0.0,0.0,0.0,0.0,0.0,0.0,0.0,0.0,0.0,0.0,0.0,0.0,0.0,0.0,0.0,0.0,0.0,0.0,0.0,0.0,0.0,0.0,0.0,0.0,0.0,0.0,0.0,0.0,0.0,0.0,0.0,0.0,0.0,0.0,0.0,0.0,0.0,0.0,0.0,0.0,0.0,0.0,0.0,0.0,0.0,0.0,0.0,0.0,0.0,0.0,0.0,0.0,0.0,0.0,0.0,0.0,0.0,0.0,0.0,0.0,0.0,0.0,0.0,0.0,0.0,0.0,0.0,0.0,0.0,0.0,0.0,0.0,0.0,0.0,0.0,0.0,0.0,0.0,0.0,0.0,0.0,0.0,0.0,0.0,0.0,0.0,0.0,0.0,0.0,0.0,0.0,0.0,0.0,0.0,0.0,0.0,0.0,0.0,0.0,0.0,0.0,0.0,0.0,0.0,0.0,0.0,0.0,0.0,0.0,0.0,0.0,0.0,0.0,0.0,0.0,0.0,0.0,0.0,0.0,0.0,0.0,0.0,0.0,0.0,0.0,0.0,0.0,0.0,0.0,0.0,0.0,0.0,0.0,0.0,0.0,0.0,0.0,0.0,0.0,0.0,0.0,0.0,0.0,0.0,0.0,0.0,0.0,0.0,0.0,0.0,0.0,0.0,0.0,0.0,0.0,0.0,0.0,0.0,0.0,0.0,0.0,0.0,0.0,0.0,0.0,0.0,0.0,0.0,0.0,0.0,0.0,0.0,0.0,0.0,0.0,0.0,0.0,0.0,0.0,0.0,0.0,0.0,0.0,0.0,0.0,0.0,0.0,0.0,0.0,0.0,0.0,0.0,0.0,0.0,0.0,0.0,0.0,0.0,0.0,0.0,0.0,0.0,0.0,0.0,0.0,0.0,0.0,0.0,0.0,0.0,0.0,0.0,0.0,0.0,0.0,0.0,0.0,0.0,0.0,0.0,0.0,0.0,0.0,0.0,0.0,0.0,0.0,0.0,0.0,0.0,0.0,0.0,0.0,0.0,0.0,0.0,0.0,0.0,0.0,0.0,0.0,0.0,0.0,0.0,0.0,0.0,0.0,0.0,0.0,0.0,0.0,0.0,0.0,0.0,0.0,0.0,0.0,0.0,0.0,0.0,0.0,0.0,0.0,0.0,0.0,0.0,0.0,0.0,0.0,0.0,0.0,0.0,0.0,0.0,0.0,0.0,0.0,0.0,0.0,0.0,0.0,0.0,0.0,0.0,0.0,0.0,0.0,0.0,0.0,0.0,0.0,0.0,0.0,0.0,0.0,0.0,0.0,0.0,0.0,0.0,0.0,0.0,0.0,0.0,0.0,0.0,0.0,0.0,0.0,0.0,0.0,0.0,0.0,0.0,0.0,0.0,0.0,0.0,0.0,0.0,0.0,0.0,0.0,0.0,0.0,0.0,0.0,0.0,0.0,0.0,0.0,0.0,0.0,0.0,0.0,0.0,0.0,0.0,0.0,0.0,0.0,0.0,0.0,0.0,0.0,0.0,0.0,0.0,0.0,0.0,0.0,0.0,0.0,0.0,0.0,0.0,0.0,0.0,0.0,0.0,0.0,0.0,0.0,0.0,0.0,0.0,0.0,0.0,0.0,0.0,0.0,0.0,0.0,0.0,0.0,0.0,0.0,0.0,0.0,0.0,0.0,0.0,0.0,0.0,0.0,0.0,0.0,0.0,0.0,0.0,0.0,0.0,0.0,0.0,0.0,0.0,0.0,0.0,0.0,0.0,0.0,0.0,0.0,0.0,0.0,0.0,0.0,0.0,0.0,0.0,0.0,0.0,0.0,0.0,0.0,0.0,0.0,0.0,0.0,0.0,0.0,0.0,0.0,0.0,0.0,0.0,0.0,0.0,0.0,0.0,0.0,0.0,0.0,0.0,0.0,0.0,0.0,0.0,0.0,0.0,0.0,0.0,0.0,0.0,0.0,0.0,0.0,0.0,0.0,0.0,0.0,0.0,0.0,0.0,0.0,0.0,0.0,0.0,0.0,0.0,0.0,0.0,0.0,0.0,0.0,0.0,0.0,0.0,0.0,0.0,0.0,0.0,0.0,0.0,0.0,0.0,0.0,0.0,0.0,0.0,0.0,0.0,0.0,0.0,0.0,0.0,0.0,0.0,0.0,0.0,0.0,0.0,0.0,0.0,0.0,0.0,0.0,0.0,0.0,0.0,0.0,0.0,0.0,0.0,0.0,0.0,0.0,0.0,0.0,0.0,0.0,0.0,0.0,0.0,0.0,0.0,0.0,0.0,0.0,0.0,0.0,0.0,0.0,0.0,0.0,0.0,0.0,0.0,0.0,0.0,0.0,0.0,0.0,0.0,0.0,0.0,0.0,0.0,0.0,0.0,0.0,0.0,0.0,0.0,0.0,0.0,0.0,0.0,0.0,0.0,0.0,0.0,0.0,0.0,0.0,0.0,0.0,0.0,0.0,0.0,0.0,0.0,0.0,0.0,0.0,0.0,0.0,0.0,0.0,0.0,0.0,0.0,0.0,0.0,0.0,0.0,0.0,0.0,0.0,0.0,0.0,0.0,0.0,0.0,0.0,0.0,0.0,0.0,0.0,0.0,0.0,0.0,0.0,0.0,0.0,0.0,0.0,0.0,0.0,0.0,0.0,0.0,0.0,0.0,0.0,0.0,0.0,0.0,0.0,0.0,0.0,0.0,0.0,0.0,0.0,0.0,0.0,0.0,0.0,0.0,0.0,0.0,0.0,0.0,0.0,0.0,0.0,0.0,0.0,0.0,0.0,0.0,0.0,0.0,0.0,0.0,0.0,0.0,0.0,0.0,0.0,0.0,0.0,0.0,0.0,0.0,0.0,0.0,0.0,0.0,0.0,0.0,0.0,0.0,0.0,0.0,0.0,0.0,0.0,0.0,0.0,0.0,0.0,0.0,0.0,0.0,0.0,0.0,0.0,0.0,0.0,0.0,0.0,0.0,0.0,0.0,0.0,0.0,0.0,0.0,0.0,0.0,0.0,0.0,0.0,0.0,0.0,0.0,0.0,0.0,0.0,0.0,0.0,0.0,0.0,0.0,0.0,0.0,0.0,0.0,0.0,0.0,0.0,0.0,0.0,0.0,0.0,0.0,0.0,0.0,0.0,0.0,0.0,0.0,0.0,0.0,0.0,0.0,0.0,0.0,0.0,0.0,0.0,0.0,0.0,0.0,0.0,0.0,0.0,0.0,0.0,0.0,0.0,0.0,0.0,0.0,0.0,0.0,0.0,0.0,0.0,0.0,0.0,0.0,0.0,0.0,0.0,0.0,0.0,0.0,0.0,3.0983,0.0,0.0,0.0,0.0,0.0,0.0,0.0,0.0,0.0,0.0,0.0,0.0,0.0,0.0,0.0,0.0,0.0,0.0,0.0,0.0,0.0,0.0,0.0,0.0,0.0,0.0,0.0,0.0,0.0,0.0,0.0,0.0,0.0,0.0,0.0,0.0,0.0,0.0,0.0,0.0,0.0,0.0,0.0,0.0,0.0,0.0,0.0,0.0,0.0,0.0,0.0,0.0,0.0,0.0,0.0,0.0,0.0,0.0,0.0,0.0,0.0,0.0,0.0,0.0,0.0,0.0,0.0,0.0,0.0,0.0,0.0,0.0,0.0,0.0,0.0,0.0,0.0,0.0,0.0,0.0,0.0,0.0,0.0,0.0,0.0,0.0,0.0,0.0,0.0,0.0,0.0,0.0,0.0,0.0,0.0,0.0,0.0,0.0,0.0,0.0,0.0,0.0,0.0,0.0,0.0,0.0,0.0,0.0,0.0,0.0,0.0,0.0,0.0,0.0,0.0,0.0,3.184,0.0,0.0,0.0,0.0,0.0,0.0,0.0,0.0,0.0,0.0,0.0,0.0,0.0,0.0,0.0,0.0,0.0,0.0,0.0,0.0,0.0,0.0,0.0,0.0,0.0,0.0,0.0,0.0,0.0,0.0,0.0,0.0,0.0,0.0,0.0,0.0,0.0,0.0,0.0,0.0,0.0,0.0,0.0,0.0,0.0,0.0,0.0,0.0,0.0,0.0,0.0,0.0,0.0,0.0,0.0,0.0,0.0,0.0,0.0,0.0,0.0,0.0,0.0,0.0,0.0,0.0,0.0,0.0,0.0,0.0,0.0,0.0,0.0,0.0,0.0,0.0,0.0,0.0,0.0,0.0,0.0,0.0,0.0,0.0,0.0,0.0,0.0,0.0,0.0,0.0,0.0,0.0,0.0,0.0,0.0,0.0,0.0,0.0,0.0,0.0,0.0,0.0,0.0,0.0,0.0,0.0,0.0,0.0,3.6757,3.7373,3.7777,3.793,3.7334,3.6122,3.5345,3.3473,3.1098,0.0,0.0,0.0,0.0,0.0,0.0,0.0,0.0,0.0,0.0,0.0,0.0,0.0,0.0,0.0,0.0,0.0,0.0,0.0,0.0,0.0,0.0,0.0,0.0,0.0,0.0,0.0,0.0,0.0,0.0,0.0,0.0,0.0,0.0,0.0,0.0,0.0,0.0,0.0,3.2008,3.3505,3.4614,3.5202,0.0,0.0,0.0,0.0,0.0,0.0,0.0,0.0,0.0,0.0,0.0,0.0,0.0,0.0,0.0,0.0,0.0,0.0,0.0,0.0,0.0,0.0,0.0,0.0,0.0,0.0,0.0,0.0,0.0,0.0,0.0,0.0,0.0,0.0,0.0,0.0,0.0,0.0,0.0,0.0,0.0,0.0,0.0,0.0,2.9066,2.9302,0.0,0.0,0.0,0.0,0.0,0.0,0.0,0.0,0.0,0.0,0.0,0.0,0.0,3.7642,3.8277,3.92,3.8988,3.768,3.8546,3.8219,3.6911,3.7642,3.8296,3.8796,3.8661,0.0,3.3498,3.2311,0.0,0.0,0.0,0.0,0.0,0.0,0.0,0.0,0.0,0.0,0.0,0.0,0.0,0.0,0.0,0.0,0.0,0.0,0.0,0.0,0.0,0.0,0.0,0.0,0.0,0.0,0.0,0.0,0.0,0.0,0.0,0.0,0.0,0.0,0.0,0.0,3.0228,3.2577,3.3963,3.4805,3.5599,3.6211,3.4058,3.3632,3.4468,3.4092,0.0,0.0,0.0,0.0,0.0,0.0,0.0,0.0,0.0,0.0,0.0,0.0,0.0,0.0,0.0,0.0,0.0,0.0,0.0,0.0,0.0,0.0,0.0,0.0,0.0,0.0,0.0,0.0,0.0,0.0,0.0,0.0,0.0,0.0,0.0,0.0,0.0,0.0,0.0,3.0535,3.1134,3.1092,3.2158,3.3038,0.0,0.0,0.0,0.0,0.0,0.0,0.0,0.0,0.0,3.6219,3.7834,3.843,3.7834,3.9161,3.9681,3.9411,4.0109,4.0377,4.0315,4.0456,4.0856,4.1431,4.1431,4.0281,3.8285,3.655,3.5906,3.5952,0.0,0.0,0.0,0.0,3.6285,3.7357,0.0,0.0,0.0,0.0,0.0,0.0,0.0,0.0,0.0,0.0,0.0,0.0,0.0,0.0,0.0,0.0,0.0,0.0,0.0,0.0,0.0,0.0,0.0,0.0,0.0,0.0,0.0,0.0,3.4109,3.6024,3.6644,3.6906,3.7336,3.7917,3.7302,3.6768,3.6211,3.5147,3.3899,0.0,0.0,0.0,0.0,0.0,0.0,0.0,0.0,0.0,0.0,0.0,0.0,0.0,0.0,0.0,0.0,0.0,0.0,0.0,0.0,0.0,0.0,0.0,0.0,0.0,0.0,0.0,0.0,0.0,0.0,0.0,0.0,0.0,0.0,0.0,0.0,0.0,0.0,3.1339,3.213,3.2072,3.3211,3.3934,0.0,0.0,0.0,0.0,0.0,0.0,3.6449,3.8469,3.9008,3.7719,3.9354,3.9758,3.8661,4.0142,4.1316,4.2143,4.2527,4.314,4.3903,4.3596,4.3521,4.3614,4.3614,4.3304,4.2604,4.0438,3.8773,3.7571,3.7344,3.7386,3.7539,3.7329,3.8172,3.9416,0.0,0.0,0.0,0.0,0.0,0.0,0.0,0.0,0.0,0.0,0.0,0.0,0.0,0.0,0.0,0.0,0.0,0.0,0.0,0.0,0.0,0.0,0.0,0.0,0.0,0.0,0.0,3.5936,3.7033,0.0,4.1087,4.1273,4.1724,4.235,4.1765,4.0809,3.9386,3.5514,3.4706,3.5771,0.0,0.0,0.0,0.0,0.0,0.0,0.0,0.0,0.0,0.0,0.0,0.0,0.0,0.0,0.0,0.0,0.0,0.0,0.0,0.0,0.0,0.0,0.0,0.0,0.0,0.0,0.0,0.0,0.0,0.0,0.0,0.0,0.0,0.0,0.0,0.0,0.0,0.0,0.0,3.0335,3.2565,0.0,0.0,0.0,0.0,3.7583,3.8512,3.9046,3.9104,3.995,4.0392,4.0296,4.1989,4.322,4.3912,4.4816,4.572,4.6586,4.6606,4.6455,4.6151,4.6129,4.5709,4.5004,4.5004,4.5149,4.5143,4.1802,4.0383,4.0233,3.9394,3.9531,4.0125,3.9339,3.9608,4.0241,0.0,0.0,0.0,0.0,0.0,0.0,0.0,0.0,0.0,0.0,0.0,0.0,0.0,0.0,0.0,0.0,0.0,0.0,0.0,0.0,0.0,0.0,0.0,0.0,0.0,0.0,3.5005,3.7957,3.9526,4.1233,4.3088,4.32,4.3341,4.3558,4.3268,4.2651,4.1611,3.8504,3.62,3.4504,3.2284,3.1219,0.0,0.0,0.0,0.0,0.0,0.0,0.0,0.0,0.0,0.0,0.0,0.0,0.0,0.0,0.0,0.0,0.0,0.0,0.0,0.0,0.0,0.0,0.0,0.0,0.0,0.0,0.0,0.0,0.0,0.0,0.0,0.0,0.0,0.0,0.0,0.0,0.0,3.4955,3.6961,0.0,3.7731,3.8051,3.8408,3.8696,4.0088,4.0912,4.0912,4.3278,4.4355,4.3797,4.5432,4.622,4.599,4.6797,4.7223,4.7289,4.7072,4.6884,4.6739,4.6478,4.6355,4.6322,4.6322,4.6114,4.5622,4.4421,4.3536,4.2819,4.1418,4.1037,4.1267,4.0979,4.1402,4.2187,0.0,0.0,0.0,0.0,0.0,0.0,0.0,0.0,0.0,0.0,0.0,0.0,0.0,0.0,0.0,0.0,0.0,0.0,0.0,0.0,0.0,0.0,0.0,0.0,0.0,3.5634,3.8006,4.0574,4.1903,4.3226,4.4488,4.4082,4.382,4.3746,4.3447,4.3438,4.3469,4.1546,3.858,3.4991,3.3313,3.2614,3.2357,0.0,0.0,0.0,0.0,0.0,0.0,0.0,0.0,0.0,0.0,0.0,0.0,0.0,0.0,0.0,0.0,0.0,0.0,0.0,0.0,0.0,0.0,0.0,0.0,0.0,0.0,0.0,0.0,0.0,0.0,0.0,0.0,0.0,0.0,0.0,3.6554,3.8514,4.0024,4.079,4.0468,4.0463,4.0595,4.0899,4.253,4.3643,4.3912,4.6067,4.7048,4.6451,4.7528,4.7836,4.7317,4.7836,4.8047,4.7952,4.7694,4.7475,4.7237,4.6962,4.6825,4.6757,4.6523,4.6177,4.5779,4.5496,4.5,4.4306,4.3483,4.3216,4.3348,4.3617,4.4171,4.4816,0.0,0.0,0.0,0.0,0.0,0.0,0.0,0.0,0.0,0.0,0.0,0.0,0.0,0.0,0.0,0.0,0.0,0.0,0.0,0.0,0.0,0.0,0.0,0.0,3.5424,3.8061,4.0891,4.3955,4.422,4.4767,4.5511,4.4136,4.3473,4.3299,4.274,4.3409,4.4988,4.4422,4.1789,3.7862,3.5951,3.5137,3.4844,0.0,0.0,0.0,0.0,0.0,0.0,0.0,0.0,0.0,0.0,0.0,0.0,0.0,0.0,0.0,0.0,0.0,0.0,0.0,0.0,0.0,0.0,0.0,0.0,0.0,0.0,0.0,0.0,0.0,0.0,0.0,0.0,0.0,3.4068,3.7194,3.9599,4.0452,4.1349,4.1577,4.0809,4.2208,4.3532,4.4393,4.6028,4.7336,4.8144,4.8182,4.8163,4.8125,4.8163,4.8163,4.8125,4.8145,4.8372,4.8829,4.8805,4.8434,4.7723,4.7723,4.7262,4.6429,4.5642,4.5503,4.579,4.5006,4.4667,4.4749,4.5523,4.6013,4.6393,4.7232,4.7771,4.799,0.0,0.0,0.0,0.0,0.0,0.0,0.0,0.0,0.0,0.0,0.0,0.0,0.0,0.0,0.0,0.0,0.0,0.0,0.0,0.0,0.0,0.0,0.0,0.0,3.9661,4.0674,4.2423,4.5005,4.5226,4.5699,4.6414,4.6477,4.6289,4.584,4.5996,4.5856,4.551,4.5663,4.4759,4.3039,3.984,3.8212,3.7349,0.0,0.0,0.0,0.0,0.0,0.0,0.0,0.0,0.0,0.0,0.0,0.0,0.0,0.0,0.0,0.0,0.0,0.0,0.0,0.0,0.0,0.0,0.0,0.0,0.0,0.0,0.0,0.0,0.0,0.0,0.0,0.0,3.8219,3.8666,4.0092,4.186,4.3917,4.5453,4.626,4.603,4.6433,4.7049,4.7932,4.8432,4.9086,4.9933,4.999,4.9566,4.8643,4.9507,4.9527,4.8624,4.9236,4.9453,4.9305,4.8999,4.8609,4.8126,4.8126,4.7997,4.7776,4.7537,4.7185,4.6736,4.6496,4.6215,4.5975,4.6102,4.621,4.6437,4.7527,4.801,4.8067,0.0,0.0,0.0,0.0,0.0,0.0,0.0,0.0,0.0,0.0,0.0,0.0,0.0,0.0,0.0,0.0,0.0,0.0,0.0,0.0,0.0,0.0,0.0,3.8564,4.1998,4.2725,4.4143,4.6456,4.6231,4.6532,4.7259,4.7278,4.7141,4.6827,4.7093,4.6941,4.6554,4.6813,4.6996,4.6958,4.4498,4.2832,4.1431,3.812,3.7367,3.7863,3.6248,3.667,3.7771,3.634,0.0,0.0,0.0,0.0,0.0,0.0,0.0,0.0,0.0,0.0,0.0,0.0,0.0,0.0,0.0,0.0,0.0,0.0,0.0,0.0,0.0,0.0,0.0,0.0,3.9738,4.22,4.397,4.4049,4.4741,4.6932,4.7721,4.8394,4.9125,4.9183,4.9548,5.0375,5.0798,5.1202,5.1722,5.1235,5.0776,5.0392,5.0274,4.9992,4.9618,5.0092,5.0147,4.9759,4.9855,4.973,4.9352,4.9003,4.8838,0.0,4.8292,4.7774,4.7348,4.7185,4.6949,0.0,0.0,0.0,0.0,0.0,4.8952,4.8644,0.0,0.0,0.0,0.0,0.0,0.0,0.0,0.0,0.0,0.0,0.0,0.0,0.0,0.0,0.0,0.0,0.0,0.0,0.0,0.0,0.0,3.5684,3.8227,4.0787,4.3321,4.4422,4.5923,4.7919,4.7327,4.7378,4.802,4.7445,4.7158,4.7175,4.7259,4.7578,4.8062,4.8062,4.8767,4.9811,4.909,4.7875,4.6127,4.2976,4.2231,4.2635,4.102,4.0102,3.9588,3.9239,0.0,0.0,0.0,0.0,0.0,0.0,0.0,0.0,0.0,0.0,0.0,0.0,0.0,0.0,0.0,0.0,0.0,0.0,0.0,0.0,0.0,0.0,0.0,0.0,4.3124,4.5182,4.9125,4.849,4.8163,4.9644,4.9144,4.9279,5.0818,5.0971,5.1318,5.2145,5.2818,5.3241,5.3337,0.0,0.0,0.0,0.0,5.0002,5.0772,5.0772,5.0603,5.024,5.0931,5.1102,5.0784,5.005,4.9703,4.9579,4.8466,4.7942,4.789,4.7504,4.7416,4.7473,4.774,4.8362,4.9236,5.0296,5.0202,4.9548,0.0,0.0,0.0,0.0,0.0,0.0,0.0,0.0,0.0,0.0,0.0,0.0,0.0,0.0,0.0,0.0,0.0,0.0,0.0,0.0,3.4305,3.9494,4.0725,4.2731,4.5752,4.6794,4.7479,4.7919,4.8359,4.8663,4.8798,4.9238,4.9441,4.9475,5.0084,5.0401,5.051,5.051,5.068,5.0875,5.0611,4.9862,4.8681,4.6709,4.6049,4.5975,4.436,4.4525,4.5094,4.2488,4.2359,4.2782,3.968,0.0,0.0,0.0,0.0,0.0,0.0,0.0,0.0,0.0,0.0,0.0,0.0,0.0,0.0,0.0,0.0,0.0,0.0,0.0,0.0,4.4374,4.6721,4.8933,5.1106,5.1741,5.2106,5.2433,5.2318,5.2356,5.2683,5.2722,5.3068,5.3933,5.351,5.351,5.4203,5.2365,0.0,5.2095,5.1043,5.0698,5.118,5.118,5.1164,5.1078,0.0,0.0,5.0802,5.0637,5.0376,5.0005,4.9722,4.9468,4.9141,4.906,4.9246,4.9466,4.8878,4.9362,5.0374,5.0606,5.0587,5.0452,0.0,0.0,0.0,0.0,0.0,0.0,0.0,0.0,0.0,0.0,0.0,0.0,0.0,0.0,0.0,0.0,0.0,0.0,0.0,3.4146,3.7196,4.1173,4.3155,4.511,4.7187,4.7674,4.8274,4.9001,4.9373,4.9746,5.0118,5.049,5.0659,5.0676,5.1048,5.1217,5.1217,5.1217,5.1439,5.1758,5.1662,5.1823,5.1843,4.9746,4.8967,4.8857,4.8049,4.7737,4.7407,4.5388,4.4709,4.4213,4.1387,3.9955,3.8744,0.0,0.0,0.0,0.0,0.0,0.0,0.0,0.0,0.0,0.0,0.0,0.0,0.0,0.0,3.8745,0.0,0.0,4.5201,4.774,4.9913,5.176,5.3029,5.3914,5.4299,5.3895,5.3472,5.353,5.4376,5.4087,5.4203,5.503,5.4703,5.4543,5.4786,5.3187,5.2454,5.2878,5.1498,5.1045,5.1656,5.1636,5.1636,5.1636,5.1897,5.2013,5.1995,5.1573,5.1374,5.1337,5.1147,5.1066,5.1022,5.0799,5.0818,5.0955,5.0552,5.0774,5.1241,5.0837,5.0952,5.1241,0.0,0.0,0.0,0.0,0.0,0.0,0.0,0.0,0.0,0.0,0.0,0.0,0.0,0.0,0.0,0.0,0.0,0.0,0.0,3.6541,4.0032,4.2664,4.5508,4.7375,4.8308,4.8477,4.9137,5.0304,5.0304,5.0625,5.1217,5.1369,5.142,5.1437,5.1589,5.1657,5.1657,5.1657,5.1992,5.2546,5.2494,5.3225,5.4072,5.1883,5.1255,5.1444,5.0808,4.9511,4.7957,4.715,4.581,4.4158,4.2378,4.1589,4.0671,3.7191,3.6578,0.0,0.0,0.0,0.0,0.0,0.0,0.0,0.0,0.0,3.6161,3.7329,3.9813,4.2235,4.3673,4.6089,4.8606,5.0818,5.2452,5.376,5.4607,5.528,5.5453,5.4799,5.4107,5.4222,5.5568,5.5107,5.4991,5.5645,5.564,5.5446,5.5134,5.3808,5.3286,5.3777,5.2001,5.1426,5.2215,5.2234,5.2234,5.2234,5.2894,5.3206,5.3188,5.2527,5.2412,5.2706,5.2364,5.2414,5.27,5.2312,5.2164,5.2164,5.2164,5.226,5.2318,5.1491,5.1491,5.1818,0.0,0.0,0.0,0.0,0.0,0.0,0.0,0.0,0.0,0.0,0.0,0.0,0.0,0.0,0.0,0.0,0.0,0.0,3.522,3.8345,4.188,4.5822,4.7739,4.9063,4.983,5.0507,5.093,5.1099,5.1099,5.1133,5.1234,5.1877,5.2181,5.2215,5.2926,5.3247,5.3247,5.3247,5.3314,5.3362,5.3283,5.3359,5.3391,5.243,5.2877,5.3616,5.083,4.8707,4.7131,4.6305,4.4947,4.3699,4.4158,4.3332,4.1937,4.0763,0.0,3.5009,3.3862,3.2614,3.2485,3.5964,3.5349,3.5395,0.0,0.0,4.0174,4.2616,4.4879,4.6562,4.6849,4.9346,5.1702,5.276,5.3722,5.4645,5.5453,5.5645,5.5665,5.5568,5.5472,5.5491,5.5684,5.5607,5.5588,5.5684,5.5375,5.516,5.5088,5.3559,5.303,5.3795,5.2536,5.2252,5.3078,5.3078,5.3078,5.3078,5.317,5.3206,5.3206,5.3115,5.3085,5.312,5.3091,5.308,5.3142,5.3067,5.3049,5.3049,5.3049,5.353,5.4107,5.3241,5.2491,5.1895,0.0,0.0,0.0,0.0,0.0,0.0,0.0,0.0,0.0,0.0,0.0,0.0,0.0,0.0,0.0,0.0,0.0,0.0,3.3293,3.8347,4.2521,4.5268,4.8133,4.9779,5.0084,5.0828,5.142,5.1843,5.1843,5.2097,5.2553,5.2858,5.301,5.3044,5.3805,5.3907,5.3534,5.3957,5.389,5.3467,5.3491,5.369,5.38,5.1294,5.0998,5.1604,4.941,4.7068,0.0,0.0,4.4108,4.3305,4.3848,4.3222,4.2047,4.0781,3.9184,0.0,3.6872,3.6156,0.0,0.0,3.9197,4.0317,4.3495,4.3989,4.4233,4.582,4.7796,4.923,4.9287,5.1332,5.3302,0.0,5.5006,5.5848,5.669,5.6164,5.5512,5.5064,5.5007,5.5186,5.5662,5.5703,5.5599,5.5375,5.5186,5.4876,5.435,5.3676,5.333,5.3444,5.2964,5.2858,5.3206,5.3206,5.3206,5.3206,5.3206,5.3206,5.3206,5.3206,5.3476,5.3987,5.4451,5.4395,5.3953,5.3953,5.3953,5.3953,5.3953,5.4472,5.503,5.3683,5.3299,5.328,0.0,0.0,0.0,0.0,0.0,0.0,0.0,0.0,0.0,0.0,0.0,0.0,0.0,0.0,0.0,0.0,0.0,0.0,0.0,3.7439,4.1898,4.4507,4.7733,4.9779,5.0388,5.1133,5.1877,5.2638,5.2638,5.2942,5.3501,5.3501,5.3501,5.3518,5.4059,5.3991,5.3534,5.4059,5.3991,5.3484,5.3264,5.3372,5.3301,4.9739,4.8083,4.7518,4.6406,4.4174,0.0,0.0,4.1506,4.0868,4.187,4.1607,4.0818,4.0102,3.9423,3.8781,3.8193,0.0,0.0,4.0524,4.2525,4.4488,4.5755,4.6687,4.7562,4.8655,5.015,5.1273,5.1499,5.2958,5.4387,5.5142,5.5845,5.6482,5.6996,5.6109,5.5069,5.4239,5.3937,5.4124,5.4948,5.5336,5.5423,5.5115,5.5088,5.4866,5.4331,5.4205,5.407,5.3867,5.3867,5.3867,5.3867,5.3867,5.3757,5.3537,5.3537,5.3427,5.3206,5.3336,5.372,5.4355,5.5186,5.5209,5.4671,5.4797,5.4818,5.4818,5.4818,5.5184,5.5549,5.4337,5.4145,5.428,0.0,0.0,0.0,0.0,0.0,0.0,0.0,0.0,0.0,0.0,0.0,0.0,0.0,0.0,0.0,0.0,0.0,0.0,0.0,3.5555,3.9731,4.4406,4.6769,4.8984,5.1133,5.1894,5.2655,5.3467,5.3467,5.3484,5.3501,5.3501,5.3501,5.3501,5.3518,5.3518,5.3501,5.3518,5.3518,5.3433,5.2655,5.1911,5.0963,4.7986,4.4643,4.1529,4.1358,0.0,0.0,0.0,3.6155,3.5321,3.7992,3.8285,0.0,3.9441,3.823,0.0,0.0,0.0,3.946,4.2598,4.4617,4.6452,4.8893,4.9446,4.9887,5.154,5.225,5.2789,5.3553,5.4453,5.5208,5.5605,5.6034,5.6188,5.5813,5.505,5.4201,5.3333,5.2534,5.2394,0.0,5.4382,5.5115,5.5088,5.5088,5.5266,5.5635,5.5227,5.5164,5.5544,5.5519,5.5519,5.5519,5.5519,5.5133,5.4363,5.4363,5.3959,5.3206,5.3586,5.3814,5.3869,5.4741,5.5115,5.5122,5.5497,5.5665,5.5665,5.5665,5.5684,5.5684,5.5645,5.5145,5.4376,0.0,0.0,0.0,0.0,0.0,0.0,0.0,0.0,0.0,0.0,0.0,0.0,0.0,0.0,0.0,0.0,0.0,0.0,0.0,3.3854,3.7619,4.073,4.4925,4.775,4.9001,5.0219,5.1217,5.1978,5.2469,5.2706,5.2723,5.3247,5.3501,5.3518,5.4008,5.3957,5.3534,5.4008,5.3636,5.2587,5.1336,5.0405,4.9373,4.5987,4.263,3.9576,0.0,0.0,0.0,0.0,0.0,0.0,3.5663,0.0,0.0,3.634,0.0,0.0,0.0,0.0,4.4268,4.7535,4.9554,5.1242,5.3133,5.3133,5.2766,5.2803,5.2066,5.1318,5.106,5.191,5.315,5.4705,5.5672,5.6676,5.7959,5.6911,5.5328,5.3419,5.3419,0.0,0.0,0.0,0.0,5.4213,5.4724,5.4965,5.4849,5.5184,5.5478,5.5574,5.5592,5.5592,5.5592,5.506,5.4932,5.5188,5.4656,5.4252,5.3977,5.3866,5.3814,5.3832,5.4452,5.4701,5.4731,5.5134,5.5306,5.5331,5.5599,5.5703,5.5703,5.5703,5.553,5.5107,0.0,0.0,0.0,0.0,0.0,0.0,0.0,0.0,0.0,0.0,0.0,0.0,0.0,0.0,0.0,0.0,0.0,0.0,0.0,0.0,3.4083,3.692,4.046,4.3132,4.4744,4.5382,4.6481,4.802,4.8765,4.9407,4.9965,5.0744,5.1251,5.1539,5.1995,5.2097,5.1911,5.2114,5.1319,4.9859,4.8369,4.6861,4.519,4.2056,3.9027,0.0,0.0,0.0,0.0,0.0,0.0,0.0,0.0,0.0,0.0,0.0,0.0,0.0,0.0,4.5131,4.7902,5.0912,5.2876,5.4252,5.4987,5.4546,5.3665,5.2582,5.1298,5.0123,4.9279,4.9676,5.0807,5.2922,5.3681,5.4895,5.7286,5.6136,5.462,5.3353,5.3408,5.2931,0.0,0.0,0.0,5.3777,5.4707,5.5193,5.5027,5.5821,5.6326,5.6436,5.6455,5.6455,5.6455,5.5941,5.5794,5.6014,5.4913,5.4399,5.4363,5.3835,5.3604,5.3604,5.4067,5.4255,5.4288,5.4876,5.5088,5.5134,5.5535,5.5703,5.5703,5.5703,5.5703,5.5491,0.0,0.0,0.0,0.0,0.0,0.0,0.0,0.0,0.0,0.0,0.0,0.0,0.0,0.0,0.0,0.0,0.0,0.0,0.0,0.0,0.0,3.3073,3.4007,3.5836,3.8846,3.8207,3.9225,4.2066,4.2811,4.3944,4.5382,4.6109,4.6819,4.7513,4.7513,4.7902,4.8511,4.7817,4.6726,4.5348,4.3854,4.1597,3.887,3.6638,0.0,0.0,0.0,0.0,0.0,0.0,0.0,0.0,0.0,0.0,0.0,0.0,0.0,4.1901,4.4342,4.7352,5.038,5.2803,5.4564,5.5482,5.4656,5.3812,5.2747,5.1077,4.9994,4.9077,0.0,0.0,4.8386,5.0444,5.0583,5.1398,5.4233,5.3304,5.2564,0.0,0.0,0.0,0.0,0.0,0.0,5.387,0.0,5.5873,5.6195,5.7013,5.7603,5.796,5.7997,5.7997,5.7997,5.7997,5.7593,5.6785,5.5207,5.4454,5.4436,5.3592,5.3206,5.3206,5.3604,5.3777,5.3851,5.4712,5.5061,5.5115,5.5535,5.5703,5.5703,5.5703,5.5703,5.5588,0.0,0.0,0.0,0.0,0.0,0.0,0.0,0.0,0.0,0.0,0.0,0.0,0.0,0.0,0.0,0.0,0.0,0.0,0.0,0.0,0.0,0.0,0.0,0.0,0.0,0.0,0.0,0.0,0.0,4.0408,4.0815,4.1545,4.195,4.21,4.2136,4.2221,4.2337,4.2204,4.1629,4.0696,0.0,3.7933,3.657,0.0,0.0,0.0,0.0,0.0,0.0,0.0,0.0,0.0,0.0,0.0,3.8285,0.0,0.0,4.5351,4.8416,5.1591,5.4326,5.5574,5.6638,5.7005,5.5611,5.4216,5.2582,5.0343,4.7792,4.57,0.0,0.0,0.0,4.9912,5.2026,0.0,5.7186,5.6922,0.0,5.5097,0.0,5.5115,5.3904,5.4509,0.0,0.0,5.5438,5.59,5.662,5.7431,5.7876,5.7997,5.7997,5.7997,5.7997,5.7997,5.7593,5.6804,5.5776,5.528,5.5244,5.3849,5.3206,5.3206,5.3295,5.3359,5.3422,5.4288,5.464,5.4701,5.5423,5.5703,5.5703,5.5703,5.5703,5.5665,0.0,0.0,0.0,0.0,0.0,0.0,0.0,0.0,0.0,0.0,0.0,0.0,0.0,0.0,0.0,0.0,0.0,0.0,0.0,0.0,0.0,0.0,0.0,0.0,0.0,0.0,0.0,0.0,0.0,0.0,0.0,3.648,3.7148,3.7763,3.7793,3.7963,3.8252,0.0,0.0,0.0,0.0,0.0,0.0,0.0,0.0,0.0,0.0,0.0,0.0,0.0,0.0,3.6211,3.6817,3.9001,4.1662,4.3277,0.0,4.8765,5.2013,5.4473,5.64,5.7574,5.7666,5.6969,5.4987,5.3298,5.1261,4.8104,4.57,0.0,0.0,0.0,0.0,0.0,0.0,0.0,5.6302,5.6602,5.6345,0.0,5.6528,0.0,5.5042,5.5647,5.6124,0.0,5.6124,5.6326,5.6785,5.7556,5.7997,5.7997,5.7997,5.7997,5.7997,5.7997,5.7776,5.7317,5.6143,5.5592,5.5537,5.394,5.3206,5.3206,0.0,5.3295,5.3524,5.4206,5.4609,5.4838,5.5446,5.5703,5.5703,5.5703,5.5703,5.5703,0.0,0.0,0.0,0.0,0.0,0.0,0.0,0.0,0.0,0.0,0.0,0.0,0.0,0.0,0.0,0.0,0.0,0.0,0.0,0.0,0.0,0.0,0.0,0.0,0.0,0.0,0.0,0.0,0.0,0.0,0.0,0.0,0.0,0.0,0.0,0.0,0.0,0.0,0.0,0.0,0.0,0.0,0.0,0.0,0.0,0.0,0.0,0.0,0.0,0.0,3.6725,3.8817,4.0928,4.3406,4.581,4.7315,4.9499,5.2087,5.5097,5.651,5.7464,5.8859,5.7923,5.5996,5.3463,5.1555,4.9187,4.5204,0.0,4.2616,4.135,4.1203,4.2359,4.5681,0.0,4.9279,5.4051,5.473,5.528,5.6785,5.6969,5.6693,5.5978,5.6547,5.6969,5.6969,5.6969,5.6969,5.6969,5.7611,5.7997,5.7997,5.7997,5.7997,5.7997,5.7997,5.7997,5.7978,5.6363,5.5592,5.5537,5.394,5.3206,5.3206,0.0,0.0,5.3851,5.4288,5.475,5.5134,5.5535,5.5703,5.5703,5.5703,5.5662,5.564,0.0,0.0,0.0,0.0,0.0,0.0,0.0,0.0,0.0,0.0,2.4996,2.4208,0.0,0.0,0.0,0.0,0.0,0.0,0.0,0.0,0.0,0.0,0.0,0.0,0.0,0.0,0.0,0.0,0.0,0.0,0.0,0.0,0.0,0.0,0.0,0.0,0.0,0.0,0.0,0.0,0.0,0.0,0.0,0.0,0.0,0.0,0.0,0.0,0.0,0.0,3.99,4.3534,4.3956,4.6691,4.9939,5.0875,5.2858,5.517,5.706,5.818,5.8859,5.9153,5.7501,5.4987,5.1922,4.9426,0.0,0.0,0.0,4.0634,4.1038,4.1644,4.3369,4.726,0.0,0.0,0.0,0.0,5.673,0.0,0.0,0.0,0.0,0.0,0.0,0.0,0.0,5.7795,5.7795,5.7923,5.7997,5.7997,5.7997,5.7997,5.7997,5.7997,5.7997,5.7978,5.6363,5.5592,5.5537,5.394,5.3206,5.3206,5.3206,0.0,5.3851,5.4288,5.475,5.5134,5.5535,5.5703,5.5703,5.5703,5.5489,5.5237,0.0,0.0,0.0,0.0,0.0,0.0,0.0,2.4532,2.5096,2.6995,2.6539,2.5915,2.5493,2.4704,0.0,0.0,0.0,0.0,0.0,0.0,0.0,0.0,0.0,0.0,0.0,0.0,0.0,0.0,0.0,0.0,0.0,0.0,0.0,0.0,0.0,0.0,0.0,0.0,0.0,0.0,0.0,0.0,0.0,0.0,0.0,0.0,0.0,0.0,0.0,0.0,3.9992,4.5002,4.6709,4.9462,5.2289,5.35,5.4987,5.6675,5.8694,5.9538,5.9832,5.9832,5.7373,5.4124,5.0912,0.0,0.0,0.0,0.0,3.9882,3.9863,0.0,0.0,0.0,0.0,0.0,0.0,0.0,0.0,0.0,0.0,0.0,0.0,0.0,0.0,0.0,0.0,5.7997,5.7997,5.7997,5.7997,5.7997,5.7997,5.7997,5.7997,5.7997,5.7997,5.7978,5.6363,5.5592,5.5537,5.394,5.3206,5.3206,5.3206,0.0,5.4187,5.4406,5.4867,5.5423,5.5621,5.5577,5.5399,5.5399,5.5134,5.4838,0.0,0.0,0.0,0.0,0.0,0.0,0.0,2.576,2.6326,2.8297,2.8264,2.7783,2.7098,2.5656,2.434,0.0,0.0,0.0,0.0,0.0,0.0,0.0,0.0,0.0,0.0,0.0,0.0,0.0,0.0,0.0,0.0,0.0,0.0,0.0,0.0,0.0,0.0,0.0,0.0,0.0,0.0,0.0,0.0,0.0,0.0,0.0,0.0,0.0,0.0,0.0,3.8634,4.3736,4.6985,5.0288,5.317,5.4252,5.5629,5.7262,5.9318,6.0015,6.0144,6.0144,5.6987,5.3078,5.0013,4.6526,0.0,0.0,3.9496,3.9294,3.9019,0.0,0.0,0.0,0.0,0.0,0.0,0.0,0.0,0.0,0.0,0.0,0.0,0.0,0.0,0.0,0.0,0.0,5.7997,5.7997,5.7997,5.7997,5.7997,5.7997,5.7997,5.7997,5.7905,5.7721,5.629,5.55,5.528,5.3867,5.3206,5.3206,5.3206,0.0,0.0,5.4471,5.4924,5.5577,5.5662,5.5446,5.5088,5.5088,5.479,5.4373,0.0,0.0,0.0,0.0,0.0,0.0,0.0,2.6954,2.8388,3.076,2.9806,2.8759,2.8439,2.7218,2.5496,0.0,0.0,0.0,0.0,0.0,0.0,0.0,0.0,0.0,0.0,0.0,0.0,0.0,0.0,0.0,0.0,0.0,0.0,0.0,0.0,0.0,0.0,0.0,0.0,0.0,0.0,0.0,0.0,0.0,0.0,0.0,0.0,0.0,0.0,0.0,0.0,3.8707,4.1956,4.7168,5.1995,5.1408,0.0,0.0,5.796,5.8749,5.9318,5.9318,5.5739,5.1555,4.9003,0.0,0.0,3.9166,3.823,3.812,3.9533,0.0,0.0,0.0,0.0,0.0,0.0,0.0,0.0,0.0,0.0,0.0,0.0,0.0,0.0,0.0,0.0,0.0,5.7997,5.7997,5.7997,5.7997,5.7997,5.7997,5.7997,5.7997,5.7629,5.6914,5.6014,5.5207,5.4473,5.361,5.3206,5.3206,5.3206,0.0,0.0,5.4322,5.476,5.5186,5.5554,5.5446,5.5088,5.5088,5.4591,5.3977,0.0,0.0,0.0,0.0,0.0,0.0,2.5914,2.6282,2.7383,3.0301,2.9576,2.8651,2.8404,2.7439,2.5823,0.0,0.0,0.0,0.0,0.0,0.0,0.0,0.0,0.0,0.0,0.0,0.0,0.0,0.0,0.0,0.0,0.0,0.0,0.0,0.0,0.0,0.0,0.0,0.0,0.0,0.0,0.0,0.0,0.0,0.0,0.0,0.0,0.0,0.0,0.0,0.0,0.0,3.6927,4.0653,0.0,0.0,5.183,5.5023,5.6804,5.8584,5.9703,5.8731,5.5207,5.1224,4.8251,0.0,4.0065,3.8927,3.8046,3.7826,3.8964,0.0,0.0,0.0,0.0,0.0,0.0,0.0,0.0,0.0,0.0,0.0,0.0,0.0,0.0,0.0,0.0,0.0,5.7997,5.7997,5.7997,5.7997,5.7997,5.7997,5.7997,5.7997,5.7593,5.6804,5.5978,5.517,5.4363,5.3573,5.3206,5.3206,5.3206,0.0,0.0,5.4013,5.4497,5.5134,5.5282,5.5088,5.4731,5.4731,5.4187,5.3484,0.0,0.0,0.0,0.0,0.0,2.4042,2.6023,2.6399,2.7273,2.9549,2.9338,2.8688,2.7915,2.6845,2.5427,2.3492,2.3193,0.0,0.0,0.0,0.0,0.0,0.0,0.0,0.0,0.0,0.0,0.0,0.0,0.0,0.0,0.0,0.0,0.0,0.0,0.0,0.0,0.0,0.0,0.0,0.0,0.0,0.0,0.0,0.0,0.0,0.0,0.0,0.0,0.0,0.0,0.0,0.0,0.0,0.0,0.0,4.8655,5.194,5.4363,5.6804,5.8345,5.7226,5.3904,5.0178,0.0,0.0,3.9019,3.845,3.7698,3.7386,3.8193,3.8584,0.0,0.0,0.0,4.147,4.4762,0.0,0.0,0.0,0.0,0.0,0.0,0.0,0.0,0.0,0.0,0.0,0.0,5.7997,5.7997,5.7997,5.7997,5.7997,5.7997,5.7758,5.7244,5.6436,5.5629,5.4821,5.4032,5.3463,5.3206,5.3206,0.0,0.0,0.0,5.374,5.4168,5.4741,5.4876,5.4671,5.4288,5.4288,5.3814,5.3248,0.0,0.0,0.0,0.0,0.0,0.0,2.6274,2.793,2.8957,2.8994,2.9466,2.9075,2.7217,2.5409,2.4165,2.3826,2.3363,0.0,0.0,0.0,0.0,0.0,0.0,0.0,0.0,0.0,0.0,0.0,0.0,0.0,0.0,0.0,0.0,0.0,0.0,0.0,0.0,0.0,0.0,0.0,0.0,0.0,0.0,0.0,0.0,0.0,0.0,0.0,0.0,0.0,0.0,0.0,0.0,0.0,0.0,0.0,4.403,4.7719,5.0196,5.2619,5.4454,5.4436,5.1371,4.7921,0.0,0.0,3.7514,3.7496,3.6853,3.656,3.7349,3.8157,3.8964,3.9772,0.0,0.0,0.0,0.0,0.0,0.0,0.0,0.0,0.0,0.0,0.0,0.0,0.0,0.0,0.0,5.7997,5.7997,5.7997,5.7997,5.7997,5.7997,5.7207,5.6418,5.5592,5.4803,5.3995,5.3225,5.3206,5.3206,0.0,0.0,0.0,0.0,5.3624,5.3814,5.3851,5.4322,5.4221,5.3814,5.3814,5.3545,5.3336,0.0,0.0,0.0,0.0,0.0,0.0,0.0,2.5383,2.6117,2.7236,2.6813,2.6598,2.6967,2.5501,2.4327,2.3843,2.3196,0.0,0.0,0.0,0.0,0.0,0.0,0.0,0.0,0.0,0.0,0.0,0.0,0.0,0.0,0.0,0.0,0.0,0.0,0.0,0.0,0.0,0.0,0.0,0.0,0.0,0.0,0.0,0.0,0.0,0.0,0.0,0.0,0.0,0.0,0.0,0.0,0.0,0.0,0.0,0.0,0.0,4.5296,4.7168,4.8453,4.7921,4.6379,4.4452,4.2286,0.0,3.7331,3.678,3.6009,3.5844,3.7221,3.7768,3.8608,4.0414,4.1075,0.0,0.0,0.0,0.0,0.0,0.0,0.0,0.0,0.0,0.0,0.0,0.0,0.0,0.0,5.7997,5.7997,5.7997,5.7464,5.7446,5.7997,5.6657,5.5849,5.5574,5.4785,5.3977,5.3206,5.3206,0.0,0.0,0.0,0.0,0.0,5.3336,5.3526,5.3814,5.3941,5.3941,5.3814,5.3814,5.3545,5.3272,0.0,0.0,0.0,0.0,0.0,0.0,0.0,2.4447,2.4887,2.5603,2.5248,2.5244,2.6117,2.4956,2.4074,2.3971,2.3276,0.0,0.0,0.0,0.0,0.0,0.0,0.0,0.0,0.0,0.0,2.5594,0.0,0.0,0.0,0.0,0.0,0.0,0.0,0.0,0.0,0.0,0.0,0.0,0.0,0.0,2.8594,0.0,0.0,0.0,0.0,0.0,0.0,0.0,0.0,0.0,0.0,0.0,0.0,0.0,0.0,0.0,0.0,4.333,4.445,4.392,4.2965,0.0,0.0,0.0,3.6413,3.5917,3.5385,3.5302,3.6358,3.7172,3.8122,3.9559,4.0708,0.0,0.0,0.0,0.0,0.0,0.0,0.0,0.0,0.0,0.0,0.0,0.0,0.0,0.0,5.7997,5.785,5.7556,5.706,5.6895,5.7079,5.5794,5.5133,5.5133,5.4326,5.3683,5.3206,5.3206,0.0,0.0,0.0,0.0,0.0,5.3206,5.3359,5.3565,5.3565,5.3565,5.3565,5.3565,5.3422,5.3272,0.0,0.0,0.0,0.0,0.0,0.0,0.0,2.4814,2.5054,2.43,2.4632,2.49,2.482,2.3997,2.362,2.4085,0.0,0.0,0.0,0.0,0.0,0.0,0.0,0.0,0.0,2.419,2.4997,2.6612,2.7402,2.8223,2.9062,2.9819,0.0,0.0,0.0,0.0,0.0,0.0,0.0,0.0,0.0,0.0,0.0,0.0,0.0,0.0,0.0,0.0,0.0,0.0,0.0,0.0,0.0,0.0,0.0,0.0,0.0,0.0,0.0,0.0,0.0,0.0,0.0,0.0,0.0,0.0,0.0,3.4917,3.4899,3.4954,3.5165,3.6452,3.7577,3.7816,3.9804,0.0,0.0,0.0,0.0,0.0,0.0,0.0,0.0,0.0,0.0,0.0,0.0,0.0,0.0,5.7905,5.7519,5.6702,5.662,5.6308,5.5592,5.4748,5.4344,5.4399,5.3592,5.3206,5.3206,5.3206,0.0,0.0,0.0,0.0,0.0,5.3206,5.3206,5.3206,5.3206,5.3206,5.3206,5.3206,5.3206,5.3359,0.0,0.0,0.0,0.0,0.0,0.0,0.0,0.0,0.0,0.0,2.4316,2.4308,2.4088,2.3862,2.3611,0.0,0.0,0.0,0.0,0.0,0.0,0.0,0.0,0.0,0.0,2.419,2.4997,2.6612,2.7402,2.8388,2.9533,2.974,2.8742,2.6846,0.0,0.0,0.0,0.0,0.0,0.0,0.0,0.0,0.0,0.0,0.0,0.0,2.8994,2.8994,0.0,0.0,0.0,0.0,0.0,0.0,0.0,0.0,3.3868,0.0,0.0,0.0,0.0,0.0,0.0,0.0,0.0,0.0,0.0,0.0,0.0,3.4697,3.6646,3.6878,3.7562,4.0025,4.1051,0.0,0.0,0.0,0.0,0.0,0.0,0.0,0.0,0.0,0.0,0.0,0.0,0.0,0.0,5.7079,5.6558,5.5442,5.5109,5.517,5.5592,5.4197,5.3794,5.4399,5.3592,5.3206,5.3206,5.3206,0.0,0.0,0.0,0.0,5.3206,5.3206,5.3206,5.3206,5.3206,5.3206,5.3206,5.3206,5.3381,5.372,0.0,0.0,0.0,0.0,0.0,0.0,0.0,0.0,0.0,0.0,0.0,0.0,0.0,0.0,0.0,0.0,0.0,0.0,0.0,0.0,0.0,0.0,0.0,0.0,0.0,2.419,2.5346,2.7714,2.8154,2.9205,3.0794,3.0459,2.9071,2.6854,2.6012,0.0,0.0,0.0,0.0,0.0,0.0,0.0,0.0,0.0,0.0,0.0,2.8994,2.8994,0.0,3.0852,3.1384,3.1678,0.0,0.0,0.0,0.0,3.3342,3.3444,3.3412,3.4016,3.4641,0.0,0.0,0.0,0.0,0.0,0.0,0.0,0.0,3.4321,3.6084,3.6473,0.0,0.0,4.097,0.0,0.0,0.0,0.0,0.0,0.0,0.0,0.0,0.0,0.0,0.0,0.0,0.0,0.0,5.697,5.6455,5.5024,5.5024,5.4907,5.4778,5.3737,5.3427,5.3849,5.3427,5.3206,5.3206,5.3206,5.3206,0.0,0.0,0.0,5.3206,5.3206,5.3206,5.3206,5.3206,5.3206,5.3206,5.3206,5.3444,5.3888,0.0,0.0,0.0,0.0,0.0,0.0,0.0,0.0,0.0,0.0,0.0,0.0,0.0,0.0,0.0,0.0,0.0,0.0,0.0,0.0,0.0,0.0,0.0,0.0,2.419,2.419,2.5603,2.8466,2.8874,2.9988,3.166,3.1325,2.9609,2.6685,2.4813,0.0,0.0,0.0,0.0,0.0,2.5993,0.0,0.0,0.0,0.0,0.0,0.0,0.0,0.0,3.0723,3.1219,3.1476,3.2963,0.0,0.0,0.0,0.0,0.0,3.2761,3.4067,3.5358,3.5177,0.0,0.0,0.0,0.0,0.0,0.0,0.0,0.0,0.0,0.0,0.0,0.0,0.0,0.0,0.0,0.0,0.0,0.0,0.0,0.0,0.0,0.0,0.0,0.0,0.0,0.0,0.0,5.6825,5.6403,5.4988,5.5322,5.5018,5.4013,5.3623,5.34,5.34,5.3336,5.3295,5.3295,5.3248,5.3206,0.0,0.0,0.0,5.3206,5.3206,5.3206,5.3206,5.3206,5.3206,5.3206,5.3206,5.3484,5.3977,0.0,0.0,0.0,0.0,0.0,0.0,0.0,0.0,0.0,0.0,0.0,0.0,0.0,0.0,0.0,0.0,0.0,0.0,0.0,0.0,0.0,0.0,0.0,2.419,2.419,2.419,2.4777,2.5933,2.8349,2.9548,2.9679,3.1349,2.9986,2.6125,2.3932,2.2989,2.3127,2.3591,2.4423,2.5526,0.0,0.0,0.0,0.0,0.0,0.0,0.0,0.0,0.0,3.0081,3.0375,3.0558,3.1476,0.0,0.0,0.0,0.0,0.0,3.2686,3.4111,3.5229,3.4538,3.4328,0.0,0.0,0.0,0.0,0.0,0.0,0.0,0.0,0.0,0.0,0.0,0.0,0.0,0.0,0.0,0.0,0.0,0.0,0.0,0.0,0.0,0.0,0.0,0.0,0.0,0.0,5.514,5.5136,5.4581,5.466,5.4742,5.4905,5.4516,5.4307,5.4307,5.3888,5.372,5.3683,5.3359,5.3206,0.0,0.0,5.3206,5.3206,5.3206,5.3206,5.3206,5.3206,5.3206,5.3206,5.3206,5.37,5.4484,0.0,0.0,0.0,0.0,0.0,0.0,0.0,0.0,0.0,0.0,0.0,0.0,0.0,0.0,0.0,0.0,0.0,0.0,0.0,0.0,0.0,0.0,2.419,2.4392,2.4832,2.5273,2.6521,2.8631,3.0603,3.1864,3.241,3.0898,2.8514,2.5419,2.3557,2.279,2.2936,2.3284,2.4355,2.5875,0.0,0.0,0.0,0.0,0.0,0.0,0.0,0.0,0.0,0.0,3.021,3.0338,3.1146,0.0,0.0,0.0,0.0,0.0,3.1441,3.2154,3.2924,3.3388,0.0,3.5151,3.4212,0.0,0.0,0.0,0.0,0.0,0.0,0.0,0.0,0.0,0.0,0.0,0.0,0.0,0.0,0.0,0.0,0.0,0.0,0.0,0.0,0.0,0.0,0.0,0.0,0.0,5.4894,5.383,5.4258,5.4352,5.4081,5.3874,5.403,5.4503,5.4288,5.4187,5.4153,5.3739,5.3545,5.3505,0.0,5.3206,5.3206,5.3206,5.3206,5.3206,5.3206,5.3206,5.3248,5.372,5.4156,5.4628,0.0,0.0,0.0,0.0,0.0,0.0,0.0,0.0,0.0,0.0,0.0,0.0,0.0,0.0,0.0,0.0,0.0,0.0,0.0,0.0,2.4133,2.4208,2.419,2.4649,2.5658,2.6465,2.8264,3.1109,3.2622,3.3641,3.4074,3.0035,2.6919,2.466,2.3369,2.2919,2.3102,2.3151,2.4355,2.6191,0.0,0.0,0.0,0.0,0.0,0.0,0.0,0.0,0.0,0.0,0.0,0.0,0.0,0.0,0.0,3.0123,3.0028,3.0134,3.0364,3.0617,3.1069,3.208,0.0,3.5262,3.4694,0.0,0.0,0.0,0.0,0.0,0.0,0.0,0.0,0.0,0.0,0.0,0.0,0.0,0.0,0.0,0.0,0.0,0.0,0.0,0.0,0.0,0.0,0.0,0.0,0.0,5.4528,5.3245,5.3866,5.3876,5.3222,5.3203,5.3632,5.4495,5.4387,5.4451,5.4609,5.4048,5.3814,5.3777,5.3197,5.2931,5.2913,5.2729,5.2766,5.2913,5.2711,5.2831,5.3164,5.4131,5.4566,5.4731,0.0,0.0,0.0,0.0,0.0,0.0,0.0,0.0,0.0,0.0,0.0,0.0,0.0,0.0,0.0,0.0,0.0,0.0,0.0,0.0,2.3937,2.419,2.419,2.4924,2.6484,2.7291,2.8558,3.0283,3.2685,3.2894,3.0975,2.8522,2.6126,2.3867,2.3319,2.3095,2.3102,2.3312,2.4482,2.6191,2.6191,0.0,0.0,0.0,0.0,0.0,0.0,0.0,0.0,0.0,0.0,0.0,0.0,0.0,2.9163,0.0,2.9181,2.937,3.0261,3.0997,3.1399,3.0816,3.1403,0.0,3.5606,3.5634,0.0,0.0,0.0,0.0,0.0,0.0,0.0,0.0,0.0,0.0,0.0,0.0,0.0,0.0,0.0,0.0,0.0,0.0,0.0,0.0,0.0,0.0,0.0,0.0,0.0,5.3208,5.3249,5.326,5.3203,5.3203,5.3643,5.4485,5.4046,5.4272,5.5034,5.4202,5.3814,5.374,5.2589,5.2087,5.2032,5.1279,5.1408,5.1995,5.1261,5.1671,5.2789,5.4039,5.475,5.5134,0.0,0.0,0.0,0.0,0.0,0.0,0.0,0.0,0.0,0.0,0.0,0.0,0.0,0.0,0.0,0.0,0.0,0.0,0.0,0.0,2.4094,2.4208,2.419,2.4942,2.6557,2.8374,3.0478,3.2855,3.3904,3.3143,3.0644,2.8368,2.6147,2.4025,2.3377,2.3253,2.3535,2.3606,2.4741,2.6447,2.6447,2.746,0.0,0.0,0.0,0.0,0.0,0.0,0.0,0.0,2.8994,0.0,0.0,0.0,0.0,0.0,0.0,2.9052,2.8913,2.9839,3.0914,3.1122,3.1422,0.0,0.0,0.0,0.0,0.0,0.0,0.0,0.0,0.0,0.0,0.0,0.0,0.0,0.0,0.0,0.0,0.0,0.0,0.0,0.0,0.0,0.0,0.0,0.0,0.0,0.0,0.0,0.0,5.1662,5.2122,5.2145,5.1645,5.1645,5.2068,5.2895,5.3248,5.3606,5.3913,5.3309,5.2937,5.2648,5.2401,5.1909,5.1261,5.1463,5.1426,5.1224,5.093,5.1363,5.236,5.332,5.4125,5.4819,0.0,0.0,0.0,0.0,0.0,0.0,0.0,0.0,0.0,0.0,0.0,0.0,0.0,0.0,0.0,0.0,0.0,0.0,0.0,2.419,2.419,2.419,2.419,2.4942,2.6557,2.885,3.1255,3.3743,3.3894,3.2476,2.9575,2.8135,2.6289,2.4225,2.3872,2.4032,2.4541,2.4114,2.5113,2.6961,2.6704,2.7567,0.0,0.0,0.0,0.0,0.0,0.0,0.0,0.0,0.0,0.0,0.0,0.0,0.0,0.0,0.0,0.0,2.7285,2.8154,2.9377,0.0,0.0,0.0,3.4244,0.0,0.0,0.0,0.0,0.0,0.0,0.0,0.0,0.0,0.0,0.0,0.0,0.0,0.0,0.0,0.0,0.0,0.0,0.0,0.0,0.0,0.0,0.0,0.0,0.0,0.0,0.0,5.091,5.0721,4.9894,4.9875,5.0164,5.0721,5.1467,5.2293,5.3182,5.2772,5.2379,5.1982,5.1828,5.1231,5.0435,5.071,5.0508,5.0068,5.0704,5.1248,5.1751,5.295,5.385,5.4609,0.0,0.0,0.0,0.0,0.0,0.0,0.0,0.0,0.0,0.0,0.0,0.0,0.0,0.0,0.0,0.0,0.0,0.0,0.0,2.419,2.419,2.419,2.419,2.4942,2.6539,2.8603,3.0469,3.2079,3.2261,3.0639,2.7264,2.7552,2.6465,2.4302,2.4787,2.5466,2.6086,2.4771,2.5585,2.7714,2.6924,2.7545,2.8994,0.0,0.0,0.0,0.0,0.0,0.0,0.0,0.0,0.0,0.0,0.0,0.0,0.0,2.6025,2.5421,2.5499,2.6108,0.0,0.0,0.0,0.0,0.0,0.0,0.0,0.0,0.0,0.0,0.0,0.0,0.0,0.0,0.0,0.0,0.0,0.0,0.0,0.0,0.0,0.0,0.0,0.0,0.0,0.0,0.0,0.0,0.0,0.0,0.0,0.0,4.958,4.8971,4.8105,4.8105,4.8105,4.8087,4.857,5.0333,5.3144,5.2752,5.236,5.1918,5.0665,4.9898,4.9538,4.8655,4.8306,4.8491,5.049,5.1087,5.1034,5.305,5.4068,5.4607,0.0,0.0,0.0,0.0,0.0,0.0,0.0,0.0,0.0,0.0,0.0,0.0,0.0,0.0,0.0,0.0,0.0,0.0,0.0,2.419,2.419,2.419,2.419,2.441,2.4905,2.6201,2.8388,3.1462,3.0202,2.8256,2.5678,2.5974,2.5235,2.3732,2.5185,2.5463,2.4787,2.4777,2.5496,2.6659,2.6409,2.7263,2.8743,0.0,0.0,0.0,0.0,0.0,0.0,0.0,0.0,0.0,0.0,0.0,0.0,2.5915,2.5988,2.6245,2.6266,0.0,0.0,0.0,0.0,0.0,0.0,0.0,0.0,0.0,0.0,0.0,0.0,0.0,0.0,0.0,0.0,0.0,0.0,0.0,0.0,0.0,0.0,0.0,0.0,0.0,0.0,0.0,0.0,0.0,0.0,0.0,0.0,0.0,4.8391,4.8355,4.8105,4.7872,4.775,4.775,4.7637,4.8619,5.0548,5.075,5.0786,5.0684,5.0854,5.0409,4.9482,4.8959,4.8709,4.8765,4.9368,4.9896,5.0432,5.1619,5.2507,5.324,0.0,0.0,0.0,0.0,0.0,0.0,0.0,0.0,0.0,0.0,0.0,0.0,0.0,0.0,0.0,0.0,0.0,0.0,0.0,0.0,2.419,2.419,2.419,2.4424,2.4944,2.5257,2.6577,2.9006,2.8001,2.6688,2.5171,2.5764,2.5679,2.5026,2.6175,2.6222,2.5442,2.5018,2.5481,2.6489,2.6171,2.7073,2.8601,0.0,0.0,0.0,0.0,0.0,0.0,0.0,0.0,0.0,0.0,0.0,0.0,2.4685,2.4557,2.4685,2.4685,0.0,0.0,0.0,0.0,0.0,0.0,0.0,0.0,0.0,0.0,0.0,0.0,0.0,0.0,0.0,0.0,0.0,0.0,0.0,0.0,0.0,0.0,0.0,0.0,0.0,0.0,0.0,0.0,0.0,0.0,0.0,0.0,0.0,4.7191,4.7222,4.6915,4.6584,4.6473,4.6606,4.6426,4.6992,4.8199,4.9175,4.9596,4.961,5.0304,5.0174,4.9475,4.9234,4.9139,4.9139,4.9307,4.9687,5.0218,5.1179,5.1886,5.2403,0.0,0.0,0.0,0.0,0.0,0.0,0.0,0.0,0.0,0.0,0.0,0.0,0.0,0.0,0.0,0.0,0.0,0.0,0.0,0.0,2.419,2.419,2.419,2.4709,2.584,2.5159,2.5008,2.545,2.5778,2.5698,2.5305,2.6401,2.7033,2.726,2.7387,2.7356,2.7084,2.5333,2.5479,2.6782,2.6061,2.6874,2.85,2.8237,0.0,0.0,0.0,0.0,0.0,0.0,0.0,0.0,0.0,0.0,2.4061,2.3327,2.2575,2.2006,0.0,0.0,0.0,0.0,0.0,0.0,0.0,0.0,0.0,0.0,0.0,0.0,0.0,0.0,0.0,0.0,0.0,0.0,0.0,0.0,0.0,0.0,0.0,0.0,0.0,0.0,0.0,0.0,0.0,0.0,0.0,0.0,0.0,4.5719,4.5979,4.5799,4.5052,4.4707,4.4707,4.5007,4.504,4.5416,4.6153,4.7933,4.8777,4.8895,4.9292,4.9533,4.9608,4.9561,4.9561,4.9589,4.9949,5.0092,5.0255,5.1369,5.1798,5.1914,0.0,0.0,0.0,0.0,0.0,0.0,0.0,0.0,0.0,0.0,0.0,0.0,0.0,0.0,0.0,0.0,0.0,0.0,0.0,0.0,2.419,2.419,2.419,2.414,2.396,2.4013,2.3903,2.3668,2.4314,2.4567,2.4462,2.56,2.6126,2.6193,2.7227,2.6895,2.5479,2.4866,2.5017,2.5649,2.5526,2.6435,2.7943,2.8352,2.7978,0.0,0.0,0.0,0.0,0.0,0.0,0.0,2.4245,2.419,2.4171,2.3988,2.3633,0.0,0.0,0.0,0.0,0.0,0.0,0.0,0.0,0.0,0.0,0.0,0.0,0.0,0.0,0.0,0.0,0.0,0.0,0.0,0.0,0.0,0.0,0.0,0.0,0.0,0.0,0.0,0.0,0.0,0.0,0.0,0.0,0.0,0.0,4.4844,4.4921,4.4878,4.4726,4.4318,4.4175,0.0,4.3971,4.4096,4.4561,4.6523,4.809,4.9277,4.939,4.9808,5.0421,5.0092,4.9974,4.9974,5.0068,5.0092,5.0178,5.0736,5.0952,5.0971,0.0,0.0,0.0,0.0,0.0,0.0,0.0,0.0,0.0,0.0,0.0,0.0,0.0,0.0,0.0,0.0,0.0,0.0,0.0,0.0,0.0,2.419,2.419,2.4074,2.3795,2.3917,2.4055,2.4199,2.4474,0.0,0.0,0.0,0.0,2.7363,0.0,2.7432,2.6095,2.5301,2.5341,2.5883,2.5404,2.6219,2.7713,2.8055,2.753,2.6651,2.6736,0.0,0.0,0.0,0.0,0.0,0.0,0.0,2.4116,2.3749,2.3411,0.0,0.0,0.0,0.0,0.0,0.0,0.0,0.0,0.0,0.0,0.0,0.0,0.0,0.0,0.0,0.0,0.0,0.0,0.0,0.0,0.0,0.0,0.0,0.0,0.0,0.0,0.0,0.0,0.0,0.0,0.0,0.0,4.433,4.4252,4.4065,4.4223,4.4318,4.4318,4.3943,4.3849,4.4016,4.3679,4.3679,4.4053,4.5851,4.7357,4.8564,4.8702,4.9048,4.9471,4.9676,4.9767,4.9825,5.0227,5.0399,5.0421,5.0624,5.0702,5.0702,0.0,0.0,0.0,0.0,0.0,0.0,0.0,0.0,0.0,0.0,0.0,0.0,0.0,0.0,0.0,0.0,0.0,0.0,0.0,0.0,0.0,0.0,2.419,2.417,2.4113,2.417,2.4501,2.5122,0.0,0.0,0.0,0.0,0.0,2.8929,0.0,2.7997,2.7115,2.5814,2.5684,2.6314,2.5392,2.6092,2.7683,2.7601,2.6951,2.6144,2.6527,2.6021,2.519,2.5049,0.0,0.0,0.0,0.0,2.43,2.3786,0.0,0.0,0.0,0.0,0.0,0.0,0.0,0.0,0.0,0.0,0.0,0.0,0.0,0.0,0.0,0.0,0.0,0.0,0.0,0.0,0.0,0.0,0.0,0.0,0.0,0.0,0.0,0.0,0.0,0.0,0.0,4.3075,4.3075,4.3365,4.3365,4.3109,4.3365,4.3559,4.3689,4.3295,4.3369,4.3893,4.3612,4.3646,4.3943,4.5299,4.6435,4.7392,4.7662,4.7914,4.8163,4.8875,4.9183,4.924,4.9971,5.024,5.026,5.0414,5.0471,5.0491,0.0,0.0,0.0,0.0,0.0,0.0,0.0,0.0,0.0,0.0,0.0,0.0,0.0,0.0,0.0,0.0,0.0,0.0,0.0,0.0,0.0,2.419,2.419,2.4094,2.3876,2.4074,2.4149,2.4021,0.0,0.0,0.0,0.0,0.0,2.8633,0.0,0.0,2.6299,2.5183,2.4994,2.5442,2.5138,2.6092,2.7643,2.7181,2.7074,2.7049,2.5983,2.5794,2.5968,2.55,2.5163,0.0,0.0,0.0,0.0,0.0,0.0,0.0,0.0,0.0,0.0,0.0,0.0,0.0,0.0,0.0,0.0,0.0,0.0,0.0,0.0,0.0,0.0,0.0,0.0,0.0,0.0,0.0,0.0,0.0,0.0,0.0,0.0,0.0,0.0,0.0,4.1368,4.1423,4.1423,4.1456,4.1489,4.1423,4.1438,4.1834,4.2533,4.1805,4.2154,4.3582,4.3513,4.3513,4.3563,4.4067,4.5119,4.6492,4.6514,4.7143,4.8105,4.824,4.8279,4.8298,4.8394,4.8452,4.8548,4.9298,4.9567,4.9683,0.0,0.0,0.0,0.0,0.0,0.0,0.0,0.0,0.0,0.0,0.0,0.0,0.0,0.0,0.0,0.0,0.0,0.0,0.0,0.0,0.0,2.4209,2.4631,2.4611,2.4037,2.4592,2.4831,0.0,0.0,0.0,0.0,2.7515,2.8054,0.0,0.0,0.0,0.0,2.6416,2.6296,2.6461,2.6224,2.6576,2.7252,2.7207,2.6626,2.5835,2.5832,0.0,2.6149,2.5723,2.5705,2.5889,2.6036,0.0,0.0,0.0,0.0,0.0,2.5123,2.544,2.6172,0.0,0.0,0.0,0.0,0.0,0.0,0.0,0.0,0.0,0.0,0.0,0.0,0.0,0.0,0.0,0.0,0.0,0.0,0.0,0.0,0.0,0.0,0.0,0.0,0.0,4.0432,4.0616,4.1093,4.1111,4.1111,4.1111,4.1111,4.1277,4.1625,4.1295,4.168,4.2818,4.3277,4.3497,4.3479,4.3646,4.4202,4.5017,4.5243,4.5661,4.6157,4.6633,4.6805,4.6885,4.7578,4.7832,4.789,4.8452,4.8971,4.9452,0.0,0.0,0.0,0.0,0.0,0.0,0.0,0.0,0.0,0.0,0.0,0.0,0.0,0.0,0.0,0.0,0.0,0.0,0.0,0.0,0.0,2.4229,2.5001,2.5056,2.4229,2.5001,0.0,0.0,0.0,0.0,2.7181,2.7402,2.7915,0.0,2.8902,0.0,0.0,0.0,0.0,0.0,2.6892,2.6834,2.701,2.6616,0.0,2.4577,2.5172,0.0,0.0,2.5763,2.6069,2.6368,2.6305,2.5893,0.0,0.0,0.0,0.0,0.0,0.0,2.5042,2.6272,0.0,0.0,0.0,0.0,0.0,0.0,0.0,0.0,0.0,0.0,0.0,0.0,0.0,0.0,0.0,0.0,0.0,0.0,0.0,0.0,0.0,0.0,0.0,0.0,3.8982,3.9239,3.9863,3.9882,3.9974,4.0194,4.0194,4.0396,4.0799,4.102,4.1313,4.1699,4.2506,4.3002,4.3185,4.3185,4.3461,4.3912,4.428,4.4501,4.4662,4.5266,4.5512,4.5595,4.6491,4.6881,4.7048,4.772,4.8433,4.9125,0.0,0.0,0.0,0.0,0.0,0.0,0.0,0.0,0.0,0.0,0.0,0.0,0.0,0.0,0.0,2.4192,2.432,2.4442,2.4495,2.4491,2.4424,2.4303,2.5059,0.0,2.4303,2.5078,0.0,0.0,0.0,0.0,2.555,2.63,2.709,2.7897,2.8668,2.8558,2.7787,0.0,0.0,0.0,2.6276,2.6469,2.714,0.0,0.0,0.0,0.0,0.0,0.0,2.5628,2.5973,2.6015,2.7496,2.7415,2.6952,0.0,0.0,0.0,0.0,2.32,0.0,2.442,0.0,0.0,0.0,0.0,0.0,0.0,0.0,0.0,0.0,0.0,0.0,0.0,0.0,0.0,0.0,0.0,0.0,0.0,0.0,0.0,0.0,0.0,0.0,0.0,3.6486,3.6505,3.6541,3.6541,3.689,3.7672,3.7709,3.8414,3.9937,4.0726,4.0744,4.0029,4.0836,4.1625,4.2359,4.2359,4.2815,4.3548,4.3881,4.4233,4.458,4.4662,4.4655,4.4681,4.4719,4.4938,4.5421,4.7029,4.7871,4.8394,0.0,0.0,0.0,0.0,0.0,0.0,0.0,0.0,0.0,0.0,0.0,0.0,0.0,2.4229,2.4247,2.421,2.4284,2.4409,2.4543,2.4442,2.4356,2.4358,2.5078,2.5134,2.4303,0.0,0.0,0.0,0.0,2.4519,2.5139,2.5615,2.61,2.6651,2.8273,2.8558,2.7824,2.8246,0.0,0.0,2.7232,2.7,2.6684,0.0,0.0,0.0,0.0,0.0,0.0,2.5619,2.6069,2.641,2.7324,2.7271,2.689,2.683,2.6011,2.4917,0.0,0.0,0.0,2.3393,2.3612,0.0,0.0,0.0,0.0,0.0,0.0,0.0,0.0,0.0,0.0,0.0,0.0,0.0,0.0,0.0,0.0,0.0,0.0,0.0,0.0,0.0,0.0,0.0,0.0,3.5716,3.6266,3.6303,3.6431,3.6707,3.7221,3.801,3.9129,3.9937,4.0194,3.99,4.0726,4.1534,4.2304,4.2304,4.2745,4.3532,4.3631,4.3758,4.3899,4.3899,4.3899,4.3931,4.4136,4.4428,4.4881,4.5677,4.6567,4.7432,0.0,0.0,0.0,0.0,0.0,0.0,0.0,0.0,0.0,0.0,0.0,0.0,0.0,0.0,2.4284,2.4302,2.4356,2.4461,2.4591,2.4495,2.4428,2.443,2.5171,2.5171,2.4358,0.0,0.0,0.0,0.0,0.0,0.0,2.5155,2.5473,2.5655,2.7429,2.7852,0.0,0.0,0.0,2.7365,0.0,2.6833,2.6392,0.0,0.0,0.0,0.0,0.0,0.0,2.5229,2.57,2.6145,2.6812,2.704,2.6852,2.5987,2.5385,2.4752,2.3646,0.0,0.0,0.0,0.0,0.0,0.0,0.0,0.0,0.0,0.0,0.0,0.0,0.0,0.0,0.0,0.0,0.0,0.0,0.0,0.0,0.0,0.0,0.0,0.0,0.0,0.0,0.0,0.0,0.0,3.5018,3.5055,3.5312,3.5862,3.667,3.7349,3.79,3.8414,3.8817,3.9093,3.9643,4.0451,4.1497,4.1497,4.2084,4.3094,4.3094,4.324,4.3497,4.3497,4.3497,4.3548,4.3881,4.4252,4.4669,4.527,4.6107,4.6951,0.0,0.0,0.0,0.0,0.0,0.0,0.0,0.0,0.0,0.0,0.0,0.0,0.0,0.0,0.0,2.4478,2.4559,2.4591,2.4591,2.4657,2.4647,2.45,2.5243,2.5263,2.4413,0.0,0.0,0.0,0.0,0.0,0.0,0.0,2.5205,2.5009,2.6048,2.6374,2.6159,0.0,2.6612,2.6518,0.0,2.5878,2.6319,0.0,0.0,0.0,2.3272,2.2997,0.0,2.4447,2.4888,2.5126,2.6196,2.6904,2.6988,2.5488,2.504,2.4695,0.0,0.0,0.0,0.0,0.0,0.0,0.0,0.0,0.0,0.0,0.0,0.0,0.0,0.0,0.0,0.0,0.0,0.0,0.0,0.0,0.0,0.0,0.0,0.0,0.0,0.0,0.0,0.0,3.1384,3.1733,3.2522,3.2596,3.3348,3.4899,3.5807,3.6266,3.6303,3.6303,3.6688,3.747,3.7489,3.8352,3.9877,3.9895,4.0795,4.2268,4.2286,4.2779,4.3477,4.3479,4.3532,4.3548,4.3881,4.4233,4.4751,4.5864,4.6529,4.6971,0.0,0.0,0.0,0.0,0.0,0.0,0.0,0.0,0.0,0.0,0.0,0.0,0.0,0.0,0.0,2.4481,2.4515,2.4532,2.4532,2.4549,2.4551,2.45,2.4704,2.467,2.4339,2.4598,0.0,0.0,0.0,0.0,0.0,0.0,0.0,0.0,2.4357,2.4529,2.4559,2.5996,0.0,0.0,2.6274,2.6043,0.0,0.0,0.0,0.0,0.0,2.2857,0.0,0.0,2.4913,2.5979,0.0,0.0,2.7092,2.6092,2.5799,0.0,2.3891,0.0,0.0,0.0,0.0,0.0,0.0,0.0,0.0,0.0,0.0,0.0,0.0,0.0,0.0,0.0,0.0,0.0,0.0,0.0,0.0,0.0,0.0,0.0,0.0,0.0,0.0,0.0,3.1384,3.1494,3.1715,3.2284,3.3073,3.41,3.4945,3.5661,3.6285,3.6303,3.6519,3.6922,3.7514,3.842,3.9638,4.0263,4.0999,4.1846,4.2409,4.2792,4.3015,4.3358,4.3646,4.3881,4.3955,4.4382,4.5004,4.5322,4.5667,4.599,0.0,0.0,0.0,0.0,0.0,0.0,0.0,0.0,0.0,0.0,0.0,0.0,0.0,0.0,0.0,2.4949,2.4948,2.4817,2.4518,2.4482,2.4465,2.4465,2.4429,2.4375,2.4303,2.4376,0.0,0.0,0.0,0.0,0.0,0.0,0.0,0.0,0.0,0.0,0.0,0.0,0.0,0.0,2.5544,0.0,0.0,2.4306,2.3994,0.0,0.0,0.0,2.3654,2.3664,2.4683,0.0,0.0,0.0,0.0,0.0,0.0,0.0,0.0,0.0,0.0,0.0,0.0,0.0,2.3354,2.3602,2.3896,0.0,0.0,0.0,0.0,0.0,0.0,0.0,0.0,0.0,0.0,0.0,0.0,0.0,0.0,0.0,0.0,2.9898,3.0044,3.0375,3.0393,3.0558,3.087,3.199,3.2816,3.3293,3.4082,3.4743,3.5238,3.5257,3.5551,3.6205,3.6677,3.7654,3.9025,3.9515,4.0303,4.1285,4.1744,4.2164,4.2482,4.2776,4.3431,4.4261,4.4382,4.4713,4.5118,4.5243,4.5438,4.5586,0.0,0.0,0.0,0.0,0.0,0.0,0.0,0.0,0.0,0.0,0.0,0.0,0.0,0.0,0.0,0.0,2.5486,2.519,2.4519,2.4447,2.4412,2.4394,2.4358,2.4321,2.4284,2.4375,0.0,0.0,0.0,0.0,0.0,0.0,0.0,0.0,0.0,0.0,0.0,0.0,0.0,2.4151,2.4243,2.4465,0.0,0.0,2.3978,0.0,2.3389,2.3552,2.3995,2.347,2.4244,0.0,0.0,0.0,0.0,0.0,2.6399,0.0,0.0,0.0,0.0,0.0,0.0,0.0,2.3383,2.3607,2.3955,0.0,0.0,0.0,0.0,0.0,0.0,0.0,0.0,0.0,0.0,0.0,0.0,0.0,0.0,0.0,2.7603,2.7658,2.8007,2.8815,2.8938,2.9329,3.0026,3.1513,3.2375,3.2467,3.3256,3.3715,3.3807,3.3815,3.4375,3.5403,3.5544,3.6475,3.8137,3.8326,3.9192,4.058,4.075,4.1259,4.1938,4.2014,4.2963,4.4417,4.4794,4.4985,4.5067,4.5456,4.5586,4.5586,0.0,0.0,0.0,0.0,0.0,0.0,0.0,0.0,0.0,0.0,0.0,0.0,0.0,0.0,0.0,0.0,2.4968,2.4579,2.443,2.4465,2.4465,2.4412,2.4478,2.4442,2.4229,2.4445,2.4481,0.0,0.0,0.0,0.0,0.0,0.0,0.0,0.0,0.0,0.0,0.0,0.0,2.385,2.4563,0.0,2.3677,2.4401,2.4005,2.3014,2.2849,2.2755,2.2798,0.0,2.389,2.419,0.0,0.0,0.0,0.0,0.0,0.0,0.0,0.0,0.0,0.0,0.0,0.0,2.4421,2.4263,2.4036,0.0,0.0,0.0,0.0,0.0,0.0,0.0,0.0,0.0,0.0,0.0,0.0,0.0,0.0,0.0,2.6833,2.6833,2.7163,2.797,2.8631,2.9067,2.9214,3.0155,3.0962,3.1604,3.2412,3.3146,3.3788,3.4018,3.4381,3.4875,3.5722,3.6441,3.7064,3.8479,3.9143,3.9278,4.0629,4.1295,4.1487,4.2131,4.2588,4.299,4.3738,4.421,4.4534,4.5318,4.5586,4.5586,0.0,0.0,0.0,0.0,0.0,0.0,0.0,0.0,0.0,0.0,0.0,0.0,0.0,0.0,0.0,0.0,0.0,0.0,0.0,2.4428,2.4428,2.4321,2.4425,2.4441,2.4355,2.4575,2.4591,0.0,0.0,0.0,0.0,0.0,0.0,0.0,0.0,0.0,0.0,0.0,2.3905,2.435,2.4222,0.0,2.3056,2.3607,2.3265,2.25,2.25,2.2398,2.2468,2.3574,2.4112,0.0,0.0,2.6135,2.6665,0.0,2.7126,2.7023,0.0,0.0,0.0,2.6174,0.0,0.0,0.0,2.4306,2.3996,0.0,0.0,0.0,0.0,0.0,0.0,0.0,0.0,0.0,0.0,0.0,0.0,0.0,0.0,0.0,2.5952,2.5988,2.6502,2.7714,2.8172,2.8594,2.8975,2.9769,3.0375,3.0797,3.1586,3.2268,3.2804,3.2934,3.3433,3.4262,3.4805,3.5621,3.6738,3.8046,3.8792,3.9136,4.0344,4.0898,4.0917,4.1338,4.1493,4.1627,4.2929,4.3558,4.3739,4.4182,4.4605,4.4951,2.4247,0.0,0.0,0.0,0.0,0.0,0.0,0.0,0.0,0.0,0.0,0.0,0.0,0.0,0.0,0.0,0.0,0.0,0.0,0.0,2.442,2.408,2.4349,2.4449,2.4297,2.4651,2.476,2.4554,0.0,0.0,0.0,0.0,0.0,0.0,0.0,0.0,0.0,0.0,0.0,2.4568,0.0,2.3214,2.3241,2.3016,2.2787,2.2609,2.2389,2.231,2.244,2.3491,0.0,2.4934,2.5201,2.6188,0.0,0.0,0.0,0.0,0.0,0.0,0.0,0.0,0.0,2.5384,0.0,0.0,0.0,0.0,0.0,0.0,0.0,0.0,0.0,0.0,0.0,0.0,0.0,0.0,0.0,0.0,0.0,0.0,0.0,2.5311,2.5954,2.7236,2.7644,2.8103,2.8741,2.9531,3.0044,3.021,3.0864,3.1418,3.1793,3.1883,3.2561,3.3808,3.3856,3.4787,3.6507,3.7353,3.8238,3.9084,3.9738,4.0104,4.0258,4.0085,4.0008,4.02,4.2104,4.2854,4.2874,4.3047,4.3605,4.4297,2.4303,2.4284,0.0,0.0,0.0,0.0,0.0,0.0,0.0,0.0,0.0,0.0,0.0,0.0,0.0,0.0,0.0,0.0,2.4746,0.0,0.0,2.3622,2.4441,2.4478,2.3551,2.4487,2.4907,2.4775,0.0,0.0,0.0,0.0,0.0,0.0,2.5274,0.0,0.0,0.0,2.3399,0.0,2.2799,2.3694,0.0,2.4173,2.3786,2.3673,2.2671,2.231,2.2429,0.0,2.3602,2.3938,0.0,2.523,0.0,0.0,0.0,0.0,0.0,0.0,0.0,0.0,2.6906,0.0,0.0,0.0,0.0,0.0,0.0,0.0,0.0,0.0,0.0,0.0,0.0,0.0,0.0,0.0,0.0,0.0,0.0,0.0,0.0,2.5039,2.5535,2.566,2.704,2.7886,2.7934,2.8705,2.9475,3.0173,3.052,3.1064,3.1793,3.2203,3.2885,3.3808,3.4031,3.4666,3.5661,3.6488,3.7315,3.8142,3.8238,3.8719,3.9373,3.8604,3.8277,3.8527,4.0989,4.195,4.2047,4.2816,4.3605,4.4297,2.4394,2.4339,0.0,0.0,0.0,0.0,0.0,0.0,0.0,0.0,0.0,0.0,0.0,0.0,0.0,0.0,0.0,2.4869,0.0,0.0,0.0,2.4216,2.4676,2.475,2.4341,2.4758,2.4929,2.4804,2.4588,0.0,0.0,0.0,0.0,0.0,2.4685,0.0,2.4684,0.0,0.0,0.0,0.0,0.0,0.0,2.3863,2.3004,2.2952,2.2468,2.231,2.2361,0.0,2.3459,0.0,0.0,0.0,0.0,0.0,0.0,0.0,0.0,0.0,0.0,0.0,0.0,0.0,0.0,0.0,2.4917,0.0,0.0,0.0,0.0,0.0,0.0,0.0,0.0,0.0,0.0,0.0,0.0,0.0,0.0,0.0,0.0,0.0,0.0,0.0,2.6507,2.7393,2.7769,2.8576,2.9232,2.9724,2.9853,3.0187,3.075,3.0953,3.1794,3.3269,3.339,3.418,3.5532,3.6334,3.6911,3.7276,3.7777,3.82,3.8527,3.8142,3.8296,3.8854,3.9931,4.0354,4.045,4.1277,4.245,4.3605,2.443,0.0,0.0,0.0,0.0,0.0,0.0,0.0,0.0,0.0,0.0,0.0,2.427,2.4301,0.0,0.0,0.0,2.4924,0.0,0.0,2.4778,2.4195,2.4688,0.0,0.0,2.4948,2.5025,2.4929,2.4678,0.0,0.0,0.0,0.0,0.0,0.0,2.4318,2.4557,0.0,0.0,2.5461,2.4839,2.5014,2.5455,2.3502,2.2575,2.231,2.231,2.231,2.2344,2.2558,2.3442,0.0,2.3935,0.0,0.0,0.0,0.0,0.0,2.7352,0.0,0.0,0.0,0.0,0.0,0.0,0.0,0.0,0.0,0.0,0.0,0.0,0.0,0.0,0.0,0.0,0.0,0.0,0.0,0.0,0.0,0.0,0.0,0.0,0.0,0.0,2.5115,2.6188,2.7039,2.7614,2.8611,2.9291,2.9493,2.9551,2.9713,2.9999,3.0075,3.1052,3.2891,3.2891,3.3814,3.5526,3.6103,3.6488,3.6719,3.7142,3.7469,3.768,3.745,3.7738,3.8354,3.8834,3.9027,3.9142,4.0142,4.162,4.3121,2.45,2.4447,0.0,0.0,0.0,0.0,0.0,0.0,0.0,0.0,0.0,0.0,0.0,0.0,0.0,0.0,0.0,2.4937,2.408,0.0,2.4462,0.0,0.0,2.4831,0.0,0.0,2.5209,2.5282,0.0,0.0,0.0,0.0,0.0,0.0,0.0,2.463,2.5291,2.4262,2.3828,2.3721,2.3193,2.2807,2.2658,0.0,2.3251,2.231,2.231,0.0,0.0,2.3209,2.351,0.0,0.0,0.0,0.0,0.0,0.0,0.0,0.0,0.0,0.0,2.7148,0.0,0.0,0.0,0.0,2.5952,0.0,0.0,0.0,0.0,0.0,0.0,0.0,0.0,0.0,0.0,0.0,0.0,0.0,0.0,0.0,0.0,0.0,0.0,2.451,2.6127,2.7131,2.721,2.8774,2.9678,2.9696,2.9877,2.9984,2.9999,3.0254,3.1225,3.2891,3.2891,3.3814,3.5493,3.5545,3.5968,3.6661,3.5911,3.6089,3.6877,3.6012,3.5738,3.5988,3.7661,3.833,3.8522,3.995,4.1639,4.3195,0.0,0.0,0.0,0.0,0.0,0.0,0.0,2.4467,0.0,0.0,0.0,0.0,0.0,0.0,2.466,0.0,0.0,2.4927,2.4052,2.4752,0.0,0.0,0.0,2.5061,0.0,0.0,0.0,0.0,0.0,0.0,0.0,0.0,0.0,0.0,0.0,2.4355,0.0,0.0,0.0,0.0,0.0,2.3762,2.3419,0.0,0.0,2.2677,2.259,2.2546,0.0,2.2882,2.322,2.3459,2.3226,2.3819,2.4629,2.4647,2.5603,0.0,0.0,0.0,2.8578,2.8131,0.0,0.0,0.0,0.0,0.0,0.0,0.0,0.0,0.0,0.0,0.0,0.0,0.0,0.0,0.0,0.0,0.0,0.0,0.0,0.0,0.0,0.0,0.0,2.4489,2.5549,2.6459,2.7151,2.8244,2.916,2.9874,2.9969,3.0089,3.0267,3.0931,3.1814,3.291,3.3487,3.4372,3.5493,3.5493,3.5661,3.5892,3.568,3.5757,3.6021,3.5775,3.6366,3.7482,3.8064,3.9023,4.013,4.0548,4.1448,4.2633,2.4444,0.0,0.0,0.0,0.0,0.0,0.0,0.0,0.0,0.0,2.4861,0.0,2.5099,0.0,2.5164,0.0,2.5302,2.4927,2.4052,2.4781,0.0,2.3983,2.4747,0.0,0.0,0.0,0.0,0.0,0.0,2.4666,0.0,0.0,0.0,0.0,0.0,0.0,2.4226,0.0,2.4823,0.0,0.0,2.4027,0.0,0.0,2.2955,2.3258,0.0,2.2873,2.2873,2.2873,2.3094,2.3298,2.2762,2.3413,2.4339,2.452,2.5613,2.685,2.7259,2.8172,0.0,2.8306,2.7997,0.0,2.8076,0.0,0.0,0.0,0.0,0.0,0.0,0.0,0.0,0.0,0.0,0.0,0.0,0.0,0.0,0.0,0.0,0.0,0.0,0.0,2.4478,2.4632,2.5399,2.6352,0.0,0.0,2.9108,3.0098,3.0136,3.0241,3.0398,3.0968,3.1795,3.291,3.3468,3.4353,3.5493,3.5493,3.5526,3.5545,3.5584,3.5641,3.5713,3.5755,3.6623,3.7975,3.8296,3.9301,4.0616,4.0742,4.1548,4.2769,0.0,0.0,0.0,0.0,2.4921,0.0,0.0,0.0,2.4937,0.0,2.4956,2.4986,2.5182,2.5262,2.5292,2.5292,2.5293,0.0,2.4062,2.4821,0.0,0.0,2.4771,2.5233,2.5303,0.0,0.0,0.0,0.0,0.0,0.0,0.0,0.0,0.0,2.419,0.0,2.4135,2.4058,2.4059,2.406,2.3785,2.3526,2.3348,2.3348,2.3633,2.3964,2.3417,2.3212,2.3212,2.3212,2.3212,2.3189,2.3189,2.2996,2.3012,2.4472,2.5261,2.5797,2.6483,2.7805,2.8764,2.7725,0.0,0.0,0.0,0.0,2.7157,0.0,0.0,0.0,0.0,0.0,0.0,0.0,0.0,0.0,0.0,0.0,0.0,0.0,0.0,0.0,0.0,2.441,2.4673,2.4888,2.5677,0.0,0.0,0.0,2.9448,3.0359,3.0398,3.0398,3.0398,3.0436,3.1275,3.2891,3.2949,3.3853,3.5493,3.5493,3.5545,3.5622,3.5622,3.5718,3.5905,3.5894,3.6463,3.7384,3.8208,3.9081,3.9972,4.0595,4.1894,4.3486,2.4575,2.4861,2.5024,0.0,2.5091,2.5099,0.0,0.0,0.0,0.0,2.4359,2.4239,2.5166,2.5293,2.5293,2.5293,2.5303,0.0,0.0,0.0,0.0,2.4044,2.4762,2.5233,2.5303,2.5243,0.0,2.5311,0.0,0.0,2.487,0.0,0.0,0.0,0.0,0.0,2.3309,2.3179,2.285,2.2462,2.3033,2.3451,0.0,0.0,2.4259,2.4574,2.3831,2.3566,2.3566,2.3566,2.3414,2.3189,2.3189,2.3323,2.362,2.4604,2.5592,2.6512,2.7266,2.8227,2.8938,2.8667,2.8301,2.8132,0.0,0.0,0.0,0.0,0.0,0.0,0.0,0.0,0.0,0.0,0.0,0.0,0.0,0.0,0.0,0.0,0.0,0.0,2.4462,2.4513,2.4657,2.4947,2.5145,0.0,0.0,0.0,0.0,3.034,3.0398,3.0398,3.0398,3.1044,3.1891,3.291,3.3564,3.4468,3.5584,3.5584,3.5622,3.568,3.5776,3.5853,3.5894,3.5957,3.6501,3.7313,3.7546,3.8567,4.0008,4.0791,4.1767,4.2683,2.4449,0.0,0.0,2.4476,0.0,0.0,2.4858,0.0,0.0,2.4911,2.4524,0.0,2.5215,2.5303,2.5303,2.5303,2.5303,0.0,0.0,0.0,0.0,2.4581,2.5004,2.5253,2.5303,2.5264,0.0,2.5311,0.0,0.0,2.498,0.0,0.0,0.0,0.0,2.3971,0.0,2.3529,2.3545,2.3553,2.3729,0.0,0.0,2.4248,2.4428,2.4538,2.4081,2.3917,2.3917,2.3917,2.3795,2.3649,2.3649,2.3671,2.3898,2.4841,2.5703,2.6589,2.7545,2.8393,2.8994,2.8994,2.8668,2.8448,2.8883,2.8374,2.8026,0.0,0.0,0.0,0.0,0.0,0.0,0.0,0.0,0.0,0.0,0.0,0.0,0.0,0.0,0.0,2.4629,2.4613,2.4704,2.4974,2.4981,0.0,0.0,0.0,0.0,2.9825,3.0575,3.0787,3.0398,3.1268,3.2095,3.291,3.3391,3.4314,3.5603,3.5603,3.568,3.5795,3.5872,3.5921,3.5954,3.5984,3.6504,3.7383,3.8144,3.9277,4.0527,4.1016,4.1719,4.2402,0.0,0.0,0.0,0.0,0.0,0.0,0.0,2.4719,0.0,2.4987,0.0,2.4965,2.5262,2.5293,2.5303,2.5303,0.0,2.5293,2.5292,2.5293,2.5293,2.5292,2.5293,2.5303,2.5303,2.5303,0.0,0.0,0.0,0.0,0.0,0.0,0.0,0.0,0.0,0.0,0.0,2.418,2.4666,2.5311,2.4783,2.4463,2.4325,2.442,2.4374,2.4247,2.4247,2.4228,2.419,2.419,2.419,2.419,2.419,2.3996,2.3979,2.5065,2.5695,2.6232,2.7336,2.8154,2.8682,2.8682,2.8682,2.87,2.881,2.8227,2.786,2.8686,2.8352,2.7793,0.0,0.0,0.0,0.0,0.0,0.0,0.0,0.0,0.0,0.0,0.0,0.0,0.0,2.4707,2.4779,0.0,0.0,0.0,0.0,0.0,0.0,2.9327,3.0772,3.1222,3.0583,0.0,3.1992,3.2923,3.291,3.3814,3.5455,3.5584,3.5734,3.5917,3.5917,3.5954,3.5996,3.5996,3.6445,3.7305,3.9043,4.0195,4.0898,4.1113,4.1641,4.2246,0.0,0.0,0.0,0.0,0.0,2.4129,2.4624,2.4314,2.425,2.491,2.4419,2.4342,2.5216,2.5303,2.5303,2.5303,2.5303,0.0,0.0,0.0,0.0,2.5303,2.5303,2.5303,2.5303,2.5302,2.5292,0.0,0.0,0.0,0.0,0.0,0.0,0.0,0.0,0.0,2.351,2.2992,0.0,2.305,2.3651,2.3859,2.3896,2.4511,2.4607,2.4444,2.4444,2.4339,2.419,2.419,2.419,2.419,2.419,2.417,2.4278,2.5144,2.5454,2.5709,2.6573,2.6924,2.7034,2.7034,2.7034,2.72,2.786,2.7383,2.7034,2.7842,2.7539,2.7139,2.7194,0.0,0.0,0.0,0.0,0.0,0.0,0.0,0.0,0.0,0.0,0.0,0.0,0.0,0.0,0.0,0.0,0.0,0.0,0.0,0.0,0.0,3.0467,0.0,0.0,0.0,3.1422,3.2979,3.3031,3.3641,3.473,3.5474,3.5902,3.5979,3.5979,3.5989,3.5996,3.5996,3.6094,3.6406,3.8144,3.8926,3.9238,4.0664,4.1289,4.1406,0.0,0.0,0.0,0.0,0.0,0.0,0.0,2.4419,0.0,2.4967,2.4655,2.4648,2.5234,2.5303,2.5303,2.5303,2.5303,2.5303,2.5303,2.5303,2.5322,2.5341,2.5341,0.0,2.5341,2.5351,2.5331,2.5312,0.0,0.0,0.0,0.0,0.0,0.0,0.0,2.4946,0.0,0.0,0.0,2.4632,2.4633,2.4564,2.4457,2.4832,2.4826,2.4654,2.4654,2.4591,2.4478,2.4266,2.4266,2.4339,2.4228,2.4266,2.4413,2.4687,2.5364,2.6007,2.5988,2.6594,2.7126,2.6704,2.6906,2.7328,2.7714,2.7493,2.7328,2.7714,2.7398,2.7159,2.7494,2.7405,0.0,0.0,0.0,0.0,0.0,0.0,0.0,0.0,0.0,0.0,0.0,0.0,0.0,0.0,0.0,0.0,0.0,0.0,0.0,0.0,0.0,0.0,0.0,0.0,0.0,3.2384,3.2877,3.3603,3.4581,3.5474,3.5943,3.6008,3.5962,3.5942,3.5937,3.588,3.6118,3.6606,3.7445,3.8348,3.9277,4.0117,4.0711,4.1104,0.0,2.2292,0.0,0.0,2.2695,0.0,2.3949,2.4791,2.5243,2.508,2.5053,2.513,2.5292,2.5293,2.5303,2.5303,2.5303,2.5303,2.5303,2.5303,2.5322,2.5409,2.5409,2.5409,2.5425,2.5418,2.5409,0.0,0.0,0.0,0.0,0.0,0.0,0.0,0.0,0.0,0.0,0.0,2.5715,2.6381,2.5755,2.5367,2.5185,2.5188,2.505,2.4896,2.4896,2.4861,2.4779,2.4464,2.4445,2.4545,2.4375,2.4538,2.4771,2.458,2.5536,2.653,2.5844,2.6576,2.7383,2.6759,2.709,2.7585,2.775,2.7658,2.757,2.7595,2.7138,2.6859,2.727,2.7351,0.0,0.0,0.0,0.0,0.0,0.0,0.0,0.0,0.0,0.0,0.0,0.0,0.0,0.0,0.0,2.5486,2.5906,2.7181,2.8068,0.0,0.0,3.1195,3.0691,0.0,3.1549,3.1814,3.2531,3.3272,3.4058,3.5144,3.5644,3.5688,3.5816,3.5875,3.5842,3.5679,3.6051,3.674,3.6934,3.7864,3.9159,3.9326,3.9942,4.0703,0.0,0.0,0.0,0.0,0.0,0.0,0.0,2.5244,2.5284,2.5264,2.5264,2.5274,2.5303,2.5303,2.5303,2.5303,2.5303,2.5303,2.5303,2.5303,2.5322,2.5409,2.5409,2.5432,2.5488,2.5479,2.5486,0.0,0.0,0.0,0.0,0.0,0.0,0.0,0.0,0.0,0.0,2.551,2.5535,2.5618,2.5526,2.5473,2.5457,2.5453,2.5331,2.5147,2.5147,2.5049,2.4879,2.4855,2.4817,2.4775,2.4746,2.525,2.5822,2.5611,2.6172,2.6804,2.6546,2.6612,2.6704,2.6631,2.6667,2.6906,2.7622,2.7236,2.6767,2.6951,2.6042,2.5282,2.5494,2.5534,2.5953,0.0,0.0,0.0,0.0,0.0,0.0,0.0,0.0,0.0,0.0,0.0,0.0,0.0,0.0,2.5986,2.7576,2.7817,2.8598,3.0128,0.0,3.089,3.1656,3.0964,3.101,3.1796,3.2016,3.2128,3.2203,3.3937,3.4691,3.4676,3.5403,3.5718,3.5699,3.5438,3.5528,3.5907,3.6685,3.7096,3.7351,3.814,3.8979,3.9723,0.0,0.0,0.0,0.0,0.0,0.0,0.0,2.5303,2.5303,2.5303,2.5303,2.5303,2.5303,2.5303,2.5303,2.5303,2.5303,2.5303,2.5303,2.5341,2.539,2.5466,2.5505,2.5522,2.5568,2.5561,2.5547,0.0,0.0,0.0,0.0,0.0,0.0,0.0,0.0,2.5527,2.5504,2.5504,2.5504,2.5504,2.5504,2.5487,2.5449,2.5473,2.5435,2.5323,2.537,2.5299,2.5193,2.5193,2.512,2.5026,2.4898,2.5132,2.5418,2.5219,2.6073,2.6962,2.6389,2.697,2.7624,2.7137,2.738,2.7811,2.8147,2.7961,2.7623,2.717,2.5972,2.5229,2.5955,2.6082,2.61,0.0,0.0,0.0,0.0,0.0,0.0,0.0,0.0,0.0,0.0,0.0,0.0,0.0,0.0,0.0,2.7894,2.8425,2.8994,2.9659,0.0,3.0656,3.1086,3.0722,3.0768,3.1157,3.1676,3.1952,3.1992,3.3083,3.3723,3.3999,3.4805,3.5141,3.5092,3.4978,3.5086,3.5369,3.5729,3.63,3.6986,3.7336,3.8009,3.8825,2.4447,0.0,2.3195,0.0,2.4068,2.4175,2.5139,2.5303,2.5303,2.5303,2.5303,2.5303,2.5303,2.5303,2.5303,2.5303,2.5303,2.5303,2.5303,2.537,2.5418,2.549,2.5562,0.0,2.5625,2.5609,2.5572,2.5526,2.5563,0.0,0.0,0.0,0.0,0.0,2.5473,2.5464,2.543,2.546,2.546,2.5421,2.548,2.5465,2.5425,2.5476,2.5461,2.5445,2.5476,2.5468,2.5439,2.5422,2.5379,2.5267,2.5072,2.5252,2.5499,2.5297,2.6238,2.7186,2.6578,2.7285,2.8091,2.774,2.808,2.8555,2.8804,2.8844,2.8634,2.7831,2.6713,2.6014,2.6504,2.6601,2.6409,2.5793,0.0,0.0,0.0,0.0,0.0,0.0,2.6696,2.6641,2.6689,0.0,0.0,0.0,0.0,0.0,2.8309,2.8686,0.0,0.0,0.0,0.0,0.0,3.0613,3.0621,3.0687,3.1242,3.1493,3.1488,3.2086,3.2789,3.3573,3.4046,3.443,3.4694,3.4593,3.4715,3.4981,3.4981,3.5503,3.6259,3.6339,3.691,3.7736,2.5475,2.4726,2.4351,2.5226,2.4601,2.4284,2.5168,2.5303,2.5303,2.5303,2.5303,2.5303,2.5303,2.5303,2.5303,2.5303,2.5303,2.5303,2.5303,2.537,2.544,0.0,0.0,2.5635,2.5703,2.5635,2.5592,2.5601,0.0,0.0,2.5504,0.0,2.5504,2.5498,2.55,2.5386,2.522,2.542,2.539,2.5216,2.5409,2.5486,2.5495,2.5495,2.5507,2.5493,2.5493,2.5493,2.5493,2.55,2.5505,2.547,2.5336,2.5898,2.6534,2.6346,2.692,2.7557,2.7425,2.7395,2.7597,2.8304,2.8483,2.8698,2.9504,2.9677,2.95,2.8922,2.8293,2.7601,2.6755,2.6601,2.6601,2.6582,0.0,0.0,0.0,0.0,0.0,0.0,2.8732,2.8579,2.6863,0.0,0.0,0.0,0.0,0.0,0.0,0.0,0.0,3.0535,3.0656,0.0,3.0706,3.0636,3.0605,3.0605,3.0611,3.0472,3.0228,3.0763,3.1901,3.3393,3.3122,3.3671,3.4674,3.4357,3.4401,3.4694,3.4694,3.4694,3.4753,3.5018,3.5619,3.6358,2.557,2.5289,2.5142,2.5418,2.5207,2.5091,2.5322,2.537,2.5341,2.5303,2.5303,2.5303,2.5303,2.5303,2.5303,0.0,2.5341,2.537,0.0,2.5466,2.5543,2.5564,2.5625,2.5664,2.5628,2.5608,2.5582,2.5524,0.0,0.0,0.0,2.5288,2.5197,2.5157,2.5056,2.4991,2.4932,2.5004,2.4987,2.4943,2.5091,2.5157,2.5187,2.5349,2.5437,2.5423,2.5337,2.5278,2.5212,2.5075,2.5015,2.5025,2.4973,2.5231,2.5535,2.534,2.5968,2.6706,2.6665,2.7181,2.7789,2.8026,2.8126,2.8233,2.8479,2.8579,2.8714,2.9021,2.8518,2.8112,2.8332,2.7488,2.6747,2.6747,2.6246,0.0,0.0,0.0,0.0,0.0,2.6651,2.661,0.0,2.678,0.0,0.0,0.0,0.0,0.0,0.0,0.0,0.0,3.0694,0.0,3.0701,3.0672,3.0657,3.0599,3.0409,3.0094,2.9683,3.0412,3.1225,3.2071,3.2521,3.3077,3.3697,3.3839,3.3949,3.3981,3.4251,3.4508,3.4694,3.4812,3.4983,3.5344,2.5644,2.5576,2.5531,2.5549,2.5517,2.5484,2.5445,2.5446,2.5428,2.539,2.539,2.539,2.539,2.539,0.0,2.5341,2.539,2.5408,2.5437,2.5542,2.5588,2.5564,2.5625,2.5639,2.5569,0.0,0.0,2.5466,2.5348,2.5297,2.5252,2.5061,2.4949,2.493,2.4842,2.476,2.4685,2.4775,2.476,2.47,2.4864,2.4911,2.4943,2.5118,2.5172,2.5168,2.5077,2.5012,2.4964,2.4844,2.4723,2.461,2.4516,2.4502,2.4541,2.4751,2.5245,2.5749,2.577,2.6254,2.6855,2.715,2.7255,2.7383,2.7759,2.795,2.816,2.8613,2.8609,2.8449,2.8294,2.7709,2.7032,2.6372,2.5803,2.5447,2.5486,0.0,0.0,0.0,0.0,0.0,0.0,2.6529,2.6947,0.0,0.0,0.0,0.0,0.0,0.0,3.0147,3.0481,0.0,3.0657,3.0634,3.0566,3.0458,3.0086,2.9889,2.9857,3.0272,3.0946,3.188,3.2394,3.2821,3.3243,3.3634,3.3652,3.3478,3.388,3.4189,3.4375,3.4486,3.4508,3.4663,2.5683,2.5644,0.0,0.0,2.5547,0.0,2.5507,2.5498,2.5495,2.5495,2.5495,2.5495,2.5495,2.5495,2.5486,2.5428,0.0,0.0,0.0,2.5568,2.5568,2.5507,2.5564,2.5556,2.5493,2.5429,2.538,2.537,2.5118,2.4998,2.4986,2.4836,2.4775,2.4775,2.476,2.4639,2.4459,2.467,2.4639,2.4459,2.47,2.4775,2.4775,2.4756,2.4756,2.4756,2.4708,2.4708,2.4708,2.4693,2.4479,2.4205,2.4007,2.3717,2.3635,2.4447,2.4694,2.4725,2.4791,2.4817,2.5007,2.5742,2.5957,2.6238,2.7163,2.7592,2.7773,2.7792,2.8498,2.8626,2.7075,2.7409,2.7383,2.576,2.5409,2.5351,2.5487,0.0,0.0,0.0,0.0,0.0,0.0,2.6672,2.6398,0.0,0.0,0.0,0.0,0.0,2.842,2.9197,3.0053,3.051,3.049,3.0443,3.0337,3.0155,2.9645,2.9783,3.0488,3.0272,3.1054,3.2522,3.2596,3.2821,3.3184,3.3606,3.355,3.3196,3.3634,3.3807,3.3815,3.4093,3.4208,3.4405,0.0,0.0,2.5512,2.5512,2.5509,2.5496,2.5506,2.5494,2.5506,2.549,2.5498,2.5498,2.5498,2.5498,2.5498,2.5544,2.5543,2.5553,2.5569,2.5586,2.5582,2.5573,2.5551,2.5495,2.5434,2.5418,2.5301,2.5096,2.5022,2.4949,2.4842,2.467,2.4559,2.4559,2.441,2.4173,2.3921,2.421,2.4173,2.3941,2.4389,2.4559,2.4559,2.4463,2.4425,2.4358,2.3952,2.3818,2.3779,2.3629,2.352,2.3454,2.3406,2.3338,2.3293,2.3526,2.3705,2.3814,2.3817,2.3934,2.4098,2.4292,2.4579,2.4879,2.5168,2.594,2.6641,2.6734,2.7487,2.8038,2.7753,2.7357,2.6957,2.6539,2.5932,2.5537,2.5568,2.5565,0.0,0.0,2.5842,2.5805,2.5786,2.5804,2.6011,0.0,0.0,0.0,0.0,2.7379,2.7909,2.836,2.9235,2.9632,2.9535,2.9531,2.9608,2.9822,2.9532,2.9381,2.9402,2.994,3.0742,3.1715,3.2339,3.2617,3.2713,3.3476,3.3343,3.2745,3.3504,3.3807,3.3807,3.3876,3.4263,3.4887,2.5498,2.5498,2.5498,2.5498,2.5498,2.5493,2.5493,2.5506,2.5497,2.5508,2.5507,2.5507,2.5507,2.5507,2.5503,2.5551,2.5541,2.5578,2.56,2.5565,2.5545,2.5515,2.5466,2.5428,2.537,2.5252,2.5115,2.4917,2.4823,2.4737,2.4654,2.4461,2.4284,2.4136,2.4018,2.3795,2.3482,2.3671,2.3649,2.3482,2.3785,2.3906,2.3925,2.4215,2.4087,2.3794,2.3853,2.3634,2.3348,2.3241,2.3093,2.2972,2.2972,2.289,2.2798,2.2798,2.3076,2.3352,2.3352,2.3444,2.3515,2.3515,2.376,2.41,2.445,2.5094,2.5665,2.5893,2.6688,2.7171,2.6644,2.6505,2.6359,2.5945,2.5595,2.5361,2.5361,2.539,0.0,2.5376,2.525,2.5171,2.5175,2.5175,2.5378,2.586,2.5786,0.0,2.6409,2.7409,2.7809,2.7475,2.889,2.9449,2.9015,2.9184,2.9431,2.9696,2.9375,2.9544,3.0118,3.0558,3.1384,3.2522,3.2963,3.3019,3.2872,3.355,3.3419,3.289,3.355,3.3807,3.3807,3.3807,3.4321,3.5073,2.5466,2.5466,2.5457,2.5417,2.5417,2.5417,2.5407,2.5387,2.5395,2.5408,2.5408,2.5408,2.5408,2.5408,2.5408,2.5408,2.5407,2.5444,2.5592,2.5495,2.5406,2.536,2.5339,2.529,2.5233,2.5053,2.4904,2.476,2.4524,2.4408,2.4373,2.4135,2.3896,2.361,2.361,2.3437,2.3117,2.3165,2.3165,2.3135,2.3289,2.33,2.334,2.4015,2.3841,2.329,2.3798,2.3545,2.2995,2.2898,2.2686,2.2441,2.2441,2.232,2.218,2.218,2.259,2.3063,2.3063,2.3063,2.3063,2.3063,2.3211,2.3544,2.418,2.4472,2.4732,2.506,2.5743,2.5977,2.4921,2.5341,2.5609,2.4936,2.4993,2.5111,2.5111,0.0,2.5153,2.5077,2.4903,2.4801,2.4808,2.4804,2.4861,2.4959,2.5623,2.6061,2.6174,2.7554,2.7865,2.6811,2.8712,2.9421,2.8751,2.9194,2.9493,2.9643,2.9206,2.9787,3.1219,3.1329,3.221,3.3623,3.3752,3.3578,3.3243,3.3634,3.355,3.3243,3.378,3.3917,3.3807,3.3935,3.4412,3.5119,2.5322,2.5322,2.5273,2.5107,2.5084,2.5041,2.4936,2.4915,2.4934,2.4981,2.4987,2.4987,2.4987,2.4987,2.4987,2.4987,2.4947,2.5076,2.5495,2.5286,2.5168,2.5145,2.498,2.4888,2.4888,2.4861,2.4746,2.4561,2.4228,2.3986,2.3819,2.3504,2.3323,2.3277,2.3277,2.3093,2.2797,2.3069,2.3045,2.2849,2.3766,2.3876,2.3594,2.404,2.3866,2.3289,2.2589,2.2281,2.2102,2.1531,2.1305,2.1243,2.1243,2.146,2.1718,2.1718,2.2073,2.2443,2.2443,2.2443,2.2443,2.2443,2.2625,2.2848,2.297,2.3234,2.3526,2.3738,2.3901,2.408,2.4323,2.4487,2.466,2.4921,2.5043,2.5096,2.5096,0.0,2.5049,2.4879,2.4828,2.4794,2.4804,2.4804,2.5073,2.5759,2.5929,2.6305,2.6987,2.7735,2.7828,2.7141,2.8105,2.8596,2.8464,2.9101,2.9433,2.9434,2.9138,2.9494,3.0411,3.1091,3.1916,3.2834,3.3495,3.3578,3.3243,3.3634,3.355,3.3316,3.4402,3.4412,3.388,3.4578,3.488,3.5119,2.5141,2.5141,2.5096,2.4917,2.4891,2.4877,2.4812,2.4799,2.4804,2.4842,2.4842,2.4842,2.4842,2.4842,2.476,2.4598,2.4538,2.4551,2.458,2.4814,2.4945,2.4945,2.4851,2.4663,2.4383,2.4366,2.4173,2.3806,2.3645,2.3534,2.3414,2.3259,2.3093,2.294,2.3377,2.3154,2.2569,2.3505,2.3425,2.2714,2.3616,2.3695,2.334,2.3916,2.3744,2.3178,2.3151,2.2652,2.1965,2.163,2.1311,2.0991,2.0991,2.1118,2.1306,2.1538,2.1928,2.231,2.231,2.231,2.2237,2.2003,2.2039,2.2203,2.262,2.2819,2.3079,2.3601,2.4017,2.4182,2.3777,2.4039,2.4328,2.4403,2.4454,0.0,0.0,2.4818,2.4743,2.4644,2.454,2.4478,2.4478,2.4869,2.5279,2.5651,2.647,2.7139,2.7511,2.8207,2.8463,2.8197,2.8203,2.8519,2.9093,2.9169,2.9468,3.0044,2.9779,3.0081,3.087,3.1678,3.2247,3.2651,3.3458,3.3707,3.355,3.3734,3.368,3.3587,3.4128,3.4137,3.3844,3.4229,3.4633,3.5045,2.4949,2.4949,2.4917,2.476,2.4731,2.4716,2.467,2.4654,2.4654,2.4654,2.4604,2.4554,2.4554,2.4468,2.4312,2.4081,2.4045,2.3934,2.3684,2.4063,2.4362,2.4498,2.4449,2.4227,2.3832,2.3812,2.3605,2.3189,2.3117,2.3093,2.3069,2.3014,2.2927,2.2875,2.3512,2.334,2.2694,2.3816,2.3699,2.2753,2.3487,2.3417,2.2932,2.3698,2.3413,2.274,2.3173,2.2745,2.1884,2.1557,2.1334,2.1138,2.098,2.1094,2.1355,2.1666,2.1993,2.2237,2.2288,2.2209,2.2032,2.1688,2.1521,2.1608,2.2179,2.2294,2.2481,2.3095,2.3745,2.3949,2.309,2.347,2.3886,2.3819,0.0,0.0,0.0,2.4331,2.4244,2.4192,2.4058,2.3976,2.3976,2.4522,2.5053,2.5397,2.6648,2.757,2.7913,2.8534,2.8955,2.9137,2.8787,2.8983,2.9814,2.9647,2.9978,3.0794,3.0586,3.0797,3.1403,3.2045,3.243,3.2632,3.3256,3.3623,3.3788,3.3707,3.3652,3.3698,3.3853,3.3845,3.3698,3.3982,3.4357,3.4761,2.4799,2.4799,2.476,2.4561,2.4528,2.4461,2.4266,2.4247,2.4247,2.4247,2.3959,2.378,2.378,2.3508,2.331,2.3287,2.3287,2.3264,2.3241,2.294,2.3006,2.3578,2.3414,2.3287,2.3259,2.3259,2.3236,2.3189,2.2898,2.2746,2.2721,2.2463,2.2705,2.3338,2.3418,2.3486,2.3605,2.3704,2.3435,2.3048,2.377,2.3413,2.2503,2.3245,2.2805,2.1722,2.1234,2.1322,2.1555,2.0298,2.0656,2.1558,2.0941,2.1386,2.2198,2.2236,2.213,2.207,2.2233,2.1974,2.1642,2.1628,2.1306,2.1071,2.1119,2.1135,2.1135,2.1199,2.1544,2.1936,2.2141,2.2529,2.2958,2.345,0.0,0.0,2.3584,2.3584,2.3498,2.3328,2.3282,2.3259,2.3259,2.3312,2.3951,2.539,2.5937,2.6868,2.8283,2.841,2.8789,2.952,2.9862,3.0092,3.0171,3.0858,3.1262,3.1342,3.1317,3.1329,3.1384,3.1458,3.1898,3.2614,3.2669,3.3109,3.3762,3.3408,3.3243,3.3316,3.4057,3.3894,3.3364,3.4493,3.4486,3.399,2.4607,2.4607,2.4561,2.4339,2.4321,2.4284,2.4209,2.4016,2.3896,2.3896,2.3588,2.3392,2.3392,2.3277,2.3135,2.2958,2.2915,2.2703,2.2252,2.2068,2.2139,2.2503,2.2436,2.2483,2.2682,2.2332,2.2254,2.2462,2.191,2.1652,2.1652,2.1521,2.1869,2.2508,2.2572,2.2606,2.2716,2.364,2.3451,2.267,2.3803,2.3605,2.2644,2.2878,2.2455,2.1669,2.1462,2.1524,2.1643,2.1097,2.1284,2.165,2.1395,2.1603,2.1888,2.1716,2.1823,2.192,2.1596,2.1354,2.115,2.0878,2.0682,2.055,2.055,2.0879,2.1135,2.1022,2.1826,2.2394,2.1864,2.23,2.2818,2.3141,0.0,2.313,2.3432,2.3383,2.3305,2.3212,2.3589,2.389,2.389,2.4792,2.5623,2.6207,2.6837,2.7478,2.8039,2.8102,2.8431,2.9198,2.9858,3.0314,3.0567,3.0884,3.1284,3.1774,3.2033,3.2137,3.2173,3.2651,3.2779,3.2632,3.3128,3.3532,3.3807,3.3652,3.3578,3.3615,3.3925,3.3852,3.3615,3.4083,3.4394,3.4523,2.4247,2.4155,2.406,2.3899,2.3896,2.3896,2.3896,2.3692,2.3544,2.3544,2.3236,2.3045,2.3045,2.2965,2.2849,2.2651,2.2466,2.213,2.1642,2.1352,2.1415,2.1893,2.194,2.2153,2.2573,2.2183,2.1989,2.2013,2.1757,2.1406,2.1007,2.1422,2.1885,2.2348,2.2591,2.2617,2.2521,2.3544,2.3241,2.2194,2.3167,2.2951,2.2081,2.2081,2.1677,2.1086,2.1086,2.1226,2.1422,2.1419,2.17,2.2002,2.2013,2.2143,2.2194,2.1756,2.1735,2.1741,2.0984,2.0698,2.0532,2.0348,2.0227,2.0124,2.0124,2.0492,2.0762,2.0642,2.1455,2.1991,2.1311,2.1728,2.22,2.2361,2.2354,2.2478,2.2835,2.2905,2.2908,2.2908,2.3563,2.4034,2.4034,2.522,2.6092,2.6336,2.6988,2.7461,2.7707,2.784,2.8299,2.9154,2.9699,3.0353,3.1097,3.1267,3.1685,3.239,3.2647,3.2729,3.2632,3.3183,3.3128,3.2632,3.3183,3.3568,3.3788,3.368,3.3606,3.3606,3.3606,3.3606,3.3625,3.3734,3.4156,3.4568,2.3692,2.3414,2.3189,2.3189,2.3189,2.3189,2.3189,2.3189,2.3189,2.3189,2.2898,2.2695,2.2695,2.2463,2.2282,2.2282,2.1853,2.1582,2.1582,2.0765,2.0795,2.1947,2.1979,2.233,2.2992,2.2992,2.2678,2.1995,2.2678,2.2296,2.1039,2.2343,2.3012,2.3115,2.3765,2.3844,2.3367,2.3367,2.2712,2.17,2.1715,2.1338,2.0795,2.0795,2.0396,1.9798,1.9798,2.0245,2.0815,2.083,2.1668,2.2684,2.2693,2.3101,2.3411,2.2547,2.2002,2.1497,2.0562,2.0,1.9782,2.0193,2.0,1.969,1.969,1.969,1.969,1.969,2.0035,2.0314,2.0314,2.0682,2.1007,2.0991,2.1337,2.1598,2.1598,2.2003,2.2282,2.2282,2.2953,2.341,2.341,2.4069,2.4814,2.5558,2.597,2.6506,2.7251,2.7678,2.8411,2.957,2.9522,3.0249,3.1771,3.2264,3.2713,3.3184,3.3184,3.299,3.2588,3.2588,3.2606,3.2614,3.2614,3.3073,3.3762,3.3361,3.3214,3.3214,3.3214,3.3214,3.3243,3.3634,3.3807,3.3917,2.2999,2.286,2.2693,2.234,2.2556,2.2667,2.234,2.2608,2.2754,2.2478,2.2141,2.1948,2.1948,2.1612,2.1385,2.1385,2.126,2.1039,2.0699,2.0619,2.094,2.1744,2.1332,2.1622,2.2766,2.2339,2.2217,2.2491,2.1744,2.1179,2.0782,2.0727,2.1201,2.2118,2.1843,2.1696,2.1662,2.1662,2.0973,1.9936,2.082,2.0781,2.0289,2.065,2.0396,1.9798,1.9798,2.0245,2.0868,2.1281,2.2006,2.2773,2.3024,2.3061,2.2806,2.1879,2.1325,2.085,2.008,1.9782,1.9726,1.9839,1.9782,1.969,1.969,2.0064,2.0273,1.9794,2.0158,2.0506,2.0339,2.0416,2.0616,2.0959,2.1086,2.1181,2.1181,2.1291,2.1687,2.2491,2.3283,2.4093,2.4867,2.5609,2.6116,2.6353,2.6485,2.6652,2.6873,2.6987,2.7706,2.9141,2.9157,2.9873,3.1355,3.1806,3.2092,3.223,3.255,3.2827,3.3016,3.3016,3.3176,3.344,3.344,3.3587,3.3788,3.368,3.3606,3.3606,3.3606,3.3606,3.3652,3.3762,3.4174,3.466,2.2204,2.2067,2.1871,2.1595,2.1786,2.1871,2.1595,2.1819,2.1927,2.1694,2.1488,2.1368,2.1368,2.115,2.0991,2.0991,2.0829,2.0532,2.0089,2.0195,2.0602,2.1276,2.0932,2.144,2.3011,2.2652,2.2517,2.2724,2.1874,2.1099,2.0371,2.0224,2.0352,2.0677,2.052,2.0359,2.0172,2.0172,1.9614,1.8793,1.9527,1.976,1.9655,1.9956,1.9965,1.9798,1.9798,2.0055,2.0547,2.1424,2.2285,2.3069,2.3254,2.3151,2.2732,2.163,2.1151,2.0751,1.9942,1.969,1.969,1.969,1.969,1.969,1.969,2.0004,2.0183,1.9765,2.0228,2.0572,2.0122,2.0284,2.0446,2.0478,2.0632,2.0715,2.0715,2.11,2.1665,2.2329,2.3506,2.4513,2.523,2.6152,2.6691,2.6691,2.6691,2.6691,2.6691,2.6691,2.7315,2.8594,2.8645,2.9232,3.046,3.0737,3.1176,3.1808,3.2092,3.2466,3.2903,3.2903,3.3075,3.3284,3.3476,3.355,3.3578,3.3734,3.3807,3.3807,3.3807,3.3807,3.3844,3.4174,3.4467,3.4845,2.1252,2.1054,2.0862,2.0813,2.0894,2.0926,2.0894,2.0959,2.0991,2.0926,2.0926,2.0926,2.0926,2.091,2.0862,2.0862,2.0483,2.0089,1.9711,1.975,2.0064,2.0692,2.0782,2.1635,2.3385,2.343,2.3206,2.2798,2.2536,2.1606,2.0013,2.0433,2.0101,1.9155,1.9739,1.9627,1.9045,1.9045,1.8655,1.8057,1.8122,1.8441,1.8908,1.8958,1.9346,1.9798,1.9798,1.9798,1.9991,2.1212,2.2474,2.3513,2.3262,2.3188,2.2925,2.1667,2.1228,2.0998,1.9984,1.969,1.969,1.969,1.969,1.969,1.969,1.969,1.9705,1.9765,2.0228,2.0453,1.9884,2.0243,2.0423,1.9794,2.0,2.0277,2.0339,2.1227,2.1959,2.212,2.3675,2.4804,2.4905,2.6,2.6691,2.6691,2.6657,2.6624,2.6624,2.6573,2.6966,2.7925,2.7984,2.8428,2.9294,2.9374,3.0126,3.1588,3.1588,3.1826,3.2281,3.2315,3.24,3.2466,3.2934,3.3154,3.3184,3.355,3.3662,3.3662,3.3662,3.3662,3.3753,3.4503,3.4527,3.442,1.9446,1.9667,1.9798,1.9419,1.9954,2.0364,2.0015,2.0565,2.0862,2.0516,2.0449,2.0449,2.0449,2.0174,1.998,1.998,1.9874,1.9782,1.9726,2.0183,2.0557,2.0707,2.1201,2.168,2.2099,2.2113,2.2532,2.34,2.1439,2.0567,2.0647,1.9355,1.8848,1.9086,1.9266,1.9002,1.8457,1.8457,1.7833,1.6908,1.7365,1.7915,1.843,1.8869,1.9346,1.9798,1.9798,1.9798,1.9927,2.0718,2.2033,2.3255,2.2503,2.2287,2.2128,2.1305,2.0803,2.0412,1.9848,1.969,1.969,1.969,1.969,1.969,1.969,1.969,1.9839,2.0378,2.0183,2.0034,2.0423,2.0168,1.9854,1.9705,1.9782,1.9999,2.0541,2.0827,2.1506,2.2923,2.3824,2.4717,2.5628,2.6301,2.6691,2.6691,2.6367,2.6156,2.6156,2.5746,2.5875,2.6647,2.7211,2.7821,2.8629,2.9118,2.9569,2.9929,2.9929,3.0161,3.0576,3.1019,3.145,3.1812,3.238,3.2648,3.2648,3.2745,3.2777,3.2777,3.2777,3.2777,3.2795,3.2973,3.2962,3.3128,1.8427,1.8669,1.8887,1.8893,1.9325,1.9651,1.9675,2.0085,2.0311,2.0035,1.9793,1.9722,2.0,1.9609,1.9406,1.969,1.969,1.969,1.969,2.0034,2.0228,2.0228,2.0557,2.0887,2.1216,2.0655,2.0995,2.2317,2.0669,1.9829,1.9642,1.8344,1.7746,1.7845,1.7845,1.7718,1.7433,1.7433,1.7063,1.6547,1.6848,1.73,1.7877,1.843,1.897,1.9459,1.971,1.9826,1.9992,2.0595,2.1384,2.2133,2.202,2.2013,2.1903,2.1423,2.0991,2.055,2.0089,1.9839,1.969,1.969,1.969,1.969,1.969,1.9944,2.0288,2.0632,2.0932,2.1126,2.1171,2.1141,2.1006,2.0692,2.0647,2.0767,2.1141,2.1455,2.2009,2.294,2.3779,2.4729,2.5892,2.6736,2.708,2.6725,2.6262,2.6013,2.6013,2.5486,2.529,2.5419,2.6016,2.6397,2.6522,2.715,2.751,2.751,2.881,2.9492,2.9718,3.0035,3.0336,3.057,3.1079,3.1322,3.1305,3.1545,3.183,3.2091,3.2091,3.2246,3.257,3.2924,3.333,3.3687,1.7731,1.7907,1.8106,1.8535,1.8779,1.9043,1.9479,1.9639,1.969,1.9566,1.9169,1.9043,1.9406,1.9132,1.908,1.953,1.9639,1.969,1.969,1.969,1.969,1.969,1.9603,1.9834,2.0362,1.9333,1.9487,2.0905,1.9953,1.9044,1.8286,1.7534,1.6909,1.6522,1.6522,1.6522,1.6522,1.6522,1.6522,1.6522,1.6522,1.6861,1.7438,1.789,1.8468,1.9033,1.951,1.9872,2.0199,2.0543,2.0796,2.1057,2.1647,2.1871,2.1875,2.1671,2.1368,2.0991,2.0449,2.007,1.9782,1.9711,1.969,1.972,1.9824,2.0303,2.0782,2.1006,2.1829,2.2383,2.1934,2.2218,2.2338,2.1784,2.1695,2.1739,2.1844,2.2428,2.2918,2.2996,2.4112,2.5219,2.6101,2.7194,2.7513,2.6687,2.6178,2.5873,2.5742,2.5128,2.4606,2.4209,2.4722,2.4803,2.436,2.5039,2.5398,2.5453,2.7659,2.8763,2.8919,2.9134,2.9225,2.9271,2.9702,2.991,2.9936,3.0309,3.0768,3.1216,3.1216,3.1543,3.2056,3.2703,3.3404,3.3853,1.659,1.7076,1.7422,1.7504,1.8302,1.893,1.9006,1.9406,1.953,1.908,1.8968,1.8727,1.838,1.865,1.893,1.9006,1.9442,1.969,1.969,1.969,1.969,1.969,1.9244,1.9049,1.9136,1.8539,1.9077,2.0905,1.8714,1.7891,1.8286,1.7136,1.6552,1.6522,1.6522,1.6522,1.6522,1.6522,1.6522,1.6522,1.6522,1.6861,1.7388,1.7463,1.8129,1.8983,1.9058,1.9808,2.0616,2.0112,2.0571,2.1321,2.1185,2.1358,2.1653,2.1615,2.1552,2.1337,2.0501,2.0246,2.0124,1.9782,1.969,1.9839,2.0438,2.0647,2.1036,2.2173,2.2099,2.1979,2.2458,2.2158,2.1799,2.171,2.1695,2.1889,2.2458,2.3071,2.3699,2.4298,2.5839,2.6924,2.7038,2.7662,2.7574,2.6373,2.5787,2.5248,2.4664,2.3621,2.3038,2.2946,2.3526,2.377,2.3713,2.4832,2.5398,2.5398,2.5755,2.6293,2.6938,2.8094,2.8606,2.8654,2.9255,2.9464,2.9508,2.9565,2.9609,2.9696,2.9696,2.9756,2.9843,2.9941,3.0038,3.0201,1.6358,1.668,1.6951,1.7229,1.7947,1.8535,1.8855,1.9369,1.953,1.8968,1.865,1.838,1.8145,1.8302,1.8574,1.8855,1.9132,1.9369,1.969,1.969,1.969,1.969,1.9207,1.8893,1.8893,1.8066,1.8045,1.8879,1.7799,1.7319,1.7282,1.6751,1.6522,1.6522,1.6522,1.6522,1.6522,1.6522,1.6522,1.6522,1.6522,1.6672,1.6936,1.7262,1.7689,1.8191,1.8807,1.9166,1.9352,1.9343,1.9459,1.9672,2.0354,2.0879,2.1368,2.184,2.1645,2.1181,2.0797,2.033,1.9909,1.9747,1.969,1.9869,2.0557,2.0991,2.153,2.2488,2.2712,2.2847,2.3131,2.2951,2.2757,2.2757,2.3086,2.343,2.3729,2.4313,2.4837,2.5136,2.6471,2.7252,2.6804,2.762,2.749,2.579,2.5195,2.4457,2.3374,2.2563,2.2127,2.2103,2.2609,2.2911,2.286,2.3686,2.4105,2.4092,2.4553,2.5175,2.5906,2.6505,2.6753,2.6791,2.707,2.7375,2.7769,2.7769,2.8209,2.8919,2.8919,2.8881,2.8842,2.8842,2.8842,2.8906]},{"header":{"parameterUnit":"m.s-1","parameterCategory":1,"la1":30.6,"la2":28.766,"lo1":-90.7593,"lo2":-88.6598,"dy":0.0162,"dx":0.0183,"nx":116,"ny":114,"refTime":"2023-03-10T06:00:00:Z","depth":0,"parameterNumber":3,"parameterNumberName":"V-component_of_WINDS"},"data":[0.0,0.0,0.0,0.0,0.0,0.0,0.0,0.0,0.0,0.0,0.0,0.0,0.0,0.0,0.0,0.0,0.0,0.0,0.0,0.0,0.0,0.0,0.0,0.0,0.0,0.0,0.0,0.0,0.0,0.0,0.0,0.0,0.0,0.0,0.0,0.0,0.0,0.0,0.0,0.0,0.0,0.0,0.0,0.0,0.0,0.0,0.0,0.0,0.0,0.0,0.0,0.0,0.0,0.0,0.0,0.0,0.0,0.0,0.0,0.0,0.0,0.0,0.0,0.0,0.0,0.0,0.0,0.0,0.0,0.0,0.0,0.0,0.0,0.0,0.0,0.0,0.0,0.0,0.0,0.0,0.0,0.0,0.0,0.0,0.0,0.0,0.0,0.0,0.0,0.0,0.0,0.0,0.0,0.0,0.0,0.0,0.0,0.0,0.0,0.0,0.0,0.0,0.0,0.0,0.0,0.0,0.0,0.0,0.0,0.0,0.0,0.0,0.0,0.0,0.0,0.0,0.0,0.0,0.0,0.0,0.0,0.0,0.0,0.0,0.0,0.0,0.0,0.0,0.0,0.0,0.0,0.0,0.0,0.0,0.0,0.0,0.0,0.0,0.0,0.0,0.0,0.0,0.0,0.0,0.0,0.0,0.0,0.0,0.0,0.0,0.0,0.0,0.0,0.0,0.0,0.0,0.0,0.0,0.0,0.0,0.0,0.0,0.0,0.0,0.0,0.0,0.0,0.0,0.0,0.0,0.0,0.0,0.0,0.0,0.0,0.0,0.0,0.0,0.0,0.0,0.0,0.0,0.0,0.0,0.0,0.0,0.0,0.0,0.0,0.0,0.0,0.0,0.0,0.0,0.0,0.0,0.0,0.0,0.0,0.0,0.0,0.0,0.0,0.0,0.0,0.0,0.0,0.0,0.0,0.0,0.0,0.0,0.0,0.0,0.0,0.0,0.0,0.0,0.0,0.0,0.0,0.0,0.0,0.0,0.0,0.0,0.0,0.0,0.0,0.0,0.0,0.0,0.0,0.0,0.0,0.0,0.0,0.0,0.0,0.0,0.0,0.0,0.0,0.0,0.0,0.0,0.0,0.0,0.0,0.0,0.0,0.0,0.0,0.0,0.0,0.0,0.0,0.0,0.0,0.0,0.0,0.0,0.0,0.0,0.0,0.0,0.0,0.0,0.0,0.0,0.0,0.0,0.0,0.0,0.0,0.0,0.0,0.0,0.0,0.0,0.0,0.0,0.0,0.0,0.0,0.0,0.0,0.0,0.0,0.0,0.0,0.0,0.0,0.0,0.0,0.0,0.0,0.0,0.0,0.0,0.0,0.0,0.0,0.0,0.0,0.0,0.0,0.0,0.0,0.0,0.0,0.0,0.0,0.0,0.0,0.0,0.0,0.0,0.0,0.0,0.0,0.0,0.0,0.0,0.0,0.0,0.0,0.0,0.0,0.0,0.0,0.0,0.0,0.0,0.0,0.0,0.0,0.0,0.0,0.0,0.0,0.0,0.0,0.0,0.0,0.0,0.0,0.0,0.0,0.0,0.0,0.0,0.0,0.0,0.0,0.0,0.0,0.0,0.0,0.0,0.0,0.0,0.0,0.0,0.0,0.0,0.0,0.0,0.0,0.0,0.0,0.0,0.0,0.0,0.0,0.0,0.0,0.0,0.0,0.0,0.0,0.0,0.0,0.0,0.0,0.0,0.0,0.0,0.0,0.0,0.0,0.0,0.0,0.0,0.0,0.0,0.0,0.0,0.0,0.0,0.0,0.0,0.0,0.0,0.0,0.0,0.0,0.0,0.0,0.0,0.0,0.0,0.0,0.0,0.0,0.0,0.0,0.0,0.0,0.0,0.0,0.0,0.0,0.0,0.0,0.0,0.0,0.0,0.0,0.0,0.0,0.0,0.0,0.0,0.0,0.0,0.0,0.0,0.0,0.0,0.0,0.0,0.0,0.0,0.0,0.0,0.0,0.0,0.0,0.0,0.0,0.0,0.0,0.0,0.0,0.0,0.0,0.0,0.0,0.0,0.0,0.0,0.0,0.0,0.0,0.0,0.0,0.0,0.0,0.0,0.0,0.0,0.0,0.0,0.0,0.0,0.0,0.0,0.0,0.0,0.0,0.0,0.0,0.0,0.0,0.0,0.0,0.0,0.0,0.0,0.0,0.0,0.0,0.0,0.0,0.0,0.0,0.0,0.0,0.0,0.0,0.0,0.0,0.0,0.0,0.0,0.0,0.0,0.0,0.0,0.0,0.0,0.0,0.0,0.0,0.0,0.0,0.0,0.0,0.0,0.0,0.0,0.0,0.0,0.0,0.0,0.0,0.0,0.0,0.0,0.0,0.0,0.0,0.0,0.0,0.0,0.0,0.0,0.0,0.0,0.0,0.0,0.0,0.0,0.0,0.0,0.0,0.0,0.0,0.0,0.0,0.0,0.0,0.0,0.0,0.0,0.0,0.0,0.0,0.0,0.0,0.0,0.0,0.0,0.0,0.0,0.0,0.0,0.0,0.0,0.0,0.0,0.0,0.0,0.0,0.0,0.0,0.0,0.0,0.0,0.0,0.0,0.0,0.0,0.0,0.0,0.0,0.0,0.0,0.0,0.0,0.0,0.0,0.0,0.0,0.0,0.0,0.0,0.0,0.0,0.0,0.0,0.0,0.0,0.0,0.0,0.0,0.0,0.0,0.0,0.0,0.0,0.0,0.0,0.0,0.0,0.0,0.0,0.0,0.0,0.0,0.0,0.0,0.0,0.0,0.0,0.0,0.0,0.0,0.0,0.0,0.0,0.0,0.0,0.0,0.0,0.0,0.0,0.0,0.0,0.0,0.0,0.0,0.0,0.0,0.0,0.0,0.0,0.0,0.0,0.0,0.0,0.0,0.0,0.0,0.0,0.0,0.0,0.0,0.0,0.0,0.0,0.0,0.0,0.0,0.0,0.0,0.0,0.0,0.0,0.0,0.0,0.0,0.0,0.0,0.0,0.0,0.0,0.0,0.0,0.0,0.0,0.0,0.0,0.0,0.0,0.0,0.0,0.0,0.0,0.0,0.0,0.0,0.0,0.0,0.0,0.0,0.0,0.0,0.0,0.0,0.0,0.0,0.0,0.0,0.0,0.0,0.0,0.0,0.0,0.0,0.0,0.0,0.0,0.0,0.0,0.0,0.0,0.0,0.0,0.0,0.0,0.0,0.0,0.0,0.0,0.0,0.0,0.0,0.0,0.0,0.0,0.0,0.0,0.0,0.0,0.0,0.0,0.0,0.0,0.0,0.0,0.0,0.0,0.0,0.0,0.0,0.0,0.0,0.0,0.0,0.0,0.0,0.0,0.0,0.0,0.0,0.0,0.0,0.0,0.0,0.0,0.0,0.0,0.0,0.0,0.0,0.0,0.0,0.0,0.0,0.0,0.0,0.0,0.0,0.0,0.0,0.0,0.0,0.0,0.0,0.0,0.0,0.0,0.0,0.0,0.0,0.0,0.0,0.0,0.0,0.0,0.0,0.0,0.0,0.0,0.0,0.0,0.0,0.0,0.0,0.0,0.0,0.0,0.0,0.0,0.0,0.0,0.0,0.0,0.0,0.0,0.0,0.0,0.0,0.0,0.0,0.0,0.0,0.0,0.0,0.0,0.0,0.0,0.0,0.0,0.0,0.0,0.0,0.0,0.0,0.0,0.0,0.0,0.0,0.0,0.0,0.0,0.0,0.0,0.0,0.0,0.0,0.0,0.0,0.0,0.0,0.0,0.0,0.0,0.0,0.0,0.0,0.0,0.0,0.0,0.0,0.0,0.0,0.0,0.0,0.0,0.0,0.0,0.0,0.0,0.0,0.0,0.0,0.0,0.0,0.0,0.0,0.0,0.0,0.0,0.0,0.0,0.0,0.0,0.0,0.0,0.0,0.0,0.0,0.0,0.0,0.0,0.0,0.0,0.0,0.0,0.0,0.0,0.0,0.0,0.0,0.0,0.0,0.0,0.0,0.0,0.0,0.0,0.0,0.0,0.0,0.0,0.0,0.0,0.0,0.0,0.0,0.0,0.0,0.0,0.0,0.0,0.0,0.0,0.0,0.0,0.0,0.0,0.0,0.0,0.0,0.0,0.0,0.0,0.0,0.0,0.0,0.0,0.0,0.0,0.0,0.0,0.0,0.0,0.0,0.0,0.0,0.0,0.0,0.0,0.0,0.0,0.0,0.0,0.0,0.0,0.0,0.0,0.0,0.0,0.0,0.0,0.0,0.0,0.0,0.0,0.0,0.0,0.0,0.0,0.0,0.0,0.0,0.0,0.0,0.0,0.0,0.0,0.0,0.0,0.0,0.0,0.0,0.0,0.0,0.0,0.0,0.0,0.0,0.0,0.0,0.0,0.0,0.0,0.0,0.0,0.0,0.0,0.0,0.0,0.0,0.0,0.0,0.0,0.0,0.0,0.0,0.0,0.0,0.0,0.0,0.0,0.0,0.0,0.0,0.0,0.0,0.0,0.0,0.0,0.0,0.0,0.0,0.0,0.0,0.0,0.0,0.0,0.0,0.0,0.0,0.0,0.0,0.0,0.0,0.0,0.0,0.0,0.0,0.0,0.0,0.0,0.0,0.0,0.0,0.0,0.0,0.0,0.0,0.0,0.0,0.0,0.0,0.0,0.0,0.0,0.0,0.0,0.0,0.0,0.0,0.0,0.0,0.0,0.0,0.0,0.0,0.0,0.0,0.0,0.0,0.0,0.0,0.0,0.0,0.0,0.0,0.0,0.0,0.0,0.0,0.0,0.0,0.0,0.0,0.0,0.0,0.0,0.0,0.0,0.0,0.0,0.0,0.0,0.0,0.0,0.0,0.0,0.0,0.0,0.0,0.0,0.0,0.0,0.0,0.0,0.0,0.0,0.0,0.0,0.0,0.0,0.0,0.0,0.0,0.0,0.0,0.0,0.0,0.0,0.0,0.0,0.0,0.0,0.0,0.0,0.0,0.0,0.0,0.0,0.0,0.0,0.0,0.0,0.0,0.0,0.0,0.0,0.0,0.0,0.0,0.0,0.0,0.0,0.0,0.0,0.0,0.0,0.0,0.0,0.0,0.0,0.0,0.0,0.0,0.0,0.0,0.0,0.0,0.0,0.0,0.0,0.0,0.0,0.0,0.0,0.0,0.0,0.0,0.0,0.0,0.0,0.0,0.0,0.0,0.0,0.0,0.0,0.0,0.0,0.0,0.0,0.0,0.0,0.0,0.0,0.0,0.0,0.0,0.0,0.0,0.0,0.0,0.0,0.0,0.0,0.0,0.0,0.0,0.0,0.0,0.0,0.0,0.0,0.0,0.0,0.0,0.0,0.0,0.0,0.0,0.0,0.0,0.0,0.0,0.0,0.0,0.0,0.0,0.0,0.0,0.0,0.0,0.0,0.0,0.0,0.0,0.0,0.0,0.0,0.0,0.0,0.0,0.0,0.0,0.0,0.0,0.0,0.0,0.0,0.0,0.0,0.0,0.0,0.0,0.0,0.0,0.0,0.0,0.0,0.0,0.0,0.0,0.0,0.0,0.0,0.0,0.0,0.0,0.0,0.0,0.0,0.0,0.0,0.0,0.0,0.0,0.0,0.0,0.0,0.0,0.0,0.0,0.0,0.0,0.0,0.0,0.0,0.0,0.0,0.0,0.0,0.0,0.0,0.0,0.0,0.0,0.0,0.0,0.0,0.0,0.0,0.0,0.0,0.0,0.0,0.0,0.0,0.0,0.0,0.0,0.0,0.0,0.0,0.0,0.0,0.0,0.0,0.0,0.0,0.0,0.0,0.0,0.0,0.0,0.0,0.0,0.0,0.0,0.0,0.0,0.0,0.0,0.0,0.0,0.0,0.0,0.0,0.0,0.0,0.0,0.0,0.0,0.0,0.0,0.0,0.0,0.0,0.0,0.0,0.0,0.0,0.0,0.0,0.0,0.0,0.0,0.0,0.0,0.0,0.0,0.0,0.0,0.0,0.0,0.0,0.0,0.0,0.0,0.0,0.0,0.0,0.0,0.0,0.0,0.0,0.0,0.0,0.0,0.0,0.0,0.0,0.0,0.0,0.0,0.0,0.0,0.0,0.0,0.0,0.0,0.0,0.0,0.0,0.5812,0.0,0.0,0.0,0.0,0.0,0.0,0.0,0.0,0.0,0.0,0.0,0.0,0.0,0.0,0.0,0.0,0.0,0.0,0.0,0.0,0.0,0.0,0.0,0.0,0.0,0.0,0.0,0.0,0.0,0.0,0.0,0.0,0.0,0.0,0.0,0.0,0.0,0.0,0.0,0.0,0.0,0.0,0.0,0.0,0.0,0.0,0.0,0.0,0.0,0.0,0.0,0.0,0.0,0.0,0.0,0.0,0.0,0.0,0.0,0.0,0.0,0.0,0.0,0.0,0.0,0.0,0.0,0.0,0.0,0.0,0.0,0.0,0.0,0.0,0.0,0.0,0.0,0.0,0.0,0.0,0.0,0.0,0.0,0.0,0.0,0.0,0.0,0.0,0.0,0.0,0.0,0.0,0.0,0.0,0.0,0.0,0.0,0.0,0.0,0.0,0.0,0.0,0.0,0.0,0.0,0.0,0.0,0.0,0.0,0.0,0.0,0.0,0.0,0.0,0.0,0.0,0.6117,0.0,0.0,0.0,0.0,0.0,0.0,0.0,0.0,0.0,0.0,0.0,0.0,0.0,0.0,0.0,0.0,0.0,0.0,0.0,0.0,0.0,0.0,0.0,0.0,0.0,0.0,0.0,0.0,0.0,0.0,0.0,0.0,0.0,0.0,0.0,0.0,0.0,0.0,0.0,0.0,0.0,0.0,0.0,0.0,0.0,0.0,0.0,0.0,0.0,0.0,0.0,0.0,0.0,0.0,0.0,0.0,0.0,0.0,0.0,0.0,0.0,0.0,0.0,0.0,0.0,0.0,0.0,0.0,0.0,0.0,0.0,0.0,0.0,0.0,0.0,0.0,0.0,0.0,0.0,0.0,0.0,0.0,0.0,0.0,0.0,0.0,0.0,0.0,0.0,0.0,0.0,0.0,0.0,0.0,0.0,0.0,0.0,0.0,0.0,0.0,0.0,0.0,0.0,0.0,0.0,0.0,0.0,0.0,0.6481,0.659,0.6661,0.6688,0.6583,0.6369,0.6391,0.6204,0.6045,0.0,0.0,0.0,0.0,0.0,0.0,0.0,0.0,0.0,0.0,0.0,0.0,0.0,0.0,0.0,0.0,0.0,0.0,0.0,0.0,0.0,0.0,0.0,0.0,0.0,0.0,0.0,0.0,0.0,0.0,0.0,0.0,0.0,0.0,0.0,0.0,0.0,0.0,0.0,1.165,1.2278,1.2599,1.2812,0.0,0.0,0.0,0.0,0.0,0.0,0.0,0.0,0.0,0.0,0.0,0.0,0.0,0.0,0.0,0.0,0.0,0.0,0.0,0.0,0.0,0.0,0.0,0.0,0.0,0.0,0.0,0.0,0.0,0.0,0.0,0.0,0.0,0.0,0.0,0.0,0.0,0.0,0.0,0.0,0.0,0.0,0.0,0.0,0.5848,0.5962,0.0,0.0,0.0,0.0,0.0,0.0,0.0,0.0,0.0,0.0,0.0,0.0,0.0,0.6637,0.6749,0.6912,0.6875,0.6644,0.6797,0.6739,0.6508,0.6637,0.6753,0.6841,0.6817,0.0,0.6284,0.6354,0.0,0.0,0.0,0.0,0.0,0.0,0.0,0.0,0.0,0.0,0.0,0.0,0.0,0.0,0.0,0.0,0.0,0.0,0.0,0.0,0.0,0.0,0.0,0.0,0.0,0.0,0.0,0.0,0.0,0.0,0.0,0.0,0.0,0.0,0.0,0.0,1.1002,1.1857,1.2446,1.3535,1.3754,1.318,1.3245,1.2994,1.2545,1.2493,0.0,0.0,0.0,0.0,0.0,0.0,0.0,0.0,0.0,0.0,0.0,0.0,0.0,0.0,0.0,0.0,0.0,0.0,0.0,0.0,0.0,0.0,0.0,0.0,0.0,0.0,0.0,0.0,0.0,0.0,0.0,0.0,0.0,0.0,0.0,0.0,0.0,0.0,0.0,0.6074,0.6264,0.6467,0.6616,0.6797,0.0,0.0,0.0,0.0,0.0,0.0,0.0,0.0,0.0,0.6386,0.6671,0.6776,0.6671,0.6905,0.6997,0.6949,0.7796,0.7848,0.7109,0.7955,0.7942,0.7305,0.7305,0.7193,0.6923,0.6857,0.6898,0.707,0.0,0.0,0.0,0.0,0.73,0.7516,0.0,0.0,0.0,0.0,0.0,0.0,0.0,0.0,0.0,0.0,0.0,0.0,0.0,0.0,0.0,0.0,0.0,0.0,0.0,0.0,0.0,0.0,0.0,0.0,0.0,0.0,0.0,0.0,1.2838,1.3738,1.3975,1.5476,1.5561,1.4365,1.5642,1.5042,1.318,1.2792,1.2338,0.0,0.0,0.0,0.0,0.0,0.0,0.0,0.0,0.0,0.0,0.0,0.0,0.0,0.0,0.0,0.0,0.0,0.0,0.0,0.0,0.0,0.0,0.0,0.0,0.0,0.0,0.0,0.0,0.0,0.0,0.0,0.0,0.0,0.0,0.0,0.0,0.0,0.0,0.6234,0.6464,0.6744,0.6832,0.6904,0.0,0.0,0.0,0.0,0.0,0.0,0.6427,0.6783,0.6878,0.6651,0.6939,0.701,0.6817,0.7078,0.7285,0.7431,0.8556,0.8777,0.8335,0.9267,0.9151,0.8182,0.8182,0.7928,0.7512,0.7312,0.7186,0.7133,0.7174,0.7267,0.7297,0.7256,0.742,0.7572,0.0,0.0,0.0,0.0,0.0,0.0,0.0,0.0,0.0,0.0,0.0,0.0,0.0,0.0,0.0,0.0,0.0,0.0,0.0,0.0,0.0,0.0,0.0,0.0,0.0,0.0,0.0,1.308,1.4962,0.0,1.7019,1.8701,1.8795,1.7542,1.8704,1.7428,1.4335,1.2926,1.2632,1.3019,0.0,0.0,0.0,0.0,0.0,0.0,0.0,0.0,0.0,0.0,0.0,0.0,0.0,0.0,0.0,0.0,0.0,0.0,0.0,0.0,0.0,0.0,0.0,0.0,0.0,0.0,0.0,0.0,0.0,0.0,0.0,0.0,0.0,0.0,0.0,0.0,0.0,0.0,0.0,0.6172,0.6478,0.0,0.0,0.0,0.0,0.6966,0.6877,0.6885,0.6895,0.7044,0.7122,0.7105,0.7404,0.7621,0.7743,0.7902,0.8062,0.8214,0.8323,0.8925,1.002,1.0121,1.0029,0.9874,0.9874,0.9186,0.796,0.7559,0.7394,0.7457,0.7479,0.7595,0.7709,0.7558,0.7609,0.7731,0.0,0.0,0.0,0.0,0.0,0.0,0.0,0.0,0.0,0.0,0.0,0.0,0.0,0.0,0.0,0.0,0.0,0.0,0.0,0.0,0.0,0.0,0.0,0.0,0.0,0.0,1.4143,1.5335,1.7392,1.8791,1.9523,2.003,2.0095,1.9621,1.8926,1.8435,1.7985,1.5752,1.3987,1.2559,1.175,1.1363,0.0,0.0,0.0,0.0,0.0,0.0,0.0,0.0,0.0,0.0,0.0,0.0,0.0,0.0,0.0,0.0,0.0,0.0,0.0,0.0,0.0,0.0,0.0,0.0,0.0,0.0,0.0,0.0,0.0,0.0,0.0,0.0,0.0,0.0,0.0,0.0,0.0,0.6874,0.7101,0.0,0.7334,0.7224,0.7119,0.7172,0.7159,0.7214,0.7214,0.7631,0.7821,0.7723,0.8011,0.815,0.8109,0.8252,0.8859,0.9836,1.0651,1.1364,1.187,1.278,1.2638,1.1764,1.1764,1.1391,1.0848,1.0665,0.9453,0.7646,0.749,0.7513,0.7555,0.7503,0.758,0.7629,0.0,0.0,0.0,0.0,0.0,0.0,0.0,0.0,0.0,0.0,0.0,0.0,0.0,0.0,0.0,0.0,0.0,0.0,0.0,0.0,0.0,0.0,0.0,0.0,0.0,1.5126,1.6822,1.8065,1.9987,2.1199,2.1819,2.1979,2.1848,2.1336,2.0607,2.0025,1.9581,1.8281,1.6079,1.3432,1.229,1.187,1.1777,0.0,0.0,0.0,0.0,0.0,0.0,0.0,0.0,0.0,0.0,0.0,0.0,0.0,0.0,0.0,0.0,0.0,0.0,0.0,0.0,0.0,0.0,0.0,0.0,0.0,0.0,0.0,0.0,0.0,0.0,0.0,0.0,0.0,0.0,0.0,0.694,0.7399,0.7508,0.756,0.7683,0.7499,0.7432,0.7396,0.7595,0.7695,0.7743,0.8123,0.8296,0.8191,0.8381,0.8435,0.8343,0.8435,0.9231,1.0741,1.1671,1.261,1.3545,1.447,1.4316,1.3518,1.334,1.2915,1.2374,1.2297,1.1012,0.9216,0.9143,0.8792,0.8328,0.8478,0.8286,0.7902,0.0,0.0,0.0,0.0,0.0,0.0,0.0,0.0,0.0,0.0,0.0,0.0,0.0,0.0,0.0,0.0,0.0,0.0,0.0,0.0,0.0,0.0,0.0,0.0,1.5219,1.7647,1.9614,2.1083,2.2531,2.3429,2.3818,2.4717,2.4222,2.2781,2.3813,2.2357,1.8981,2.0127,1.8935,1.5974,1.371,1.2876,1.2768,0.0,0.0,0.0,0.0,0.0,0.0,0.0,0.0,0.0,0.0,0.0,0.0,0.0,0.0,0.0,0.0,0.0,0.0,0.0,0.0,0.0,0.0,0.0,0.0,0.0,0.0,0.0,0.0,0.0,0.0,0.0,0.0,0.0,0.6314,0.681,0.7339,0.7771,0.7757,0.7706,0.7563,0.7728,0.7872,0.7828,0.8116,0.8347,0.8489,0.8496,0.8492,0.8594,0.8492,0.8492,0.8594,0.8598,0.9403,1.0937,1.1043,1.2413,1.5047,1.5047,1.5015,1.4862,1.4501,1.3695,1.2484,1.2165,1.2073,1.1991,1.2198,1.1472,1.0285,1.0471,0.9719,0.8462,0.0,0.0,0.0,0.0,0.0,0.0,0.0,0.0,0.0,0.0,0.0,0.0,0.0,0.0,0.0,0.0,0.0,0.0,0.0,0.0,0.0,0.0,0.0,0.0,1.6733,1.9838,2.1967,2.3055,2.4684,2.5724,2.6126,2.5367,2.5264,2.5672,2.3817,2.3491,2.4198,2.2395,2.171,2.1225,1.6096,1.3908,1.3594,0.0,0.0,0.0,0.0,0.0,0.0,0.0,0.0,0.0,0.0,0.0,0.0,0.0,0.0,0.0,0.0,0.0,0.0,0.0,0.0,0.0,0.0,0.0,0.0,0.0,0.0,0.0,0.0,0.0,0.0,0.0,0.0,0.6739,0.6905,0.725,0.757,0.7941,0.8117,0.8261,0.822,0.8292,0.8402,0.8452,0.854,0.8655,0.8804,0.8815,0.9187,1.0229,0.9287,0.9291,1.0225,1.0353,1.119,1.2636,1.3704,1.5093,1.6924,1.6924,1.6879,1.6801,1.6717,1.6362,1.5865,1.5783,1.5016,1.3618,1.1601,1.0562,1.0083,0.9346,0.8898,0.8476,0.0,0.0,0.0,0.0,0.0,0.0,0.0,0.0,0.0,0.0,0.0,0.0,0.0,0.0,0.0,0.0,0.0,0.0,0.0,0.0,0.0,0.0,0.0,1.7676,1.9696,2.236,2.4343,2.5487,2.629,2.6865,2.7285,2.6342,2.6266,2.69,2.5172,2.4959,2.5673,2.3981,2.3049,2.2272,1.8432,1.6657,1.6111,1.4158,1.3601,1.3781,1.3193,1.3347,1.3748,1.3227,0.0,0.0,0.0,0.0,0.0,0.0,0.0,0.0,0.0,0.0,0.0,0.0,0.0,0.0,0.0,0.0,0.0,0.0,0.0,0.0,0.0,0.0,0.0,0.0,0.7007,0.7441,0.7753,0.7866,0.799,0.8275,0.8414,0.8533,0.8662,0.8672,0.8737,0.8882,0.8957,0.9028,0.912,0.9612,1.0331,1.1287,1.0916,1.1197,1.2027,1.2142,1.2969,1.4386,1.5361,1.6519,1.7963,1.7836,1.7776,0.0,1.6864,1.645,1.6188,1.5445,1.4578,0.0,0.0,0.0,0.0,0.0,0.8632,0.8577,0.0,0.0,0.0,0.0,0.0,0.0,0.0,0.0,0.0,0.0,0.0,0.0,0.0,0.0,0.0,0.0,0.0,0.0,0.0,0.0,0.0,1.5794,1.8029,2.0447,2.3155,2.5005,2.6514,2.7666,2.7324,2.7353,2.7725,2.7393,2.7226,2.7236,2.7285,2.6645,2.5555,2.5555,2.4049,2.1659,2.0964,2.0076,1.8989,1.6282,1.5371,1.5518,1.493,1.4596,1.4409,1.4282,0.0,0.0,0.0,0.0,0.0,0.0,0.0,0.0,0.0,0.0,0.0,0.0,0.0,0.0,0.0,0.0,0.0,0.0,0.0,0.0,0.0,0.0,0.0,0.0,0.7604,0.7967,0.8662,0.855,0.8492,0.8754,0.8665,0.8689,0.896,0.8988,0.9049,0.9195,0.9313,0.9388,0.9405,0.0,0.0,0.0,0.0,1.3515,1.3961,1.3961,1.463,1.5961,1.6303,1.7222,1.8484,1.8217,1.7968,1.7679,1.5864,1.5001,1.4641,1.3174,1.2373,1.2388,1.3915,1.2846,1.0353,0.9322,0.8852,0.8737,0.0,0.0,0.0,0.0,0.0,0.0,0.0,0.0,0.0,0.0,0.0,0.0,0.0,0.0,0.0,0.0,0.0,0.0,0.0,0.0,1.5997,1.7895,2.0527,2.2601,2.4199,2.6206,2.7412,2.7666,2.792,2.8096,2.8174,2.8428,2.8545,2.8564,2.8916,2.8953,2.8723,2.8723,2.8382,2.7623,2.4548,2.1294,1.8201,1.7116,1.676,1.6734,1.6146,1.6206,1.6413,1.5464,1.5418,1.5571,1.4442,0.0,0.0,0.0,0.0,0.0,0.0,0.0,0.0,0.0,0.0,0.0,0.0,0.0,0.0,0.0,0.0,0.0,0.0,0.0,0.0,0.7824,0.8238,0.8628,0.9011,0.9123,0.9188,0.9245,0.9225,0.9232,0.9289,0.9296,0.9357,0.951,0.9435,0.9435,0.9557,1.0654,0.0,1.3473,1.3558,1.4298,1.577,1.577,1.5887,1.6227,0.0,0.0,1.849,1.843,1.7592,1.6247,1.5916,1.4888,1.3628,1.326,1.2393,1.1307,1.1509,1.0605,0.9223,0.9037,0.892,0.8896,0.0,0.0,0.0,0.0,0.0,0.0,0.0,0.0,0.0,0.0,0.0,0.0,0.0,0.0,0.0,0.0,0.0,0.0,0.0,1.647,1.7742,2.0416,2.2465,2.4365,2.6022,2.711,2.7871,2.8291,2.8506,2.8721,2.8935,2.915,2.9248,2.9258,2.9473,2.957,2.957,2.957,2.9103,2.8249,2.6465,2.3481,2.0161,1.8476,1.7822,1.7782,1.7488,1.7375,1.7255,1.652,1.6273,1.6092,1.5064,1.4543,1.4102,0.0,0.0,0.0,0.0,0.0,0.0,0.0,0.0,0.0,0.0,0.0,0.0,0.0,0.0,0.7443,0.0,0.0,0.797,0.8418,0.8801,0.9127,0.9351,0.9507,0.9574,0.9503,0.9429,0.9439,0.9588,0.9537,0.9557,0.9703,0.9646,0.9986,1.0898,1.2035,1.3565,1.5412,1.5867,1.6585,1.7535,1.7654,1.7654,1.7654,1.8505,1.8931,1.8925,1.8771,1.7815,1.6186,1.5272,1.3922,1.2367,1.1611,1.0802,1.0136,1.0056,0.9525,0.9035,0.8964,0.8984,0.9035,0.0,0.0,0.0,0.0,0.0,0.0,0.0,0.0,0.0,0.0,0.0,0.0,0.0,0.0,0.0,0.0,0.0,0.0,0.0,1.7527,1.9417,2.2685,2.4325,2.6126,2.7891,2.7988,2.8369,2.9043,2.9043,2.9228,2.957,2.9658,2.9687,2.9697,2.9785,2.9824,2.9824,2.9824,2.9117,2.7939,2.7619,2.596,2.3371,2.0699,1.9291,1.8724,1.887,1.8266,1.7455,1.7161,1.6673,1.6072,1.5424,1.5137,1.4803,1.3628,1.3313,0.0,0.0,0.0,0.0,0.0,0.0,0.0,0.0,0.0,0.9859,1.0177,0.91,0.8114,0.8292,0.8438,0.857,0.896,0.9249,0.9479,0.9629,0.9747,0.9778,0.9663,0.954,0.9561,0.9798,0.9717,0.9696,0.9812,1.0061,1.0778,1.2097,1.379,1.5406,1.6956,1.8032,1.8718,1.9005,1.9011,1.9011,1.9011,1.9252,1.9366,1.9359,1.9118,1.7919,1.5988,1.3908,1.2342,1.0962,0.9695,0.9198,0.9198,0.9198,0.9215,0.9225,0.9079,0.9079,0.9137,0.0,0.0,0.0,0.0,0.0,0.0,0.0,0.0,0.0,0.0,0.0,0.0,0.0,0.0,0.0,0.0,0.0,0.0,1.6894,1.8598,2.0881,2.4108,2.6598,2.8184,2.8769,2.916,2.9404,2.9502,2.9502,2.9521,2.958,2.9951,3.0127,3.0146,3.0557,3.0742,3.0742,3.0742,3.0626,3.0345,2.863,2.7777,2.7204,2.4728,2.2037,1.978,2.0279,1.9063,1.7154,1.6854,1.6359,1.5905,1.6072,1.5772,1.5264,1.4836,0.0,1.2829,1.2325,1.187,1.1824,1.3001,1.2692,1.2621,0.0,0.0,1.3442,1.3641,1.2552,1.1286,1.0924,0.9815,0.9117,0.9303,0.9473,0.9635,0.9778,0.9812,0.9815,0.9798,0.9781,0.9785,0.9819,0.9805,0.9802,0.9819,1.114,1.1976,1.2213,1.4727,1.6466,1.6962,1.8218,1.9018,1.9319,1.9319,1.9319,1.9319,1.9352,1.9366,1.9366,1.9332,1.7633,1.4482,1.1285,0.9838,0.961,0.9476,0.9354,0.9354,0.9354,0.9439,0.954,0.9388,0.9256,0.915,0.0,0.0,0.0,0.0,0.0,0.0,0.0,0.0,0.0,0.0,0.0,0.0,0.0,0.0,0.0,0.0,0.0,0.0,1.6872,1.9644,2.2371,2.5093,2.7371,2.874,2.8916,2.9346,2.9687,2.9932,2.9932,3.0078,3.0342,3.0518,3.0605,3.0625,3.1064,3.1123,3.0908,3.1152,3.1113,3.0869,2.9957,2.9151,2.8156,2.713,2.4599,2.1639,2.1356,1.9979,0.0,0.0,1.6931,1.6407,1.6068,1.5732,1.5304,1.4843,1.4262,0.0,1.342,1.316,0.0,0.0,1.417,1.4575,1.5724,1.5147,1.4479,1.4778,1.3931,1.3076,1.2861,1.1733,1.0845,0.0,1.1191,1.1362,1.1534,1.2323,1.2816,1.2586,1.2573,1.1856,0.994,0.9822,1.0179,1.114,1.1856,1.3048,1.4945,1.6155,1.7328,1.8402,1.8886,1.9239,1.9366,1.9366,1.9366,1.9366,1.9366,1.9366,1.9366,1.9366,1.7634,1.434,1.1078,0.9591,0.9513,0.9513,0.9513,0.9513,0.9513,0.9605,0.9703,0.9466,0.9398,0.9395,0.0,0.0,0.0,0.0,0.0,0.0,0.0,0.0,0.0,0.0,0.0,0.0,0.0,0.0,0.0,0.0,0.0,0.0,0.0,1.9698,2.2749,2.5567,2.7559,2.874,2.9092,2.9521,2.9951,3.0391,3.0391,3.0566,3.0889,3.0889,3.0889,3.0898,3.1211,3.1172,3.0908,3.1211,3.1172,3.0879,3.0752,2.989,2.8639,2.8141,2.5971,2.3048,2.1887,2.0248,0.0,0.0,1.6454,1.5995,1.5447,1.5144,1.4856,1.4596,1.4349,1.4115,1.3901,0.0,0.0,1.475,1.5478,1.6192,1.6653,1.619,1.5799,1.6162,1.5332,1.4702,1.4767,1.3327,1.2306,1.2857,1.2765,1.2781,1.3421,1.425,1.4756,1.4533,1.4452,1.3495,1.1179,1.0631,1.0899,1.2093,1.2213,1.3426,1.6352,1.6831,1.7829,1.9606,1.9606,1.9606,1.9606,1.9606,1.9566,1.9486,1.9486,1.9446,1.9366,1.8887,1.7455,1.5074,1.1856,1.0357,1.0256,0.9786,0.9666,0.9666,0.9666,0.973,0.9795,0.9581,0.9547,0.9571,0.0,0.0,0.0,0.0,0.0,0.0,0.0,0.0,0.0,0.0,0.0,0.0,0.0,0.0,0.0,0.0,0.0,0.0,0.0,1.841,2.146,2.5509,2.7002,2.8281,2.9521,2.9961,3.04,3.0869,3.0869,3.0879,3.0889,3.0889,3.0889,3.0889,3.0898,3.0898,3.0889,3.0898,3.0898,3.085,3.04,2.9971,2.9424,2.7705,2.5645,2.3376,2.1645,0.0,0.0,0.0,1.4424,1.3824,1.411,1.3935,0.0,1.4355,1.3915,0.0,0.0,0.0,1.4362,1.5504,1.6239,1.6907,1.7796,1.7875,1.8034,1.8632,1.7483,1.6518,1.6885,1.4336,1.2746,1.464,1.3582,1.3101,1.4694,1.4751,1.4523,1.4291,1.3954,1.3794,0.0,1.2931,1.2093,1.2213,1.2213,1.3013,1.4907,1.649,1.819,2.0079,2.0207,2.0207,2.0207,2.0207,2.0067,1.9786,1.9786,1.9639,1.9366,1.78,1.6968,1.6727,1.3522,1.2093,1.1968,1.0411,0.9815,0.9815,0.9815,0.9819,0.9819,0.9812,0.9724,0.9588,0.0,0.0,0.0,0.0,0.0,0.0,0.0,0.0,0.0,0.0,0.0,0.0,0.0,0.0,0.0,0.0,0.0,0.0,0.0,1.8286,2.1284,2.3516,2.5937,2.7568,2.8291,2.8994,2.957,3.001,3.0293,3.043,3.0439,3.0742,3.0889,3.0898,3.1182,3.1152,3.0908,3.1182,3.0967,3.0361,2.9639,2.9101,2.8506,2.6284,2.4365,2.2505,0.0,0.0,0.0,0.0,0.0,0.0,1.3423,0.0,0.0,1.3227,0.0,0.0,0.0,0.0,1.6112,1.7301,1.8036,1.8651,1.9339,1.9339,1.9205,1.9219,1.8438,1.7796,1.7706,1.6119,1.474,1.453,1.5439,1.5984,1.5666,1.74,1.8378,1.7744,1.7744,0.0,0.0,0.0,0.0,1.529,1.5563,1.6412,1.8086,1.8867,1.951,2.0227,2.0234,2.0234,2.0234,2.004,1.9993,2.0087,1.9893,1.9746,1.9646,1.7762,1.6968,1.6844,1.4718,1.3765,1.3646,1.2097,1.1378,1.1257,1.0179,0.9822,0.9822,0.9822,0.9791,0.9717,0.0,0.0,0.0,0.0,0.0,0.0,0.0,0.0,0.0,0.0,0.0,0.0,0.0,0.0,0.0,0.0,0.0,0.0,0.0,0.0,1.9678,2.1209,2.3359,2.4902,2.5703,2.6201,2.6836,2.7725,2.8154,2.8525,2.8848,2.9297,2.959,2.9756,3.0019,3.0078,2.9971,3.0088,2.9629,2.8641,2.7785,2.6919,2.5828,2.3794,2.1968,0.0,0.0,0.0,0.0,0.0,0.0,0.0,0.0,0.0,0.0,0.0,0.0,0.0,0.0,1.6426,1.7435,1.8531,1.9245,1.9746,2.0013,1.9853,1.9533,1.9138,1.8671,1.8243,1.7936,1.6621,1.5655,1.5676,1.654,1.7177,1.7241,1.8919,1.988,1.9419,1.9439,1.9265,0.0,0.0,0.0,1.6956,1.6726,1.727,1.9082,1.9357,1.9808,2.0541,2.0548,2.0548,2.0548,2.0361,2.0307,2.0388,1.9987,1.98,1.9786,1.8406,1.7806,1.7806,1.6144,1.5429,1.5311,1.3048,1.2213,1.2097,1.0418,0.9822,0.9822,0.9822,0.9822,0.9785,0.0,0.0,0.0,0.0,0.0,0.0,0.0,0.0,0.0,0.0,0.0,0.0,0.0,0.0,0.0,0.0,0.0,0.0,0.0,0.0,0.0,1.8807,1.9535,2.0586,2.209,2.1948,2.2646,2.4287,2.4717,2.5371,2.6201,2.6621,2.7031,2.7432,2.7432,2.7656,2.8008,2.7607,2.6841,2.5788,2.4938,2.3534,2.1768,2.0518,0.0,0.0,0.0,0.0,0.0,0.0,0.0,0.0,0.0,0.0,0.0,0.0,0.0,1.5251,1.6139,1.7235,1.8337,1.9219,1.986,2.0194,1.9893,1.9586,1.9199,1.8591,1.8196,1.7862,0.0,0.0,1.5605,1.7987,1.6925,1.6824,1.9338,1.9269,1.9132,0.0,0.0,0.0,0.0,0.0,0.0,1.7244,0.0,1.6021,1.7988,1.825,1.9274,2.1096,2.1109,2.1109,2.1109,2.1109,2.0962,2.0668,2.0094,1.982,1.9813,1.9506,1.9366,1.9366,1.7806,1.7085,1.685,1.3641,1.2333,1.2093,1.0418,0.9822,0.9822,0.9822,0.9822,0.9802,0.0,0.0,0.0,0.0,0.0,0.0,0.0,0.0,0.0,0.0,0.0,0.0,0.0,0.0,0.0,0.0,0.0,0.0,0.0,0.0,0.0,0.0,0.0,0.0,0.0,0.0,0.0,0.0,0.0,2.3095,2.3328,2.3745,2.4098,2.4307,2.4205,2.4254,2.4443,2.4244,2.3793,2.3142,0.0,2.1244,2.048,0.0,0.0,0.0,0.0,0.0,0.0,0.0,0.0,0.0,0.0,0.0,1.3935,0.0,0.0,1.6506,1.7622,1.8778,1.9773,2.0227,2.0615,2.0748,2.0241,1.9733,1.9138,1.8323,1.7395,1.6633,0.0,0.0,0.0,1.6217,1.766,0.0,1.8857,1.9878,0.0,2.0054,0.0,2.006,1.9619,1.984,0.0,0.0,1.9089,1.9248,1.9911,2.0197,2.0637,2.1109,2.1109,2.1109,2.1109,2.1109,2.0962,2.0675,2.0301,2.012,2.0107,1.9599,1.9366,1.9366,1.9004,1.8765,1.8525,1.5311,1.4004,1.3765,1.0899,0.9822,0.9822,0.9822,0.9822,0.9815,0.0,0.0,0.0,0.0,0.0,0.0,0.0,0.0,0.0,0.0,0.0,0.0,0.0,0.0,0.0,0.0,0.0,0.0,0.0,0.0,0.0,0.0,0.0,0.0,0.0,0.0,0.0,0.0,0.0,0.0,0.0,2.0639,2.1124,2.1583,2.1491,2.1588,2.1752,0.0,0.0,0.0,0.0,0.0,0.0,0.0,0.0,0.0,0.0,0.0,0.0,0.0,0.0,1.318,1.34,1.4195,1.5164,1.5752,0.0,1.7749,1.8931,1.9826,2.0528,2.0955,2.0989,2.0735,2.0013,1.9399,1.8657,1.7508,1.6633,0.0,0.0,0.0,0.0,0.0,0.0,0.0,1.8975,1.9905,2.0508,0.0,2.0575,0.0,2.0034,2.0254,2.0428,0.0,2.0428,2.0501,2.0668,2.0949,2.1109,2.1109,2.1109,2.1109,2.1109,2.1109,2.1029,2.0862,2.0434,2.0234,2.0214,1.9633,1.9366,1.9366,0.0,1.9004,1.8169,1.5671,1.4123,1.3292,1.0778,0.9822,0.9822,0.9822,0.9822,0.9822,0.0,0.0,0.0,0.0,0.0,0.0,0.0,0.0,0.0,0.0,0.0,0.0,0.0,0.0,0.0,0.0,0.0,0.0,0.0,0.0,0.0,0.0,0.0,0.0,0.0,0.0,0.0,0.0,0.0,0.0,0.0,0.0,0.0,0.0,0.0,0.0,0.0,0.0,0.0,0.0,0.0,0.0,0.0,0.0,0.0,0.0,0.0,0.0,0.0,0.0,1.3367,1.4128,1.4897,1.5798,1.6673,1.7221,1.8016,1.8958,2.0054,2.0568,2.0915,2.1423,2.1082,2.0381,1.9459,1.8764,1.7903,1.6453,0.0,1.5511,1.505,1.4997,1.5418,1.6627,0.0,1.7936,1.9673,1.992,2.012,2.0668,2.0735,2.0635,2.0374,2.0581,2.0735,2.0735,2.0735,2.0735,2.0735,2.0969,2.1109,2.1109,2.1109,2.1109,2.1109,2.1109,2.1109,2.1102,2.0514,2.0234,2.0214,1.9633,1.9366,1.9366,0.0,0.0,1.685,1.5311,1.3651,1.2097,1.0418,0.9822,0.9822,0.9822,0.994,1.0061,0.0,0.0,0.0,0.0,0.0,0.0,0.0,0.0,0.0,0.0,0.9159,0.8811,0.0,0.0,0.0,0.0,0.0,0.0,0.0,0.0,0.0,0.0,0.0,0.0,0.0,0.0,0.0,0.0,0.0,0.0,0.0,0.0,0.0,0.0,0.0,0.0,0.0,0.0,0.0,0.0,0.0,0.0,0.0,0.0,0.0,0.0,0.0,0.0,0.0,0.0,1.4522,1.5845,1.5999,1.6994,1.8176,1.8517,1.9239,2.008,2.0768,2.1176,2.1423,2.153,2.0929,2.0013,1.8898,1.7989,0.0,0.0,0.0,1.479,1.4937,1.5157,1.5785,1.7201,0.0,0.0,0.0,0.0,2.0648,0.0,0.0,0.0,0.0,0.0,0.0,0.0,0.0,2.1036,2.1036,2.1082,2.1109,2.1109,2.1109,2.1109,2.1109,2.1109,2.1109,2.1102,2.0514,2.0234,2.0214,1.9633,1.9366,1.9366,1.9366,0.0,1.685,1.5311,1.3651,1.2097,1.0418,0.9822,0.9822,0.9822,1.066,1.1615,0.0,0.0,0.0,0.0,0.0,0.0,0.0,1.0287,0.9885,0.9892,0.9659,0.9432,0.9279,0.8991,0.0,0.0,0.0,0.0,0.0,0.0,0.0,0.0,0.0,0.0,0.0,0.0,0.0,0.0,0.0,0.0,0.0,0.0,0.0,0.0,0.0,0.0,0.0,0.0,0.0,0.0,0.0,0.0,0.0,0.0,0.0,0.0,0.0,0.0,0.0,0.0,1.4556,1.638,1.7001,1.8003,1.9032,1.9472,2.0013,2.0628,2.1363,2.167,2.1777,2.1777,2.0882,1.97,1.8531,0.0,0.0,0.0,0.0,1.4516,1.4509,0.0,0.0,0.0,0.0,0.0,0.0,0.0,0.0,0.0,0.0,0.0,0.0,0.0,0.0,0.0,0.0,2.1109,2.1109,2.1109,2.1109,2.1109,2.1109,2.1109,2.1109,2.1109,2.1109,2.1102,2.0514,2.0234,2.0214,1.9633,1.9366,1.9366,1.9366,0.0,1.5666,1.496,1.3172,1.0899,1.0058,1.0301,1.102,1.102,1.2097,1.3292,0.0,0.0,0.0,0.0,0.0,0.0,0.0,1.0539,1.0172,1.0369,1.0287,1.0181,1.0064,0.9401,0.9404,0.0,0.0,0.0,0.0,0.0,0.0,0.0,0.0,0.0,0.0,0.0,0.0,0.0,0.0,0.0,0.0,0.0,0.0,0.0,0.0,0.0,0.0,0.0,0.0,0.0,0.0,0.0,0.0,0.0,0.0,0.0,0.0,0.0,0.0,0.0,1.4062,1.5919,1.7101,1.8303,1.9352,1.9746,2.0247,2.0842,2.159,2.1844,2.1891,2.1891,2.0742,1.9319,1.8203,1.6934,0.0,0.0,1.4376,1.4302,1.4202,0.0,0.0,0.0,0.0,0.0,0.0,0.0,0.0,0.0,0.0,0.0,0.0,0.0,0.0,0.0,0.0,0.0,2.1109,2.1109,2.1109,2.1109,2.1109,2.1109,2.1109,2.1109,2.1076,2.1009,2.0488,2.0201,2.012,1.9606,1.9366,1.9366,1.9366,0.0,0.0,1.4723,1.2933,1.0301,0.994,1.0778,1.2213,1.2213,1.3407,1.5079,0.0,0.0,0.0,0.0,0.0,0.0,0.0,1.0279,1.0403,1.1196,1.0848,1.0752,1.1203,1.0244,1.0043,0.0,0.0,0.0,0.0,0.0,0.0,0.0,0.0,0.0,0.0,0.0,0.0,0.0,0.0,0.0,0.0,0.0,0.0,0.0,0.0,0.0,0.0,0.0,0.0,0.0,0.0,0.0,0.0,0.0,0.0,0.0,0.0,0.0,0.0,0.0,0.0,1.4088,1.5271,1.7168,1.8925,1.8711,0.0,0.0,2.1096,2.1383,2.159,2.159,2.0287,1.8764,1.7836,0.0,0.0,1.4255,1.3915,1.3874,1.4389,0.0,0.0,0.0,0.0,0.0,0.0,0.0,0.0,0.0,0.0,0.0,0.0,0.0,0.0,0.0,0.0,0.0,2.1109,2.1109,2.1109,2.1109,2.1109,2.1109,2.1109,2.1109,2.0975,2.0715,2.0388,2.0094,1.9826,1.9512,1.9366,1.9366,1.9366,0.0,0.0,1.5192,1.3526,1.1856,1.0422,1.0778,1.2213,1.2213,1.4118,1.6374,0.0,0.0,0.0,0.0,0.0,0.0,1.047,0.9957,0.9967,1.1029,1.1132,1.1358,1.1911,1.1436,1.1094,0.0,0.0,0.0,0.0,0.0,0.0,0.0,0.0,0.0,0.0,0.0,0.0,0.0,0.0,0.0,0.0,0.0,0.0,0.0,0.0,0.0,0.0,0.0,0.0,0.0,0.0,0.0,0.0,0.0,0.0,0.0,0.0,0.0,0.0,0.0,0.0,0.0,1.344,1.4796,0.0,0.0,1.8865,2.0027,2.0675,2.1323,2.173,2.1376,2.0094,1.8644,1.7562,0.0,1.4583,1.4168,1.3848,1.3768,1.4182,0.0,0.0,0.0,0.0,0.0,0.0,0.0,0.0,0.0,0.0,0.0,0.0,0.0,0.0,0.0,0.0,0.0,2.1109,2.1109,2.1109,2.1109,2.1109,2.1109,2.1109,2.1109,2.0962,2.0675,2.0374,2.008,1.9786,1.9499,1.9366,1.9366,1.9366,0.0,0.0,1.6256,1.4475,1.2097,1.1499,1.2213,1.3646,1.3646,1.5666,1.8286,0.0,0.0,0.0,0.0,0.0,1.0391,1.0251,0.987,0.9927,1.0755,1.1262,1.1737,1.221,1.2022,1.1789,1.1713,1.1437,0.0,0.0,0.0,0.0,0.0,0.0,0.0,0.0,0.0,0.0,0.0,0.0,0.0,0.0,0.0,0.0,0.0,0.0,0.0,0.0,0.0,0.0,0.0,0.0,0.0,0.0,0.0,0.0,0.0,0.0,0.0,0.0,0.0,0.0,0.0,0.0,0.0,0.0,0.0,1.7709,1.8905,1.9786,2.0675,2.1236,2.0828,1.9619,1.8263,0.0,0.0,1.4202,1.3995,1.3721,1.3607,1.3901,1.3853,0.0,0.0,0.0,1.4889,1.6182,0.0,0.0,0.0,0.0,0.0,0.0,0.0,0.0,0.0,0.0,0.0,0.0,2.1109,2.1109,2.1109,2.1109,2.1109,2.1109,2.1022,2.0835,2.0541,2.0247,1.9953,1.9666,1.9459,1.9366,1.9366,0.0,0.0,0.0,1.7202,1.566,1.3522,1.3048,1.3885,1.5311,1.5311,1.7097,1.9249,0.0,0.0,0.0,0.0,0.0,0.0,0.9758,1.0235,1.0611,1.0624,1.1311,1.1821,1.1905,1.1781,1.1982,1.2602,1.184,0.0,0.0,0.0,0.0,0.0,0.0,0.0,0.0,0.0,0.0,0.0,0.0,0.0,0.0,0.0,0.0,0.0,0.0,0.0,0.0,0.0,0.0,0.0,0.0,0.0,0.0,0.0,0.0,0.0,0.0,0.0,0.0,0.0,0.0,0.0,0.0,0.0,0.0,0.0,1.6025,1.7368,1.827,1.9152,1.982,1.9813,1.8698,1.7442,0.0,0.0,1.3654,1.3647,1.3414,1.3307,1.3594,1.3888,1.4182,1.4476,0.0,0.0,0.0,0.0,0.0,0.0,0.0,0.0,0.0,0.0,0.0,0.0,0.0,0.0,0.0,2.1109,2.1109,2.1109,2.1109,2.1109,2.1109,2.0822,2.0535,2.0234,1.9947,1.9653,1.9372,1.9366,1.9366,0.0,0.0,0.0,0.0,1.7683,1.6968,1.685,1.5192,1.5548,1.6968,1.6968,1.8046,1.8887,0.0,0.0,0.0,0.0,0.0,0.0,0.0,0.9239,0.9506,0.9913,1.0427,1.1017,1.1795,1.1487,1.1604,1.2611,1.2204,0.0,0.0,0.0,0.0,0.0,0.0,0.0,0.0,0.0,0.0,0.0,0.0,0.0,0.0,0.0,0.0,0.0,0.0,0.0,0.0,0.0,0.0,0.0,0.0,0.0,0.0,0.0,0.0,0.0,0.0,0.0,0.0,0.0,0.0,0.0,0.0,0.0,0.0,0.0,0.0,0.0,1.6486,1.7168,1.7635,1.7442,1.6881,1.6179,1.5391,0.0,1.3587,1.3387,1.3106,1.3046,1.3547,1.3467,1.3672,1.471,1.4545,0.0,0.0,0.0,0.0,0.0,0.0,0.0,0.0,0.0,0.0,0.0,0.0,0.0,0.0,2.1109,2.1109,2.1109,2.0915,2.0909,2.1109,2.0621,2.0327,2.0227,1.994,1.9646,1.9366,1.9366,0.0,0.0,0.0,0.0,0.0,1.8887,1.804,1.6968,1.6492,1.6492,1.6968,1.6968,1.8046,1.9127,0.0,0.0,0.0,0.0,0.0,0.0,0.0,0.8898,0.9058,0.9319,0.9818,1.0457,1.1153,1.0981,1.1226,1.228,1.2052,0.0,0.0,0.0,0.0,0.0,0.0,0.0,0.0,0.0,0.0,0.9953,0.0,0.0,0.0,0.0,0.0,0.0,0.0,0.0,0.0,0.0,0.0,0.0,0.0,0.0,1.0408,0.0,0.0,0.0,0.0,0.0,0.0,0.0,0.0,0.0,0.0,0.0,0.0,0.0,0.0,0.0,0.0,1.5664,1.6069,1.5985,1.5638,0.0,0.0,0.0,1.3253,1.3073,1.2879,1.2936,1.3233,1.3163,1.3406,1.4203,1.4116,0.0,0.0,0.0,0.0,0.0,0.0,0.0,0.0,0.0,0.0,0.0,0.0,0.0,0.0,2.1109,2.1056,2.0949,2.0768,2.0708,2.0775,2.0307,2.0067,2.0067,1.9773,1.9539,1.9366,1.9366,0.0,0.0,0.0,0.0,0.0,1.9366,1.8765,1.7923,1.7923,1.7923,1.7923,1.7923,1.8525,1.9127,0.0,0.0,0.0,0.0,0.0,0.0,0.0,0.9031,0.9057,0.8844,0.9517,1.006,1.0154,1.0248,1.0764,1.1747,0.0,0.0,0.0,0.0,0.0,0.0,0.0,0.0,0.0,0.8804,0.9098,0.9686,0.9973,1.0342,1.0721,1.0927,0.0,0.0,0.0,0.0,0.0,0.0,0.0,0.0,0.0,0.0,0.0,0.0,0.0,0.0,0.0,0.0,0.0,0.0,0.0,0.0,0.0,0.0,0.0,0.0,0.0,0.0,0.0,0.0,0.0,0.0,0.0,0.0,0.0,0.0,0.0,1.2795,1.2788,1.2808,1.2799,1.3088,1.3307,1.3391,1.3803,0.0,0.0,0.0,0.0,0.0,0.0,0.0,0.0,0.0,0.0,0.0,0.0,0.0,0.0,2.1076,2.0935,2.0498,2.0608,2.0494,2.0234,1.9927,1.978,1.98,1.9506,1.9366,1.9366,1.9366,0.0,0.0,0.0,0.0,0.0,1.9366,1.9366,1.9366,1.9366,1.9366,1.9366,1.9366,1.9366,1.8765,0.0,0.0,0.0,0.0,0.0,0.0,0.0,0.0,0.0,0.0,0.8971,0.927,0.9671,0.9762,1.0205,0.0,0.0,0.0,0.0,0.0,0.0,0.0,0.0,0.0,0.0,0.8804,0.9098,0.9686,0.9973,1.0684,1.1783,1.179,1.1759,1.1534,0.0,0.0,0.0,0.0,0.0,0.0,0.0,0.0,0.0,0.0,0.0,0.0,1.0624,1.0624,0.0,0.0,0.0,0.0,0.0,0.0,0.0,0.0,1.2077,0.0,0.0,0.0,0.0,0.0,0.0,0.0,0.0,0.0,0.0,0.0,0.0,1.2543,1.3067,1.2879,1.2934,1.3879,1.3835,0.0,0.0,0.0,0.0,0.0,0.0,0.0,0.0,0.0,0.0,0.0,0.0,0.0,0.0,2.0775,2.0028,1.8282,1.938,2.008,2.0234,1.9726,1.9579,1.98,1.9506,1.9366,1.9366,1.9366,0.0,0.0,0.0,0.0,1.9366,1.9366,1.9366,1.9366,1.9366,1.9366,1.9366,1.9366,1.8642,1.7325,0.0,0.0,0.0,0.0,0.0,0.0,0.0,0.0,0.0,0.0,0.0,0.0,0.0,0.0,0.0,0.0,0.0,0.0,0.0,0.0,0.0,0.0,0.0,0.0,0.0,0.8804,0.9225,1.0087,1.0247,1.1065,1.252,1.2306,1.219,1.2097,1.2061,0.0,0.0,0.0,0.0,0.0,0.0,0.0,0.0,0.0,0.0,0.0,1.0624,1.0624,0.0,1.1229,1.1423,1.153,0.0,0.0,0.0,0.0,1.1807,1.1516,1.1668,1.1713,1.1759,0.0,0.0,0.0,0.0,0.0,0.0,0.0,0.0,1.2492,1.2956,1.2737,0.0,0.0,1.3709,0.0,0.0,0.0,0.0,0.0,0.0,0.0,0.0,0.0,0.0,0.0,0.0,0.0,0.0,2.0035,1.8889,1.7481,1.7481,1.7973,1.8728,1.9161,1.9446,1.9599,1.9446,1.9366,1.9366,1.9366,1.9366,0.0,0.0,0.0,1.9366,1.9366,1.9366,1.9366,1.9366,1.9366,1.9366,1.9366,1.8402,1.6733,0.0,0.0,0.0,0.0,0.0,0.0,0.0,0.0,0.0,0.0,0.0,0.0,0.0,0.0,0.0,0.0,0.0,0.0,0.0,0.0,0.0,0.0,0.0,0.0,0.8804,0.8804,0.9319,1.0361,1.0724,1.1586,1.3033,1.2975,1.2721,1.2373,1.2035,0.0,0.0,0.0,0.0,0.0,1.1437,0.0,0.0,0.0,0.0,0.0,0.0,0.0,0.0,1.1182,1.1363,1.1456,1.1997,0.0,0.0,0.0,0.0,0.0,1.128,1.1564,1.1831,1.1941,0.0,0.0,0.0,0.0,0.0,0.0,0.0,0.0,0.0,0.0,0.0,0.0,0.0,0.0,0.0,0.0,0.0,0.0,0.0,0.0,0.0,0.0,0.0,0.0,0.0,0.0,0.0,1.9013,1.7784,1.6943,1.5602,1.5387,1.6256,1.7812,1.8648,1.8648,1.8887,1.9004,1.9004,1.9249,1.9366,0.0,0.0,0.0,1.9366,1.9366,1.9366,1.9366,1.9366,1.9366,1.9366,1.9366,1.8286,1.6374,0.0,0.0,0.0,0.0,0.0,0.0,0.0,0.0,0.0,0.0,0.0,0.0,0.0,0.0,0.0,0.0,0.0,0.0,0.0,0.0,0.0,0.0,0.0,0.8804,0.8804,0.8804,0.9018,0.9439,1.1167,1.2466,1.3292,1.4618,1.4706,1.36,1.2525,1.2095,1.2168,1.2544,1.2511,1.2175,0.0,0.0,0.0,0.0,0.0,0.0,0.0,0.0,0.0,1.0949,1.1056,1.1122,1.1456,0.0,0.0,0.0,0.0,0.0,1.1016,1.1496,1.1787,1.1389,1.1403,0.0,0.0,0.0,0.0,0.0,0.0,0.0,0.0,0.0,0.0,0.0,0.0,0.0,0.0,0.0,0.0,0.0,0.0,0.0,0.0,0.0,0.0,0.0,0.0,0.0,0.0,1.8449,1.6725,1.5137,1.4774,1.4157,1.2928,1.448,1.5316,1.5316,1.6733,1.7325,1.7443,1.8765,1.9366,0.0,0.0,1.9366,1.9366,1.9366,1.9366,1.9366,1.9366,1.9366,1.9366,1.9366,1.7578,1.4599,0.0,0.0,0.0,0.0,0.0,0.0,0.0,0.0,0.0,0.0,0.0,0.0,0.0,0.0,0.0,0.0,0.0,0.0,0.0,0.0,0.0,0.0,0.8804,0.8878,0.9038,0.9198,0.9653,1.0421,1.221,1.3608,1.46,1.5154,1.4764,1.3516,1.2525,1.1927,1.1687,1.1864,1.1682,1.1318,0.0,0.0,0.0,0.0,0.0,0.0,0.0,0.0,0.0,0.0,1.0995,1.1042,1.1336,0.0,0.0,0.0,0.0,0.0,1.0673,1.0759,1.0857,1.101,0.0,1.2018,1.1864,0.0,0.0,0.0,0.0,0.0,0.0,0.0,0.0,0.0,0.0,0.0,0.0,0.0,0.0,0.0,0.0,0.0,0.0,0.0,0.0,0.0,0.0,0.0,0.0,0.0,1.5611,1.455,1.2776,1.1553,1.0635,1.1451,1.2722,1.4604,1.5311,1.5666,1.5784,1.7331,1.8046,1.8163,0.0,1.9366,1.9366,1.9366,1.9366,1.9366,1.9366,1.9366,1.9249,1.7455,1.5913,1.4128,0.0,0.0,0.0,0.0,0.0,0.0,0.0,0.0,0.0,0.0,0.0,0.0,0.0,0.0,0.0,0.0,0.0,0.0,0.0,0.0,0.8903,0.8811,0.8804,0.8971,0.9339,0.9633,1.0287,1.1323,1.3263,1.4715,1.5799,1.5221,1.4313,1.3112,1.2295,1.1678,1.1267,1.1167,1.0844,1.0515,0.0,0.0,0.0,0.0,0.0,0.0,0.0,0.0,0.0,0.0,0.0,0.0,0.0,0.0,0.0,1.089,1.0634,1.045,1.0381,1.0244,1.0245,1.0734,0.0,1.2056,1.2201,0.0,0.0,0.0,0.0,0.0,0.0,0.0,0.0,0.0,0.0,0.0,0.0,0.0,0.0,0.0,0.0,0.0,0.0,0.0,0.0,0.0,0.0,0.0,0.0,0.0,1.4738,1.4392,1.1204,0.95,0.9384,0.9381,1.079,1.3461,1.3812,1.3955,1.4123,1.6138,1.6968,1.7085,1.8577,1.9265,1.9259,1.9192,1.9205,1.9259,1.9185,1.8968,1.8436,1.565,1.4366,1.3646,0.0,0.0,0.0,0.0,0.0,0.0,0.0,0.0,0.0,0.0,0.0,0.0,0.0,0.0,0.0,0.0,0.0,0.0,0.0,0.0,0.9309,0.8804,0.8804,0.9072,0.9639,0.9933,1.0394,1.1022,1.3874,1.5602,1.6211,1.5086,1.3892,1.269,1.1754,1.1326,1.1267,1.0685,1.0455,1.0515,1.0515,0.0,0.0,0.0,0.0,0.0,0.0,0.0,0.0,0.0,0.0,0.0,0.0,0.0,1.0615,0.0,1.0334,1.0328,1.0199,1.0522,1.0735,1.0386,1.0355,0.0,1.2434,1.2531,0.0,0.0,0.0,0.0,0.0,0.0,0.0,0.0,0.0,0.0,0.0,0.0,0.0,0.0,0.0,0.0,0.0,0.0,0.0,0.0,0.0,0.0,0.0,0.0,0.0,1.4381,1.1197,0.9391,0.9381,0.9381,0.958,0.9975,1.1488,1.2281,1.2453,1.5542,1.6968,1.7073,1.8365,1.8958,1.8938,1.8664,1.8711,1.8925,1.8657,1.7792,1.6518,1.5114,1.3651,1.2097,0.0,0.0,0.0,0.0,0.0,0.0,0.0,0.0,0.0,0.0,0.0,0.0,0.0,0.0,0.0,0.0,0.0,0.0,0.0,0.0,0.9008,0.8811,0.8804,0.9078,0.9666,1.0327,1.1395,1.2942,1.5184,1.6254,1.6294,1.5084,1.3684,1.2175,1.1592,1.0905,1.0233,1.002,0.9933,1.002,1.002,1.0267,0.0,0.0,0.0,0.0,0.0,0.0,0.0,0.0,1.0624,0.0,0.0,0.0,0.0,0.0,0.0,1.0288,1.0097,1.0347,1.0645,1.064,1.0666,0.0,0.0,0.0,0.0,0.0,0.0,0.0,0.0,0.0,0.0,0.0,0.0,0.0,0.0,0.0,0.0,0.0,0.0,0.0,0.0,0.0,0.0,0.0,0.0,0.0,0.0,0.0,0.0,1.3964,1.096,0.9195,0.9106,0.9106,0.9181,0.9327,1.0109,1.042,1.048,1.2798,1.4184,1.5221,1.69,1.8,1.8657,1.8731,1.8718,1.8644,1.8537,1.8315,1.7647,1.5289,1.4124,1.3287,0.0,0.0,0.0,0.0,0.0,0.0,0.0,0.0,0.0,0.0,0.0,0.0,0.0,0.0,0.0,0.0,0.0,0.0,0.0,0.8804,0.8804,0.8804,0.8804,0.9078,0.9666,1.0787,1.2154,1.3719,1.5536,1.6192,1.5725,1.4646,1.3323,1.1815,1.1195,1.0512,0.9853,0.9499,0.9515,0.9813,0.9719,1.0033,0.0,0.0,0.0,0.0,0.0,0.0,0.0,0.0,0.0,0.0,0.0,0.0,0.0,0.0,0.0,0.0,0.9662,0.9901,1.0187,0.0,0.0,0.0,1.2127,0.0,0.0,0.0,0.0,0.0,0.0,0.0,0.0,0.0,0.0,0.0,0.0,0.0,0.0,0.0,0.0,0.0,0.0,0.0,0.0,0.0,0.0,0.0,0.0,0.0,0.0,0.0,1.0358,0.8944,0.8798,0.8794,0.8845,0.8944,0.9539,0.9692,0.9497,1.1097,1.2575,1.405,1.5722,1.7266,1.8357,1.8457,1.8384,1.8223,1.7955,1.7521,1.694,1.4436,1.3302,1.2733,0.0,0.0,0.0,0.0,0.0,0.0,0.0,0.0,0.0,0.0,0.0,0.0,0.0,0.0,0.0,0.0,0.0,0.0,0.0,0.8804,0.8804,0.8804,0.8804,0.9078,0.9659,1.1267,1.2388,1.3042,1.4787,1.5193,1.4497,1.3812,1.2837,1.1657,1.0586,1.0224,1.0407,0.9261,0.9312,1.0087,0.98,1.0094,1.0624,0.0,0.0,0.0,0.0,0.0,0.0,0.0,0.0,0.0,0.0,0.0,0.0,0.0,0.9472,0.919,0.903,0.9181,0.0,0.0,0.0,0.0,0.0,0.0,0.0,0.0,0.0,0.0,0.0,0.0,0.0,0.0,0.0,0.0,0.0,0.0,0.0,0.0,0.0,0.0,0.0,0.0,0.0,0.0,0.0,0.0,0.0,0.0,0.0,0.0,0.9637,0.8635,0.8482,0.8482,0.8482,0.8587,1.0103,1.0355,0.949,1.1093,1.257,1.3911,1.5248,1.6696,1.7908,1.7709,1.7582,1.753,1.6649,1.5133,1.3436,1.2369,1.1,0.9629,0.0,0.0,0.0,0.0,0.0,0.0,0.0,0.0,0.0,0.0,0.0,0.0,0.0,0.0,0.0,0.0,0.0,0.0,0.0,0.8804,0.8804,0.8804,0.8804,0.8884,0.9065,1.0853,1.2639,1.4421,1.4976,1.4709,1.3653,1.295,1.1969,1.0753,1.0497,0.9966,0.9329,0.9573,1.0043,1.0501,1.0336,1.0671,1.1178,0.0,0.0,0.0,0.0,0.0,0.0,0.0,0.0,0.0,0.0,0.0,0.0,0.9432,0.9459,0.9552,0.9495,0.0,0.0,0.0,0.0,0.0,0.0,0.0,0.0,0.0,0.0,0.0,0.0,0.0,0.0,0.0,0.0,0.0,0.0,0.0,0.0,0.0,0.0,0.0,0.0,0.0,0.0,0.0,0.0,0.0,0.0,0.0,0.0,0.0,0.9406,0.8526,0.8482,0.9414,0.9823,0.9823,1.1327,1.089,0.8913,1.0556,1.1492,1.1935,1.2562,1.3507,1.4775,1.5672,1.6062,1.608,1.5803,1.5493,1.4939,1.2393,1.14,1.0953,0.0,0.0,0.0,0.0,0.0,0.0,0.0,0.0,0.0,0.0,0.0,0.0,0.0,0.0,0.0,0.0,0.0,0.0,0.0,0.0,0.8804,0.8804,0.8804,0.9071,0.9575,1.0527,1.1903,1.368,1.4267,1.4041,1.2894,1.2358,1.1567,1.0623,1.0709,1.0329,0.9639,1.0235,1.0751,1.1176,1.0974,1.1145,1.1483,0.0,0.0,0.0,0.0,0.0,0.0,0.0,0.0,0.0,0.0,0.0,0.0,0.8985,0.8938,0.8985,0.8985,0.0,0.0,0.0,0.0,0.0,0.0,0.0,0.0,0.0,0.0,0.0,0.0,0.0,0.0,0.0,0.0,0.0,0.0,0.0,0.0,0.0,0.0,0.0,0.0,0.0,0.0,0.0,0.0,0.0,0.0,0.0,0.0,0.0,0.9923,0.9179,0.9119,1.0327,1.0729,1.0226,1.2223,1.1825,0.9369,1.0452,1.0995,1.1112,1.1845,1.2626,1.3372,1.4234,1.4556,1.4556,1.3906,1.3779,1.3691,1.1346,1.0556,1.0661,0.0,0.0,0.0,0.0,0.0,0.0,0.0,0.0,0.0,0.0,0.0,0.0,0.0,0.0,0.0,0.0,0.0,0.0,0.0,0.0,0.8804,0.8804,0.8804,0.9423,1.0703,1.0357,1.0615,1.1598,1.2993,1.3235,1.2274,1.1962,1.1544,1.0945,1.0996,1.0914,1.0805,1.0949,1.1344,1.1924,1.1671,1.1616,1.1732,1.2205,0.0,0.0,0.0,0.0,0.0,0.0,0.0,0.0,0.0,0.0,0.8758,0.849,0.8272,0.8064,0.0,0.0,0.0,0.0,0.0,0.0,0.0,0.0,0.0,0.0,0.0,0.0,0.0,0.0,0.0,0.0,0.0,0.0,0.0,0.0,0.0,0.0,0.0,0.0,0.0,0.0,0.0,0.0,0.0,0.0,0.0,0.0,0.0,1.2144,1.1038,1.0258,1.0194,1.1458,1.1458,1.0391,1.3128,1.3023,1.0549,1.0736,1.0814,1.0728,1.229,1.2925,1.2945,1.3048,1.3048,1.294,1.1647,1.1105,1.0911,0.9637,0.9133,0.9154,0.0,0.0,0.0,0.0,0.0,0.0,0.0,0.0,0.0,0.0,0.0,0.0,0.0,0.0,0.0,0.0,0.0,0.0,0.0,0.0,0.8804,0.8804,0.8804,0.9327,1.048,1.0008,1.0269,1.1353,1.199,1.2182,1.1997,1.1599,1.1428,1.1321,1.0656,1.0324,1.0294,1.0748,1.1467,1.2371,1.2175,1.2538,1.2956,1.2035,1.1304,0.0,0.0,0.0,0.0,0.0,0.0,0.0,0.8824,0.8804,0.8798,0.8731,0.9013,0.0,0.0,0.0,0.0,0.0,0.0,0.0,0.0,0.0,0.0,0.0,0.0,0.0,0.0,0.0,0.0,0.0,0.0,0.0,0.0,0.0,0.0,0.0,0.0,0.0,0.0,0.0,0.0,0.0,0.0,0.0,0.0,0.0,0.0,1.2016,1.1722,1.1502,1.1463,1.2813,1.3295,0.0,1.4712,1.4647,1.3094,1.2466,1.1103,0.9244,0.9489,0.9794,0.9915,1.1105,1.1538,1.1538,1.1214,1.1105,1.0895,0.9518,0.8984,0.8988,0.0,0.0,0.0,0.0,0.0,0.0,0.0,0.0,0.0,0.0,0.0,0.0,0.0,0.0,0.0,0.0,0.0,0.0,0.0,0.0,0.0,0.8804,0.8804,0.9061,0.9614,0.9361,0.9597,1.0272,1.0769,0.0,0.0,0.0,0.0,1.1055,0.0,1.0668,1.0543,1.1265,1.2019,1.2694,1.2735,1.3072,1.3442,1.2712,1.197,1.1244,1.0938,0.0,0.0,0.0,0.0,0.0,0.0,0.0,0.8778,0.8644,0.9045,0.0,0.0,0.0,0.0,0.0,0.0,0.0,0.0,0.0,0.0,0.0,0.0,0.0,0.0,0.0,0.0,0.0,0.0,0.0,0.0,0.0,0.0,0.0,0.0,0.0,0.0,0.0,0.0,0.0,0.0,0.0,0.0,1.3659,1.3108,1.3788,1.3204,1.2813,1.2813,1.4172,1.4459,1.3878,1.5146,1.5146,1.389,1.2179,1.0716,0.944,0.8917,0.8648,0.8723,0.9656,0.9899,0.9911,0.9991,1.0025,0.9915,0.9154,0.894,0.894,0.0,0.0,0.0,0.0,0.0,0.0,0.0,0.0,0.0,0.0,0.0,0.0,0.0,0.0,0.0,0.0,0.0,0.0,0.0,0.0,0.0,0.0,0.8804,0.8857,0.8956,0.8857,0.8978,0.9268,0.0,0.0,0.0,0.0,0.0,1.0744,0.0,1.1099,1.0886,1.1696,1.2388,1.2834,1.3148,1.3366,1.3502,1.3313,1.2496,1.1435,1.1534,1.0978,1.0177,1.0057,0.0,0.0,0.0,0.0,0.8844,0.8657,0.0,0.0,0.0,0.0,0.0,0.0,0.0,0.0,0.0,0.0,0.0,0.0,0.0,0.0,0.0,0.0,0.0,0.0,0.0,0.0,0.0,0.0,0.0,0.0,0.0,0.0,0.0,0.0,0.0,0.0,0.0,1.5678,1.5678,1.4615,1.4615,1.5584,1.4615,1.4153,1.4195,1.5119,1.5145,1.4262,1.5337,1.5242,1.4172,1.1821,1.072,1.029,0.9265,0.8664,0.8492,0.8618,0.8672,0.8682,0.8811,0.8859,0.8862,0.8889,0.8899,0.8903,0.0,0.0,0.0,0.0,0.0,0.0,0.0,0.0,0.0,0.0,0.0,0.0,0.0,0.0,0.0,0.0,0.0,0.0,0.0,0.0,0.0,0.8804,0.8804,0.9008,0.9465,0.9061,0.9029,0.9523,0.0,0.0,0.0,0.0,0.0,1.1351,0.0,0.0,1.0559,1.095,1.1655,1.2616,1.3086,1.3366,1.3408,1.2603,1.1842,1.0997,0.9974,1.0031,1.0492,0.9597,0.9659,0.0,0.0,0.0,0.0,0.0,0.0,0.0,0.0,0.0,0.0,0.0,0.0,0.0,0.0,0.0,0.0,0.0,0.0,0.0,0.0,0.0,0.0,0.0,0.0,0.0,0.0,0.0,0.0,0.0,0.0,0.0,0.0,0.0,0.0,0.0,1.5057,1.5077,1.5077,1.4987,1.4896,1.5077,1.498,1.4917,1.5166,1.5113,1.5239,1.554,1.573,1.573,1.5534,1.4106,1.2195,1.0201,1.0099,0.9377,0.8482,0.8506,0.8513,0.8516,0.8533,0.8543,0.856,0.8693,0.874,0.876,0.0,0.0,0.0,0.0,0.0,0.0,0.0,0.0,0.0,0.0,0.0,0.0,0.0,0.0,0.0,0.0,0.0,0.0,0.0,0.0,0.0,0.8692,0.8904,0.9018,0.9047,0.9012,0.9099,0.0,0.0,0.0,0.0,1.0287,1.0629,0.0,0.0,0.0,0.0,1.074,1.123,1.1781,1.2298,1.2605,1.2636,1.183,1.1302,1.0966,1.0306,0.0,1.0565,1.0524,1.0255,1.0003,1.0585,0.0,0.0,0.0,0.0,0.0,1.1516,1.1527,1.1516,0.0,0.0,0.0,0.0,0.0,0.0,0.0,0.0,0.0,0.0,0.0,0.0,0.0,0.0,0.0,0.0,0.0,0.0,0.0,0.0,0.0,0.0,0.0,0.0,0.0,1.4716,1.4783,1.4957,1.4963,1.4963,1.4963,1.4963,1.5023,1.515,1.503,1.517,1.5585,1.5752,1.5832,1.5825,1.5242,1.3937,1.2273,1.149,1.0857,1.0444,1.0552,1.0591,1.0502,0.9788,0.9514,0.9526,0.8871,0.8635,0.872,0.0,0.0,0.0,0.0,0.0,0.0,0.0,0.0,0.0,0.0,0.0,0.0,0.0,0.0,0.0,0.0,0.0,0.0,0.0,0.0,0.0,0.8521,0.8915,0.8934,0.858,0.8915,0.0,0.0,0.0,0.0,0.9893,0.9973,1.016,0.0,1.0591,0.0,0.0,0.0,0.0,0.0,1.1623,1.1807,1.1744,1.1025,0.0,1.0432,1.017,0.0,0.0,1.1135,1.0865,1.0387,1.1506,1.1326,0.0,0.0,0.0,0.0,0.0,0.0,1.2011,1.1287,0.0,0.0,0.0,0.0,0.0,0.0,0.0,0.0,0.0,0.0,0.0,0.0,0.0,0.0,0.0,0.0,0.0,0.0,0.0,0.0,0.0,0.0,0.0,0.0,1.4188,1.4282,1.4509,1.4516,1.4549,1.4629,1.4629,1.4703,1.485,1.493,1.5037,1.5177,1.5471,1.5651,1.5718,1.5718,1.5177,1.4268,1.3011,1.2237,1.1863,1.2023,1.2088,1.2004,1.1162,1.0608,1.0215,0.9276,0.8867,0.8662,0.0,0.0,0.0,0.0,0.0,0.0,0.0,0.0,0.0,0.0,0.0,0.0,0.0,0.0,0.0,0.8626,0.8196,0.7824,0.7723,0.7605,0.7818,0.8368,0.869,0.0,0.8427,0.8696,0.0,0.0,0.0,0.0,0.9236,0.9573,0.986,1.0154,1.0434,1.0394,1.0114,0.0,0.0,0.0,1.1425,1.1372,1.1034,0.0,0.0,0.0,0.0,0.0,0.0,1.055,1.1092,1.1582,1.2242,1.2278,1.207,0.0,0.0,0.0,0.0,1.1378,0.0,1.1129,0.0,0.0,0.0,0.0,0.0,0.0,0.0,0.0,0.0,0.0,0.0,0.0,0.0,0.0,0.0,0.0,0.0,0.0,0.0,0.0,0.0,0.0,0.0,0.0,1.328,1.3287,1.33,1.33,1.3427,1.3619,1.3632,1.3981,1.4536,1.4823,1.483,1.4569,1.4863,1.515,1.5418,1.5418,1.5478,1.5635,1.4364,1.3102,1.1945,1.1863,1.1965,1.1868,1.1878,1.11,1.0069,1.0211,0.9522,0.8533,0.0,0.0,0.0,0.0,0.0,0.0,0.0,0.0,0.0,0.0,0.0,0.0,0.0,0.858,0.8527,0.8573,0.8362,0.799,0.7503,0.7824,0.815,0.8268,0.8635,0.8654,0.8427,0.0,0.0,0.0,0.0,0.8985,0.9776,0.9513,0.9888,1.0835,1.0712,1.0394,1.0127,1.0561,0.0,0.0,1.059,1.0432,1.011,0.0,0.0,0.0,0.0,0.0,0.0,1.0875,1.0865,1.0805,1.3033,1.3008,1.2254,1.3158,1.3182,1.2833,0.0,0.0,0.0,1.1473,1.1199,0.0,0.0,0.0,0.0,0.0,0.0,0.0,0.0,0.0,0.0,0.0,0.0,0.0,0.0,0.0,0.0,0.0,0.0,0.0,0.0,0.0,0.0,0.0,0.0,1.2999,1.32,1.3213,1.326,1.336,1.3547,1.3834,1.4242,1.4536,1.4629,1.4522,1.4823,1.5117,1.5398,1.5398,1.5558,1.5737,1.5343,1.4854,1.437,1.437,1.437,1.4274,1.3494,1.2425,1.1086,1.0441,0.9368,0.8364,0.0,0.0,0.0,0.0,0.0,0.0,0.0,0.0,0.0,0.0,0.0,0.0,0.0,0.0,0.848,0.8309,0.815,0.783,0.7343,0.7723,0.7996,0.8115,0.8422,0.8544,0.8328,0.0,0.0,0.0,0.0,0.0,0.0,0.9405,0.9778,1.089,1.046,1.0275,0.0,0.0,0.0,0.996,0.0,0.9766,0.9606,0.0,0.0,0.0,0.0,0.0,0.0,1.0644,1.058,1.0365,1.315,1.3482,1.3024,1.3528,1.3497,1.323,1.2772,0.0,0.0,0.0,0.0,0.0,0.0,0.0,0.0,0.0,0.0,0.0,0.0,0.0,0.0,0.0,0.0,0.0,0.0,0.0,0.0,0.0,0.0,0.0,0.0,0.0,0.0,0.0,0.0,0.0,1.2746,1.2759,1.2852,1.3053,1.3347,1.3594,1.3794,1.3981,1.4128,1.4229,1.4429,1.4723,1.5104,1.5104,1.5317,1.5685,1.5685,1.5738,1.5832,1.5832,1.5832,1.5635,1.4364,1.3108,1.176,1.0555,0.9276,0.8279,0.0,0.0,0.0,0.0,0.0,0.0,0.0,0.0,0.0,0.0,0.0,0.0,0.0,0.0,0.0,0.7777,0.745,0.7343,0.7343,0.7187,0.7359,0.7901,0.8141,0.8269,0.8228,0.0,0.0,0.0,0.0,0.0,0.0,0.0,0.9549,1.0104,0.9804,0.9992,1.0436,0.0,0.9686,0.9717,0.0,0.9419,0.9579,0.0,0.0,0.0,0.8528,0.8427,0.0,0.9877,1.0245,1.0536,1.2495,1.3708,1.435,1.3552,1.3314,1.3131,0.0,0.0,0.0,0.0,0.0,0.0,0.0,0.0,0.0,0.0,0.0,0.0,0.0,0.0,0.0,0.0,0.0,0.0,0.0,0.0,0.0,0.0,0.0,0.0,0.0,0.0,0.0,0.0,1.1423,1.155,1.1837,1.1864,1.2138,1.2788,1.3033,1.32,1.3213,1.3213,1.3353,1.3546,1.3552,1.3864,1.4415,1.4422,1.4747,1.5384,1.5391,1.5465,1.5717,1.5825,1.5737,1.5635,1.4364,1.3102,1.1678,1.0588,0.9361,0.8282,0.0,0.0,0.0,0.0,0.0,0.0,0.0,0.0,0.0,0.0,0.0,0.0,0.0,0.0,0.0,0.7895,0.7788,0.7735,0.7735,0.7681,0.7741,0.7901,0.7967,0.8135,0.8321,0.829,0.0,0.0,0.0,0.0,0.0,0.0,0.0,0.0,0.9841,0.9724,0.986,0.972,0.0,0.0,0.9758,0.9479,0.0,0.0,0.0,0.0,0.0,0.9585,0.0,0.0,1.1223,1.0827,0.0,0.0,1.4405,1.3873,1.3717,0.0,1.277,0.0,0.0,0.0,0.0,0.0,0.0,0.0,0.0,0.0,0.0,0.0,0.0,0.0,0.0,0.0,0.0,0.0,0.0,0.0,0.0,0.0,0.0,0.0,0.0,0.0,0.0,0.0,1.1423,1.1463,1.1543,1.175,1.2037,1.2412,1.2719,1.2979,1.3206,1.3213,1.2842,1.2265,1.228,1.2206,1.1835,1.1926,1.273,1.3799,1.4087,1.4111,1.4184,1.5354,1.5242,1.4364,1.407,1.2517,1.0493,1.0151,0.9187,0.8109,0.0,0.0,0.0,0.0,0.0,0.0,0.0,0.0,0.0,0.0,0.0,0.0,0.0,0.0,0.0,0.8287,0.8227,0.8124,0.7907,0.7955,0.8008,0.8008,0.8055,0.8215,0.8368,0.8275,0.0,0.0,0.0,0.0,0.0,0.0,0.0,0.0,0.0,0.0,0.0,0.0,0.0,0.0,0.9424,0.0,0.0,0.933,0.9694,0.0,0.0,0.0,1.1156,1.1541,1.1444,0.0,0.0,0.0,0.0,0.0,0.0,0.0,0.0,0.0,0.0,0.0,0.0,0.0,1.0828,1.0079,0.9413,0.0,0.0,0.0,0.0,0.0,0.0,0.0,0.0,0.0,0.0,0.0,0.0,0.0,0.0,0.0,0.0,1.0882,1.0935,1.1056,1.1062,1.1122,1.1236,1.1643,1.1944,1.2118,1.2405,1.2645,1.2826,1.2832,1.2415,1.1502,1.1564,1.1243,1.0639,1.0773,1.1367,1.2327,1.2564,1.259,1.2685,1.359,1.359,1.3006,1.2517,1.1356,0.9899,0.941,0.8627,0.8038,0.0,0.0,0.0,0.0,0.0,0.0,0.0,0.0,0.0,0.0,0.0,0.0,0.0,0.0,0.0,0.0,0.8651,0.8367,0.7967,0.8062,0.8168,0.8221,0.8268,0.8315,0.8421,0.8215,0.0,0.0,0.0,0.0,0.0,0.0,0.0,0.0,0.0,0.0,0.0,0.0,0.0,0.891,0.8944,0.9514,0.0,0.0,1.0488,0.0,1.1031,1.1234,1.1574,1.1132,1.1369,0.0,0.0,0.0,0.0,0.0,1.3451,0.0,0.0,0.0,0.0,0.0,0.0,0.0,1.1404,1.0265,0.9316,0.0,0.0,0.0,0.0,0.0,0.0,0.0,0.0,0.0,0.0,0.0,0.0,0.0,0.0,0.0,1.0047,1.0067,1.0194,1.0488,1.0604,1.0675,1.0929,1.147,1.1784,1.1817,1.2104,1.2271,1.2305,1.2224,1.1752,1.0993,1.0867,1.0545,0.9952,1.0001,1.0318,1.0873,1.0919,1.1055,1.1237,1.1258,1.1412,1.1487,1.0445,0.987,0.9579,0.8425,0.8038,0.8038,0.0,0.0,0.0,0.0,0.0,0.0,0.0,0.0,0.0,0.0,0.0,0.0,0.0,0.0,0.0,0.0,0.8475,0.8224,0.8174,0.8008,0.8008,0.8168,0.7777,0.7824,0.8521,0.7943,0.7895,0.0,0.0,0.0,0.0,0.0,0.0,0.0,0.0,0.0,0.0,0.0,0.0,0.9636,0.9799,0.0,1.0542,1.0295,1.0813,1.1663,1.1642,1.2036,1.2572,0.0,1.2437,1.2998,0.0,0.0,0.0,0.0,0.0,0.0,0.0,0.0,0.0,0.0,0.0,0.0,1.0937,0.9864,0.9106,0.0,0.0,0.0,0.0,0.0,0.0,0.0,0.0,0.0,0.0,0.0,0.0,0.0,0.0,0.0,0.9766,0.9766,0.9886,1.018,1.0421,1.0651,1.0705,1.0975,1.1269,1.1503,1.1797,1.2064,1.2298,1.1465,1.0594,0.9672,0.8989,0.8162,0.7288,0.748,0.8142,0.9158,0.9473,0.9629,0.9578,0.9824,0.993,0.9925,0.9897,0.9196,0.8254,0.8093,0.8038,0.8038,0.0,0.0,0.0,0.0,0.0,0.0,0.0,0.0,0.0,0.0,0.0,0.0,0.0,0.0,0.0,0.0,0.0,0.0,0.0,0.7996,0.7996,0.8374,0.7877,0.7765,0.8031,0.7396,0.7343,0.0,0.0,0.0,0.0,0.0,0.0,0.0,0.0,0.0,0.0,0.0,0.9963,0.9962,1.0219,0.0,1.1183,1.1071,1.1599,1.2344,1.2344,1.2608,1.2842,1.2534,1.2686,0.0,0.0,1.2889,1.3006,0.0,1.4046,1.3473,0.0,0.0,0.0,1.2766,0.0,0.0,0.0,1.0068,0.9211,0.0,0.0,0.0,0.0,0.0,0.0,0.0,0.0,0.0,0.0,0.0,0.0,0.0,0.0,0.0,0.9446,0.9459,0.9646,1.0087,1.0254,1.0408,1.0618,1.0835,1.1056,1.1209,1.1496,1.1506,1.1215,1.0701,0.9745,0.8384,0.7956,0.7328,0.6478,0.6709,0.719,0.7785,0.8116,0.8135,0.8139,0.8223,0.8348,0.8375,0.8636,0.827,0.7712,0.779,0.7865,0.7926,0.8527,0.0,0.0,0.0,0.0,0.0,0.0,0.0,0.0,0.0,0.0,0.0,0.0,0.0,0.0,0.0,0.0,0.0,0.0,0.0,0.77,0.8174,0.7794,0.7475,0.737,0.6779,0.675,0.7331,0.0,0.0,0.0,0.0,0.0,0.0,0.0,0.0,0.0,0.0,0.0,1.0302,0.0,1.126,1.1778,1.1917,1.2308,1.2791,1.2861,1.2881,1.289,1.2689,0.0,1.2842,1.3049,1.2914,0.0,0.0,0.0,0.0,0.0,0.0,0.0,0.0,0.0,1.2381,0.0,0.0,0.0,0.0,0.0,0.0,0.0,0.0,0.0,0.0,0.0,0.0,0.0,0.0,0.0,0.0,0.0,0.0,0.0,0.915,0.9382,0.9913,0.9993,1.0159,1.0461,1.0748,1.0935,1.0995,1.1081,1.0741,1.0101,0.9748,0.8877,0.7495,0.7274,0.692,0.6437,0.6586,0.6742,0.6892,0.7007,0.7071,0.7099,0.7068,0.7054,0.7088,0.7424,0.7556,0.756,0.759,0.7689,0.7811,0.8368,0.8421,0.0,0.0,0.0,0.0,0.0,0.0,0.0,0.0,0.0,0.0,0.0,0.0,0.0,0.0,0.0,0.0,0.6804,0.0,0.0,0.6829,0.6435,0.6445,0.6865,0.6333,0.6268,0.6696,0.0,0.0,0.0,0.0,0.0,0.0,0.9137,0.0,0.0,0.0,1.0541,0.0,1.1868,1.2007,0.0,1.2184,1.2382,1.2389,1.2761,1.2881,1.2949,0.0,1.3218,1.3337,0.0,1.3204,0.0,0.0,0.0,0.0,0.0,0.0,0.0,0.0,1.3269,0.0,0.0,0.0,0.0,0.0,0.0,0.0,0.0,0.0,0.0,0.0,0.0,0.0,0.0,0.0,0.0,0.0,0.0,0.0,0.0,0.8867,0.9105,0.9276,0.9708,1.0012,1.0167,1.0448,1.0728,1.0982,1.0286,0.9944,1.0101,0.8478,0.7592,0.7495,0.6615,0.6191,0.6288,0.6434,0.658,0.6725,0.6742,0.6827,0.6943,0.6807,0.6749,0.6793,0.7227,0.7397,0.7414,0.755,0.7689,0.7811,0.8221,0.8321,0.0,0.0,0.0,0.0,0.0,0.0,0.0,0.0,0.0,0.0,0.0,0.0,0.0,0.0,0.0,0.6258,0.0,0.0,0.0,0.6887,0.6382,0.6171,0.6352,0.6058,0.61,0.6588,0.7283,0.0,0.0,0.0,0.0,0.0,0.8985,0.0,0.9045,0.0,0.0,0.0,0.0,0.0,0.0,1.2489,1.2686,1.2657,1.2842,1.2881,1.291,0.0,1.3272,0.0,0.0,0.0,0.0,0.0,0.0,0.0,0.0,0.0,0.0,0.0,0.0,0.0,0.0,0.0,1.1818,0.0,0.0,0.0,0.0,0.0,0.0,0.0,0.0,0.0,0.0,0.0,0.0,0.0,0.0,0.0,0.0,0.0,0.0,0.0,0.9517,0.9768,1.0107,1.0401,1.0424,1.0018,0.9628,0.9013,0.8168,0.736,0.6831,0.6542,0.6113,0.6027,0.6345,0.6407,0.6508,0.6573,0.6661,0.6736,0.6793,0.6725,0.6753,0.6851,0.7041,0.7115,0.7132,0.7278,0.7485,0.7689,0.8115,0.0,0.0,0.0,0.0,0.0,0.0,0.0,0.0,0.0,0.0,0.0,0.7189,0.7083,0.0,0.0,0.0,0.5697,0.0,0.0,0.5892,0.637,0.6098,0.0,0.0,0.5588,0.5778,0.61,0.6902,0.0,0.0,0.0,0.0,0.0,0.0,0.8851,0.8938,0.0,0.0,1.0546,1.1847,1.2336,1.2278,1.2628,1.2772,1.2881,1.2881,1.2881,1.29,1.2959,1.3263,0.0,1.3542,0.0,0.0,0.0,0.0,0.0,1.2465,0.0,0.0,0.0,0.0,0.0,0.0,0.0,0.0,0.0,0.0,0.0,0.0,0.0,0.0,0.0,0.0,0.0,0.0,0.0,0.0,0.0,0.0,0.0,0.0,0.0,0.0,0.8709,0.8953,0.9179,0.9307,0.9712,0.9588,0.8947,0.8683,0.7962,0.6719,0.6461,0.6177,0.58,0.58,0.5962,0.6264,0.6366,0.6434,0.6474,0.6549,0.6607,0.6644,0.6603,0.6654,0.6763,0.6848,0.6881,0.6902,0.7078,0.7245,0.7506,0.7901,0.8062,0.0,0.0,0.0,0.0,0.0,0.0,0.0,0.0,0.0,0.0,0.0,0.0,0.0,0.0,0.0,0.4566,0.4681,0.0,0.4866,0.0,0.0,0.5108,0.0,0.0,0.5014,0.4743,0.0,0.0,0.0,0.0,0.0,0.0,0.0,0.8965,0.9205,0.9496,0.9688,0.9947,1.1124,1.2063,1.2624,0.0,1.2559,1.2881,1.2881,0.0,0.0,1.3198,1.3301,0.0,0.0,0.0,0.0,0.0,0.0,0.0,0.0,0.0,0.0,1.2158,0.0,0.0,0.0,0.0,1.351,0.0,0.0,0.0,0.0,0.0,0.0,0.0,0.0,0.0,0.0,0.0,0.0,0.0,0.0,0.0,0.0,0.0,0.0,0.761,0.7863,0.7844,0.7418,0.7845,0.8091,0.8027,0.7242,0.6785,0.6719,0.5881,0.5576,0.58,0.58,0.5962,0.6338,0.6268,0.6342,0.6464,0.6332,0.6445,0.6585,0.6431,0.6302,0.6346,0.6641,0.6672,0.6706,0.7044,0.7249,0.7422,0.0,0.0,0.0,0.0,0.0,0.0,0.0,0.7074,0.0,0.0,0.0,0.0,0.0,0.0,0.5354,0.0,0.0,0.462,0.4621,0.4811,0.0,0.0,0.0,0.5156,0.0,0.0,0.0,0.0,0.0,0.0,0.0,0.0,0.0,0.0,0.0,0.8864,0.0,0.0,0.0,0.0,0.0,1.1783,1.2452,0.0,0.0,1.2058,1.2138,1.2178,0.0,1.2295,1.2739,1.3272,1.3208,1.3067,1.2753,1.2021,1.1735,0.0,0.0,0.0,1.1329,1.1652,0.0,0.0,0.0,0.0,0.0,0.0,0.0,0.0,0.0,0.0,0.0,0.0,0.0,0.0,0.0,0.0,0.0,0.0,0.0,0.0,0.0,0.0,0.0,0.7545,0.775,0.7775,0.7339,0.7634,0.7609,0.7172,0.685,0.6396,0.5815,0.5663,0.561,0.5803,0.5905,0.6061,0.6338,0.6338,0.6288,0.6329,0.6291,0.6305,0.627,0.4789,0.4143,0.4188,0.4253,0.5398,0.6806,0.5338,0.5825,0.723,0.7883,0.0,0.0,0.0,0.0,0.0,0.0,0.0,0.0,0.0,0.6372,0.0,0.5449,0.0,0.5234,0.0,0.4632,0.462,0.4621,0.4761,0.0,0.4771,0.5035,0.0,0.0,0.0,0.0,0.0,0.0,0.7015,0.0,0.0,0.0,0.0,0.0,0.0,0.8818,0.0,0.9343,0.0,0.0,1.114,0.0,0.0,1.195,1.1787,0.0,1.1466,1.1466,1.1466,1.1894,1.2388,1.223,1.2253,1.2202,1.1239,1.1137,1.1122,1.0192,1.0254,0.0,1.1221,1.1311,0.0,1.2281,0.0,0.0,0.0,0.0,0.0,0.0,0.0,0.0,0.0,0.0,0.0,0.0,0.0,0.0,0.0,0.0,0.0,0.0,0.0,0.7777,0.7063,0.7223,0.6999,0.0,0.0,0.6586,0.626,0.6268,0.5947,0.5428,0.546,0.5606,0.5803,0.5901,0.6057,0.6338,0.6338,0.6264,0.6268,0.6274,0.6285,0.6217,0.4787,0.3768,0.3155,0.411,0.5087,0.5708,0.4192,0.455,0.6106,0.0,0.0,0.0,0.0,0.6213,0.0,0.0,0.0,0.5814,0.0,0.5819,0.5597,0.4952,0.4739,0.4688,0.4688,0.4574,0.0,0.4568,0.4656,0.0,0.0,0.4815,0.4791,0.4519,0.0,0.0,0.0,0.0,0.0,0.0,0.0,0.0,0.0,0.8745,0.0,0.8784,0.8935,0.8876,0.8817,0.9429,1.0108,1.0702,1.0702,1.1336,1.2079,1.1107,1.0762,1.0762,1.0762,1.0762,1.0813,1.0813,1.1216,1.1536,1.0577,1.0918,1.1351,1.0034,1.012,1.0683,1.0991,0.0,0.0,0.0,0.0,1.2091,0.0,0.0,0.0,0.0,0.0,0.0,0.0,0.0,0.0,0.0,0.0,0.0,0.0,0.0,0.0,0.0,0.8049,0.7133,0.6263,0.6164,0.0,0.0,0.0,0.5192,0.5422,0.5428,0.5428,0.5428,0.5435,0.5515,0.58,0.581,0.5969,0.6338,0.6338,0.6268,0.6281,0.6281,0.6298,0.625,0.6087,0.48,0.3188,0.571,0.5406,0.3409,0.3462,0.3389,0.3805,0.7396,0.6372,0.5605,0.0,0.5391,0.5164,0.0,0.0,0.0,0.0,0.5961,0.5708,0.4721,0.4574,0.4574,0.4574,0.4519,0.0,0.0,0.0,0.0,0.4456,0.4757,0.4791,0.4519,0.4736,0.0,0.4691,0.0,0.0,0.649,0.0,0.0,0.0,0.0,0.0,0.8426,0.8666,0.8486,0.801,0.8213,0.8885,0.0,0.0,0.9925,1.0685,1.0239,1.0064,1.0064,1.0064,1.0364,1.0813,1.0813,1.0568,1.0332,1.0317,1.0275,1.0177,1.0059,1.0274,1.0604,1.0718,1.0581,1.0588,0.0,0.0,0.0,0.0,0.0,0.0,0.0,0.0,0.0,0.0,0.0,0.0,0.0,0.0,0.0,0.0,0.0,0.0,0.7889,0.7729,0.7187,0.6105,0.6037,0.0,0.0,0.0,0.0,0.5418,0.5428,0.5428,0.5428,0.5474,0.5623,0.5803,0.5918,0.6078,0.6274,0.6274,0.6281,0.6291,0.6308,0.6322,0.6087,0.2909,0.1275,0.0896,0.1557,0.1431,0.096,0.089,0.0911,0.1025,0.7475,0.0,0.0,0.537,0.0,0.0,0.614,0.0,0.0,0.5923,0.5944,0.0,0.4673,0.4519,0.4519,0.4519,0.4519,0.0,0.0,0.0,0.0,0.4556,0.4634,0.468,0.4519,0.4625,0.0,0.4691,0.0,0.0,0.6055,0.0,0.0,0.0,0.0,0.8489,0.0,0.8332,0.805,0.7653,0.7425,0.0,0.0,0.8468,0.8891,0.9542,0.9425,0.9361,0.9361,0.9361,0.9614,0.9917,0.9917,0.9865,0.9777,0.9785,0.9995,1.014,1.0094,1.0334,1.0624,1.0624,1.0434,1.0354,1.0584,1.0327,1.02,0.0,0.0,0.0,0.0,0.0,0.0,0.0,0.0,0.0,0.0,0.0,0.0,0.0,0.0,0.0,0.7354,0.7408,0.7025,0.5996,0.5882,0.0,0.0,0.0,0.0,0.5192,0.5322,0.5359,0.5428,0.5443,0.5587,0.5803,0.5888,0.6051,0.6278,0.6278,0.6291,0.6312,0.6325,0.5288,0.3383,0.0942,0.0,0.0,0.0,0.0,0.0,0.0,0.0,0.0,0.0,0.0,0.0,0.0,0.0,0.0,0.0,0.645,0.0,0.5941,0.0,0.542,0.4739,0.4574,0.4519,0.4519,0.0,0.4574,0.4688,0.4574,0.4574,0.4688,0.4574,0.4519,0.4519,0.4519,0.0,0.0,0.0,0.0,0.0,0.0,0.0,0.0,0.0,0.0,0.0,0.7682,0.7365,0.7318,0.6815,0.7015,0.7611,0.77,0.8096,0.8646,0.8646,0.8699,0.8804,0.8804,0.8804,0.8804,0.8804,0.9211,0.9627,0.9309,0.9799,1.0465,1.0152,1.0247,1.051,1.051,1.051,1.0517,1.0557,1.0274,1.014,1.0441,0.9624,0.8497,0.0,0.0,0.0,0.0,0.0,0.0,0.0,0.0,0.0,0.0,0.0,0.0,0.0,0.7085,0.6756,0.0,0.0,0.0,0.0,0.0,0.0,0.4974,0.5218,0.5365,0.5393,0.0,0.5497,0.5731,0.5803,0.5962,0.6331,0.6274,0.598,0.5448,0.5448,0.3383,0.0,0.0,0.0,0.0,0.0,0.0,0.0,0.0,0.0,0.0,0.0,0.0,0.0,0.0,0.0,0.5129,0.6656,0.6062,0.5487,0.5579,0.5358,0.5063,0.456,0.4519,0.4519,0.4519,0.4519,0.0,0.0,0.0,0.0,0.4519,0.4519,0.4519,0.4519,0.4632,0.4688,0.0,0.0,0.0,0.0,0.0,0.0,0.0,0.0,0.0,0.6797,0.6107,0.0,0.5961,0.5897,0.5949,0.6124,0.6625,0.7289,0.7883,0.7883,0.8262,0.8804,0.8804,0.8804,0.8804,0.8804,0.8857,0.9017,0.9152,0.9327,0.9484,0.9737,0.98,0.984,0.984,0.984,0.99,1.014,0.9967,0.984,1.0134,0.9348,0.8362,0.7478,0.0,0.0,0.0,0.0,0.0,0.0,0.0,0.0,0.0,0.0,0.0,0.0,0.0,0.0,0.0,0.0,0.0,0.0,0.0,0.0,0.0,0.5372,0.0,0.0,0.0,0.547,0.5519,0.5676,0.5932,0.628,0.6335,0.4408,0.1099,0.1099,0.0707,0.0,0.0,0.0,0.0,0.0,0.0,0.0,0.0,0.0,0.0,0.0,0.0,0.0,0.0,0.0,0.0,0.0,0.5358,0.0,0.5592,0.5466,0.5127,0.4677,0.4519,0.4519,0.4519,0.4519,0.4519,0.4519,0.4519,0.4522,0.4525,0.4525,0.0,0.4525,0.4584,0.4581,0.4577,0.0,0.0,0.0,0.0,0.0,0.0,0.0,0.651,0.0,0.0,0.0,0.5743,0.5292,0.5053,0.5087,0.5391,0.619,0.7128,0.7128,0.7343,0.7777,0.8533,0.8533,0.8321,0.8699,0.8533,0.8347,0.8864,0.9232,0.9466,0.9459,0.9679,0.9873,0.9719,0.9793,0.9947,1.0087,1.0007,0.9947,1.0087,0.8968,0.7532,0.6284,0.5389,0.0,0.0,0.0,0.0,0.0,0.0,0.0,0.0,0.0,0.0,0.0,0.0,0.0,0.0,0.0,0.0,0.0,0.0,0.0,0.0,0.0,0.0,0.0,0.0,0.0,0.5637,0.5649,0.5925,0.6331,0.6335,0.2829,-0.3229,-0.3304,-0.3303,-0.3144,-0.2037,-0.1577,-0.1598,-0.1635,-0.092,0.0,0.0,-0.16,-0.3687,0.0,0.6077,0.0,0.0,0.5449,0.0,0.5036,0.4707,0.4736,0.5445,0.5382,0.5113,0.4688,0.4574,0.4519,0.4519,0.4519,0.4519,0.4519,0.4519,0.4522,0.448,0.448,0.4366,0.4027,0.4311,0.448,0.0,0.0,0.0,0.0,0.0,0.0,0.0,0.0,0.0,0.0,0.0,0.5466,0.5128,0.431,0.4018,0.4045,0.4385,0.521,0.615,0.615,0.6372,0.6756,0.7949,0.7943,0.7563,0.8156,0.7973,0.7692,0.8463,0.9043,0.9395,0.9342,0.9673,0.9967,0.974,0.986,1.004,1.01,1.0067,0.9967,0.984,0.8232,0.651,0.5054,0.4823,0.0,0.0,0.0,0.0,0.0,0.0,0.0,0.0,0.0,0.0,0.0,0.0,0.0,0.0,0.0,0.4379,0.3987,0.4305,0.4571,0.0,0.0,0.529,0.5343,0.0,0.5421,0.561,0.559,0.5419,0.4938,0.4004,0.0233,-0.5652,-0.5593,-0.5843,-0.6159,-0.446,-0.3789,-0.378,-0.38,-0.2814,-0.1282,-0.0858,-0.3056,-0.6447,0.0,0.0,0.0,0.0,0.0,0.0,0.0,0.4622,0.4515,0.4625,0.4625,0.457,0.4519,0.4519,0.4519,0.4519,0.4519,0.4519,0.4519,0.4519,0.4522,0.448,0.448,0.3858,0.2454,0.3808,0.4494,0.0,0.0,0.0,0.0,0.0,0.0,0.0,0.0,0.0,0.0,0.2625,0.2571,0.2523,0.2458,0.2397,0.2563,0.3974,0.4581,0.4718,0.4718,0.5496,0.6608,0.6776,0.6766,0.6696,0.6804,0.6884,0.7161,0.8014,0.8378,0.8709,0.9466,0.9686,0.9719,0.9693,0.9706,0.9793,1.0053,0.9913,0.9545,0.8887,0.71,0.5432,0.4668,0.456,0.4869,0.0,0.0,0.0,0.0,0.0,0.0,0.0,0.0,0.0,0.0,0.0,0.0,0.0,0.0,0.4582,0.4429,0.4406,0.4593,0.5042,0.0,0.51,0.5014,0.5251,0.5329,0.525,0.5358,0.3732,0.0492,-0.3343,-0.449,-0.3415,-0.3409,-0.4465,-0.6295,-0.6089,-0.6025,-0.6009,-0.5974,-0.5875,-0.5499,-0.3505,-0.3325,-0.4175,0.0,0.0,0.0,0.0,0.0,0.0,0.0,0.4519,0.4519,0.4519,0.4519,0.4519,0.4519,0.4519,0.4519,0.4519,0.4519,0.4519,0.4519,0.4525,0.4477,0.449,0.4497,0.336,0.0949,0.1507,0.2235,0.0,0.0,0.0,0.0,0.0,0.0,0.0,0.0,0.0167,-0.0445,-0.0445,-0.0445,-0.0445,-0.0445,-0.0278,0.0111,0.1335,0.2169,0.2717,0.3003,0.2938,0.2648,0.2648,0.4429,0.6589,0.6613,0.6092,0.5635,0.6699,0.7353,0.7795,0.7942,0.8181,0.8314,0.8167,0.8241,0.8436,0.8538,0.8482,0.8248,0.7919,0.6596,0.5305,0.4752,0.4599,0.472,0.0,0.0,0.0,0.0,0.0,0.0,0.0,0.0,0.0,0.0,0.0,0.0,0.0,0.0,0.0,0.4293,0.4439,0.4592,0.4764,0.0,0.5199,0.4993,0.5279,0.5356,0.5284,0.319,0.0279,-0.3362,-0.6057,-0.7245,-0.7072,-0.7319,-0.771,-0.8102,-0.8075,-0.7778,-0.7196,-0.7188,-0.681,-0.6189,-0.533,-0.5173,-0.5543,0.4421,0.0,0.5195,0.0,0.4842,0.4809,0.4546,0.4519,0.4519,0.4519,0.4519,0.4519,0.4519,0.4519,0.4519,0.4519,0.4519,0.4519,0.4519,0.4473,0.4311,0.3866,0.4278,0.0,0.0056,-0.0894,-0.0837,0.0223,0.039,0.0,0.0,0.0,0.0,0.0,-0.1335,-0.2284,-0.3461,-0.307,-0.2901,-0.2896,-0.2903,-0.2676,-0.228,-0.1614,-0.0611,0.0444,0.0778,0.0222,-0.0722,-0.1166,0.0775,0.3495,0.4365,0.3999,0.3527,0.4974,0.5817,0.6401,0.706,0.7439,0.7527,0.7174,0.7262,0.7451,0.7583,0.7661,0.7539,0.7133,0.6106,0.5174,0.4793,0.4691,0.4657,0.4548,0.0,0.0,0.0,0.0,0.0,0.0,0.4827,0.4339,0.4406,0.0,0.0,0.0,0.0,0.0,0.4294,0.4415,0.0,0.0,0.0,0.0,0.0,0.3894,0.3828,0.3768,0.0682,-0.2617,-0.5978,-0.7408,-0.8556,-0.9469,-1.0085,-0.9954,-0.9296,-0.9593,-0.914,-0.8237,-0.8237,-0.779,-0.713,-0.6817,-0.6841,-0.6994,0.4206,0.4527,0.4513,0.4505,0.4449,0.4446,0.4494,0.4519,0.4519,0.4519,0.4519,0.4519,0.4519,0.4519,0.4519,0.4519,0.4519,0.4519,0.4519,0.4473,0.3802,0.0,0.0,0.3091,0.0056,-0.2921,-0.4455,-0.4399,0.0,0.0,-0.2681,0.0,-0.2681,-0.2736,-0.3925,-0.5223,-0.6464,-0.5056,-0.4477,-0.4446,-0.448,-0.4494,-0.4438,-0.4438,-0.3471,-0.2174,-0.2174,-0.2174,-0.2399,-0.3925,-0.4383,-0.3863,-0.0885,0.017,0.0695,0.2885,0.3664,0.4426,0.722,0.7985,0.7848,0.7254,0.7102,0.7288,0.7837,0.8021,0.7698,0.6611,0.5628,0.4867,0.4718,0.4691,0.4691,0.4687,0.0,0.0,0.0,0.0,0.0,0.0,0.4102,0.459,0.4435,0.0,0.0,0.0,0.0,0.0,0.0,0.0,0.0,0.4973,0.4582,0.0,0.2147,0.0735,0.0067,0.0067,-0.1805,-0.4215,-0.7118,-0.7884,-0.8399,-0.887,-0.9969,-0.9974,-0.9372,-1.034,-1.019,-0.9296,-0.9296,-0.9296,-0.915,-0.8165,-0.7897,-0.7811,0.134,0.2268,0.3254,0.4311,0.4501,0.4481,0.4522,0.4473,0.4525,0.4519,0.4519,0.4519,0.4519,0.4519,0.4519,0.0,0.4525,0.4473,0.0,0.449,0.4274,0.3764,0.2242,0.0,-0.2977,-0.3999,-0.4511,-0.4501,0.0,0.0,0.0,-0.3892,-0.4443,-0.4663,-0.5555,-0.6173,-0.6564,-0.6119,-0.5941,-0.5873,-0.5391,-0.5175,-0.5124,-0.4698,-0.42,-0.3913,-0.4868,-0.4971,-0.4901,-0.6078,-0.6237,-0.5778,-0.4798,-0.3322,-0.1898,-0.1883,-0.068,0.0816,0.1689,0.2378,0.2798,0.2575,0.3142,0.3717,0.3939,0.5168,0.6103,0.5773,0.5286,0.4894,0.4996,0.4723,0.4536,0.4536,0.4569,0.0,0.0,0.0,0.0,0.0,0.4281,0.3621,0.0,0.2874,0.0,0.0,0.0,0.0,0.0,0.0,0.0,0.0,0.4314,0.0,0.0335,-0.2347,-0.3696,-0.3689,-0.502,-0.6741,-0.8582,-0.9009,-0.9695,-1.0575,-1.1198,-1.1795,-1.2265,-1.1983,-1.1607,-1.1205,-1.0553,-0.9895,-0.9296,-0.8922,-0.8885,-0.873,0.0,0.0726,0.1673,0.2629,0.3246,0.3638,0.3633,0.4144,0.4484,0.4477,0.4477,0.4477,0.4477,0.4477,0.0,0.4525,0.4477,0.4252,0.3688,0.416,0.3996,0.2856,-0.0056,-0.23,-0.3593,0.0,0.0,-0.449,-0.4015,-0.3837,-0.3999,-0.5156,-0.576,-0.5928,-0.6367,-0.675,-0.702,-0.6696,-0.675,-0.6966,-0.6199,-0.5923,-0.5873,-0.5454,-0.5293,-0.5407,-0.6311,-0.641,-0.6282,-0.689,-0.7031,-0.6999,-0.732,-0.6508,-0.5441,-0.5487,-0.4508,-0.3276,-0.3107,-0.2644,-0.2055,-0.1423,-0.0773,0.0,0.0909,0.2323,0.352,0.3513,0.3703,0.3872,0.3851,0.3341,0.2901,0.283,0.2826,0.2843,0.3016,0.0,0.0,0.0,0.0,0.0,0.0,0.0868,0.1177,0.0,0.0,0.0,0.0,0.0,0.0,0.1316,0.1998,0.0,-0.1272,-0.4033,-0.5596,-0.6058,-0.7292,-0.8429,-0.9486,-0.9982,-1.0731,-1.1603,-1.179,-1.2599,-1.36,-1.2659,-1.2498,-1.2684,-1.1749,-1.0944,-1.0346,-0.997,-0.9895,-0.9776,-0.0168,-0.0168,0.0,0.0,0.1004,0.0,0.2007,0.3244,0.4209,0.4324,0.4324,0.4324,0.4324,0.4324,0.4379,0.4484,0.0,0.0,0.0,0.3309,0.2631,-0.0167,-0.3026,-0.3819,-0.2399,-0.3744,-0.4532,-0.4588,-0.5167,-0.5542,-0.5597,-0.6308,-0.6696,-0.6696,-0.675,-0.7182,-0.7771,-0.7074,-0.7182,-0.7771,-0.6966,-0.6696,-0.6696,-0.6691,-0.6691,-0.6691,-0.6794,-0.6794,-0.6794,-0.6848,-0.7309,-0.7923,-0.8619,-0.9283,-0.9489,-0.8062,-0.7609,-0.7441,-0.6933,-0.6766,-0.6351,-0.4829,-0.4402,-0.3746,-0.1542,-0.0542,-0.0061,0.0182,0.0995,0.1625,0.1715,0.0837,0.006,-0.0281,-0.0277,-0.0111,0.0278,0.0,0.0,0.0,0.0,0.0,0.0,-0.1573,-0.2368,0.0,0.0,0.0,0.0,0.0,-0.0992,-0.0382,-0.197,-0.2871,-0.2869,-0.455,-0.5966,-0.717,-0.8641,-0.9462,-0.9759,-1.0646,-1.1303,-1.1837,-1.1864,-1.2599,-1.3745,-1.2732,-1.2879,-1.3665,-1.2659,-1.2305,-1.2224,-1.1242,-1.095,-1.0848,0.0,0.0,-0.1672,-0.1672,-0.1393,-0.0779,0.0334,0.0835,0.1448,0.2623,0.2736,0.2736,0.2736,0.2736,0.3244,0.4389,0.4504,0.4333,0.3993,-0.0,-0.2689,-0.3423,-0.4104,-0.4324,-0.3971,-0.4311,-0.4746,-0.5277,-0.5433,-0.576,-0.6367,-0.7074,-0.745,-0.745,-0.8049,-0.8679,-0.9242,-0.8573,-0.8679,-0.919,-0.7925,-0.745,-0.745,-0.7362,-0.7351,-0.7505,-0.86,-0.8964,-0.9068,-0.9607,-0.9923,-1.0077,-1.0238,-1.0391,-1.0493,-1.0108,-0.9577,-0.9141,-0.9023,-0.8593,-0.8122,-0.7717,-0.7106,-0.6376,-0.5407,-0.5042,-0.4339,-0.2339,-0.2465,-0.2207,0.0182,-0.0597,-0.2003,-0.3259,-0.3069,-0.274,-0.2631,-0.2462,0.0,0.0,-0.283,-0.3455,-0.3452,-0.3741,-0.3945,0.0,0.0,0.0,0.0,-0.4889,-0.4921,-0.3797,-0.4174,-0.4428,-0.4546,-0.4942,-0.6024,-0.7782,-0.8818,-0.9688,-1.0412,-1.0823,-1.1189,-1.1543,-1.177,-1.3013,-1.4736,-1.3018,-1.3302,-1.4665,-1.2945,-1.2305,-1.2305,-1.1996,-1.2133,-1.2183,-0.3244,-0.3244,-0.3244,-0.3244,-0.3244,-0.2961,-0.2174,-0.1448,-0.0723,0.0111,0.0167,0.0167,0.0167,0.0167,0.0501,0.1339,0.2066,0.1845,0.0503,-0.2012,-0.3761,-0.4442,-0.449,-0.4484,-0.4473,-0.4794,-0.5281,-0.5982,-0.6362,-0.6686,-0.7128,-0.783,-0.8362,-0.8666,-0.9099,-0.9614,-1.021,-0.9865,-0.9917,-1.021,-0.9429,-0.9117,-0.9124,-0.9295,-0.9246,-0.9193,-1.0187,-1.0399,-1.0273,-1.0653,-1.1015,-1.1266,-1.1266,-1.1475,-1.1742,-1.1742,-1.1007,-1.0214,-1.0214,-0.9951,-0.968,-0.968,-0.9061,-0.8416,-0.8359,-0.8093,-0.7359,-0.5563,-0.5188,-0.4608,-0.2859,-0.3666,-0.4826,-0.5693,-0.4975,-0.4301,-0.4301,-0.4363,0.0,-0.3566,-0.4908,-0.5753,-0.5466,-0.5466,-0.5452,-0.5438,-0.5599,0.0,-0.5674,-0.6644,-0.6484,-0.4906,-0.542,-0.5724,-0.5706,-0.6604,-0.7338,-0.8027,-0.9262,-1.0245,-1.0962,-1.1122,-1.1423,-1.1837,-1.1997,-1.3006,-1.4378,-1.2879,-1.3164,-1.4386,-1.2879,-1.2305,-1.2305,-1.2305,-1.2492,-1.2766,-0.449,-0.449,-0.4546,-0.4653,-0.4653,-0.4653,-0.4709,-0.3624,-0.2781,-0.2839,-0.2839,-0.2839,-0.2839,-0.2839,-0.2839,-0.2839,-0.1777,-0.2058,-0.434,-0.3413,-0.3345,-0.4643,-0.4754,-0.4802,-0.4791,-0.5382,-0.6036,-0.675,-0.7498,-0.7931,-0.8037,-0.8784,-0.9413,-0.9961,-0.9961,-1.0312,-1.0965,-1.0864,-1.0864,-1.0973,-1.0922,-1.0989,-1.1133,-1.1713,-1.1757,-1.1549,-1.193,-1.1868,-1.1528,-1.1416,-1.1747,-1.2248,-1.2248,-1.2628,-1.3065,-1.3065,-1.2138,-1.1124,-1.1124,-1.1124,-1.1124,-1.1124,-1.0578,-1.0115,-1.0514,-1.0074,-0.9308,-0.8629,-0.7442,-0.6417,-0.6213,-0.6849,-0.7343,-0.7209,-0.6,-0.5109,-0.5109,0.0,-0.5289,-0.5273,-0.644,-0.7112,-0.6647,-0.6588,-0.6603,-0.6688,-0.6926,-0.7105,-0.7136,-0.7641,-0.7077,-0.5272,-0.63,-0.6792,-0.6572,-0.8371,-0.8947,-0.8221,-0.9843,-1.0842,-1.1363,-1.1403,-1.1724,-1.2238,-1.2285,-1.2806,-1.36,-1.2659,-1.2879,-1.36,-1.2714,-1.2345,-1.2305,-1.2351,-1.2525,-1.2869,-0.4522,-0.4522,-0.4684,-0.5222,-0.5332,-0.5437,-0.5642,-0.5467,-0.5471,-0.5882,-0.5941,-0.5941,-0.5941,-0.5941,-0.5941,-0.5941,-0.6105,-0.5732,-0.4553,-0.503,-0.5407,-0.569,-0.6055,-0.6263,-0.6263,-0.6372,-0.6804,-0.7509,-0.8224,-0.8849,-0.9503,-1.0159,-1.0568,-1.0669,-1.0669,-1.1015,-1.1616,-1.1065,-1.1116,-1.1642,-1.1464,-1.1774,-1.2413,-1.3394,-1.4128,-1.4624,-1.481,-1.4817,-1.4698,-1.4251,-1.4168,-1.4261,-1.4261,-1.4003,-1.3637,-1.3637,-1.3132,-1.2569,-1.2569,-1.2569,-1.2569,-1.2569,-1.203,-1.1516,-1.1578,-1.1082,-1.0352,-0.9651,-0.9295,-0.8764,-0.7553,-0.7486,-0.7246,-0.6213,-0.5609,-0.5277,-0.5277,0.0,-0.5496,-0.5973,-0.6421,-0.6701,-0.6588,-0.6588,-0.6718,-0.7023,-0.7069,-0.7172,-0.7421,-0.8281,-0.8243,-0.7146,-0.7399,-0.7529,-0.7494,-0.8689,-0.921,-0.9139,-1.0104,-1.0735,-1.1069,-1.1316,-1.1617,-1.1951,-1.2191,-1.2806,-1.36,-1.2659,-1.2879,-1.363,-1.2948,-1.2525,-1.2331,-1.2585,-1.2782,-1.2869,-0.5058,-0.5058,-0.5277,-0.5982,-0.6091,-0.6145,-0.6244,-0.6298,-0.6357,-0.6598,-0.6598,-0.6598,-0.6598,-0.6598,-0.675,-0.7111,-0.7385,-0.7272,-0.6817,-0.6475,-0.6277,-0.6277,-0.6485,-0.6956,-0.7688,-0.7741,-0.8265,-0.9377,-0.9673,-0.999,-1.0364,-1.0661,-1.1015,-1.1375,-1.1592,-1.1989,-1.2382,-1.2498,-1.2851,-1.3313,-1.343,-1.3957,-1.4726,-1.5457,-1.5791,-1.593,-1.621,-1.5935,-1.5452,-1.5216,-1.4922,-1.4698,-1.4698,-1.4514,-1.4236,-1.392,-1.3372,-1.2881,-1.2881,-1.2881,-1.2968,-1.3286,-1.3112,-1.2949,-1.3126,-1.2976,-1.2466,-1.1447,-1.1391,-1.1084,-0.9607,-0.953,-0.9217,-0.7753,-0.7186,0.0,0.0,-0.6303,-0.6514,-0.695,-0.7444,-0.7777,-0.7777,-0.7901,-0.8092,-0.8211,-0.8537,-0.8753,-0.8873,-0.9506,-0.9662,-0.9162,-0.869,-0.8245,-0.7863,-0.9267,-0.986,-0.9545,-1.0399,-1.0949,-1.1236,-1.153,-1.1737,-1.1884,-1.2178,-1.2519,-1.2879,-1.2445,-1.2592,-1.2893,-1.2675,-1.2425,-1.2318,-1.2458,-1.2605,-1.2842,-0.576,-0.576,-0.5982,-0.675,-0.6858,-0.6912,-0.7074,-0.7128,-0.7128,-0.7128,-0.723,-0.7331,-0.7331,-0.7481,-0.7782,-0.8292,-0.8338,-0.8593,-0.9151,-0.8285,-0.7623,-0.7315,-0.7475,-0.8106,-0.9148,-0.92,-0.9717,-1.0813,-1.0965,-1.1015,-1.1065,-1.1225,-1.1619,-1.2227,-1.2567,-1.3004,-1.3501,-1.4098,-1.4594,-1.506,-1.5472,-1.6169,-1.7047,-1.7456,-1.7643,-1.7687,-1.7862,-1.7296,-1.6491,-1.6244,-1.5858,-1.5499,-1.5383,-1.5326,-1.5232,-1.4752,-1.4079,-1.3427,-1.2998,-1.3017,-1.3238,-1.3684,-1.3909,-1.4099,-1.4403,-1.4478,-1.4185,-1.32,-1.3162,-1.2868,-1.1512,-1.1447,-1.1075,-0.9503,0.0,0.0,0.0,-0.7788,-0.8053,-0.8389,-0.8935,-0.9263,-0.9263,-0.9475,-0.9617,-0.9813,-1.0096,-1.0308,-1.0506,-1.0739,-1.0898,-1.0967,-0.9982,-0.9208,-0.869,-1.0064,-1.0542,-1.008,-1.0756,-1.1209,-1.143,-1.1663,-1.1804,-1.1877,-1.2104,-1.2238,-1.2298,-1.2519,-1.2666,-1.2599,-1.2742,-1.2654,-1.2599,-1.2452,-1.2505,-1.2652,-0.6529,-0.6529,-0.675,-0.7509,-0.7616,-0.783,-0.8533,-0.8646,-0.8646,-0.8646,-0.9197,-0.9547,-0.9547,-1.01,-1.0501,-1.0551,-1.0551,-1.0602,-1.0653,-1.1065,-1.0789,-0.9526,-1.012,-1.0551,-1.0661,-1.0661,-1.0712,-1.0813,-1.1416,-1.1715,-1.1765,-1.2452,-1.2977,-1.3406,-1.3384,-1.4042,-1.5038,-1.5101,-1.5585,-1.6289,-1.6721,-1.7643,-1.8882,-1.9333,-2.0265,-2.1254,-2.0776,-2.0234,-1.9494,-1.8438,-1.8035,-1.785,-1.7339,-1.7164,-1.711,-1.7062,-1.6226,-1.4956,-1.3359,-1.3334,-1.3721,-1.3779,-1.4236,-1.4617,-1.4651,-1.4662,-1.4662,-1.4569,-1.4125,-1.3508,-1.2783,-1.2169,-1.1384,-1.0136,0.0,0.0,-0.9769,-0.9769,-0.9974,-1.0509,-1.061,-1.0661,-1.0661,-1.0685,-1.0978,-1.1638,-1.1076,-1.0924,-1.1643,-1.1695,-1.1851,-1.2077,-1.1314,-1.0804,-1.0758,-1.1155,-1.1301,-1.1253,-1.1321,-1.1403,-1.1423,-1.145,-1.161,-1.187,-1.1891,-1.2051,-1.2372,-1.3244,-1.36,-1.363,-1.3933,-1.3866,-1.3564,-1.2982,-1.2552,-1.2371,-0.7289,-0.7289,-0.7509,-0.8262,-0.8374,-0.848,-0.8752,-0.9159,-0.9413,-0.9413,-1.0012,-1.0415,-1.0415,-1.0669,-1.0973,-1.1384,-1.1425,-1.1756,-1.2589,-1.287,-1.259,-1.159,-1.1804,-1.2335,-1.3096,-1.2764,-1.2978,-1.3697,-1.3625,-1.3595,-1.3595,-1.3909,-1.427,-1.4757,-1.4658,-1.4892,-1.5395,-1.5946,-1.6497,-1.7006,-1.7774,-1.8861,-2.0122,-2.033,-2.0939,-2.1669,-2.1462,-2.0785,-1.9919,-1.9502,-1.883,-1.8166,-1.7953,-1.7887,-1.7724,-1.6967,-1.6148,-1.5277,-1.4294,-1.4201,-1.4468,-1.4824,-1.5096,-1.5276,-1.5276,-1.552,-1.5568,-1.4857,-1.5001,-1.4893,-1.3662,-1.3399,-1.2779,-1.0914,0.0,-1.0847,-1.0128,-1.0289,-1.0559,-1.0762,-1.1063,-1.1204,-1.1204,-1.1627,-1.2016,-1.229,-1.223,-1.2234,-1.2557,-1.2512,-1.2733,-1.3076,-1.2983,-1.2712,-1.2195,-1.2244,-1.2402,-1.2596,-1.1977,-1.1697,-1.171,-1.1884,-1.1931,-1.1877,-1.2058,-1.2204,-1.2305,-1.2666,-1.2806,-1.282,-1.2938,-1.291,-1.282,-1.2574,-1.2518,-1.2565,-0.8349,-0.8554,-0.8817,-0.9354,-0.9413,-0.9413,-0.9413,-0.9814,-1.0115,-1.0115,-1.0712,-1.1116,-1.1116,-1.1325,-1.1642,-1.2107,-1.2325,-1.2841,-1.3721,-1.4133,-1.4107,-1.3614,-1.3577,-1.4045,-1.5083,-1.4752,-1.4832,-1.5485,-1.5305,-1.5058,-1.4709,-1.507,-1.5395,-1.5721,-1.5818,-1.5984,-1.6287,-1.6871,-1.7514,-1.8214,-1.8844,-2.0039,-2.1417,-2.1417,-2.1771,-2.2317,-2.2317,-2.1695,-2.0778,-2.0415,-1.9711,-1.8958,-1.8553,-1.8581,-1.8459,-1.7074,-1.6527,-1.6161,-1.5246,-1.5107,-1.5332,-1.5543,-1.5732,-1.5864,-1.5864,-1.6154,-1.6221,-1.5414,-1.566,-1.5686,-1.4578,-1.445,-1.4007,-1.2395,-1.2327,-1.2141,-1.1323,-1.1358,-1.1484,-1.1484,-1.1877,-1.2114,-1.2114,-1.2712,-1.3151,-1.3274,-1.3236,-1.3245,-1.3364,-1.313,-1.3347,-1.4141,-1.4405,-1.4396,-1.409,-1.3758,-1.3531,-1.3416,-1.2778,-1.2237,-1.1877,-1.2078,-1.2058,-1.1877,-1.2078,-1.2218,-1.2298,-1.2592,-1.2732,-1.2732,-1.2732,-1.2732,-1.2739,-1.2445,-1.2432,-1.2667,-0.9814,-1.0364,-1.0813,-1.0813,-1.0813,-1.0813,-1.0813,-1.0813,-1.0813,-1.0813,-1.1416,-1.1814,-1.1814,-1.2452,-1.2929,-1.2929,-1.3457,-1.3815,-1.3815,-1.4949,-1.5599,-1.5511,-1.5533,-1.5781,-1.64,-1.64,-1.6101,-1.5545,-1.6101,-1.583,-1.4731,-1.5864,-1.6339,-1.6261,-1.6796,-1.7324,-1.793,-1.793,-1.8722,-1.9972,-1.9985,-2.106,-2.2694,-2.2694,-2.3054,-2.3595,-2.3595,-2.3187,-2.2517,-2.129,-2.0833,-2.0604,-1.9382,-1.9384,-1.947,-1.7775,-1.7738,-1.78,-1.6065,-1.6051,-1.638,-1.5776,-1.6051,-1.6522,-1.6522,-1.6522,-1.6522,-1.6522,-1.6008,-1.5588,-1.5588,-1.5096,-1.4709,-1.4698,-1.419,-1.3826,-1.3826,-1.3286,-1.2929,-1.2929,-1.3252,-1.3516,-1.3516,-1.3896,-1.4326,-1.4756,-1.41,-1.3798,-1.4186,-1.3425,-1.3704,-1.523,-1.545,-1.583,-1.6627,-1.5649,-1.4736,-1.3745,-1.3745,-1.3078,-1.1942,-1.1942,-1.1948,-1.187,-1.187,-1.2037,-1.2372,-1.331,-1.3673,-1.3673,-1.3673,-1.3673,-1.36,-1.2659,-1.2305,-1.2345,-1.1032,-1.1273,-1.1563,-1.2067,-1.1742,-1.1612,-1.2067,-1.1769,-1.1657,-1.2141,-1.2783,-1.3188,-1.3188,-1.3768,-1.4154,-1.4154,-1.434,-1.4595,-1.5039,-1.6182,-1.7032,-1.7373,-1.7044,-1.7276,-1.819,-1.7849,-1.7751,-1.7971,-1.7373,-1.6922,-1.6605,-1.6487,-1.6864,-1.7593,-1.7374,-1.7805,-1.8665,-1.8665,-1.8885,-1.9337,-2.0193,-2.1147,-2.2045,-2.2536,-2.3054,-2.3595,-2.3595,-2.3187,-2.2575,-2.175,-2.1158,-2.0505,-1.8895,-1.8758,-1.8884,-1.7171,-1.7115,-1.7418,-1.6479,-1.638,-1.6479,-1.6281,-1.638,-1.6522,-1.6522,-1.6835,-1.7011,-1.6609,-1.6691,-1.6606,-1.5748,-1.5454,-1.5186,-1.4744,-1.456,-1.4422,-1.4422,-1.4294,-1.4084,-1.3986,-1.4338,-1.4548,-1.4429,-1.4785,-1.5078,-1.5215,-1.4984,-1.4926,-1.505,-1.4805,-1.52,-1.6237,-1.6329,-1.673,-1.756,-1.6645,-1.6,-1.572,-1.5092,-1.4188,-1.3172,-1.3172,-1.2818,-1.2171,-1.2171,-1.2225,-1.2298,-1.2592,-1.2732,-1.2732,-1.2732,-1.2732,-1.2666,-1.2372,-1.2438,-1.2701,-1.2435,-1.2676,-1.3012,-1.3429,-1.3155,-1.3012,-1.3429,-1.3175,-1.311,-1.349,-1.3888,-1.4143,-1.4143,-1.4468,-1.4698,-1.4698,-1.4926,-1.5332,-1.5908,-1.6647,-1.7287,-1.7852,-1.7564,-1.799,-1.9309,-1.9007,-1.8894,-1.8983,-1.8355,-1.7941,-1.7708,-1.758,-1.7849,-1.8455,-1.8396,-1.8574,-1.8976,-1.8976,-1.9107,-1.9376,-2.0133,-2.1098,-2.2119,-2.2556,-2.3068,-2.3595,-2.3595,-2.3377,-2.292,-2.1993,-2.1148,-2.0142,-1.858,-1.8333,-1.8326,-1.6823,-1.6674,-1.6954,-1.6585,-1.6522,-1.6522,-1.6522,-1.6522,-1.6522,-1.6522,-1.6785,-1.6936,-1.6584,-1.6974,-1.711,-1.6149,-1.6134,-1.6118,-1.5501,-1.5197,-1.505,-1.505,-1.5051,-1.496,-1.485,-1.5192,-1.5392,-1.5235,-1.5328,-1.541,-1.541,-1.541,-1.541,-1.541,-1.541,-1.593,-1.7181,-1.7211,-1.7826,-1.9034,-1.8469,-1.7639,-1.6558,-1.6,-1.5226,-1.4307,-1.4307,-1.3954,-1.3448,-1.3018,-1.2879,-1.2806,-1.2445,-1.2305,-1.2305,-1.2305,-1.2305,-1.2318,-1.2438,-1.2887,-1.3376,-1.4,-1.447,-1.488,-1.4915,-1.4835,-1.4789,-1.4835,-1.4744,-1.4698,-1.4789,-1.4789,-1.4789,-1.4789,-1.4846,-1.488,-1.488,-1.5365,-1.5908,-1.6466,-1.6572,-1.6835,-1.7363,-1.7438,-1.8154,-1.9623,-1.966,-1.9472,-1.9046,-1.8994,-1.8699,-1.8258,-1.8724,-1.8909,-1.8906,-1.9482,-1.9457,-1.8962,-1.8962,-1.9318,-1.9879,-1.9951,-2.1028,-2.2634,-2.2694,-2.3056,-2.3595,-2.3595,-2.3595,-2.3406,-2.2062,-2.0775,-1.9469,-1.8256,-1.7874,-1.7671,-1.6551,-1.6289,-1.6332,-1.6473,-1.6522,-1.6522,-1.6522,-1.6522,-1.6522,-1.6522,-1.6522,-1.6534,-1.6584,-1.6974,-1.7162,-1.6685,-1.6986,-1.7137,-1.6609,-1.6051,-1.57,-1.5748,-1.5707,-1.5663,-1.5706,-1.5894,-1.5954,-1.5942,-1.5622,-1.541,-1.541,-1.5468,-1.5526,-1.5526,-1.5575,-1.6364,-1.7962,-1.8086,-1.8905,-2.0512,-2.0568,-1.9378,-1.6973,-1.6973,-1.648,-1.557,-1.55,-1.5367,-1.5226,-1.4235,-1.3818,-1.3745,-1.2879,-1.2586,-1.2586,-1.2586,-1.2586,-1.262,-1.29,-1.3601,-1.4434,-1.6173,-1.6213,-1.6176,-1.6659,-1.6015,-1.5555,-1.6064,-1.5287,-1.488,-1.532,-1.541,-1.541,-1.541,-1.5832,-1.6107,-1.6107,-1.6238,-1.638,-1.6479,-1.6936,-1.725,-1.7375,-1.779,-1.8191,-1.8543,-1.8555,-1.8907,-1.9635,-1.8802,-1.8519,-1.8837,-1.8448,-1.8522,-1.892,-1.9016,-1.9253,-1.9535,-1.9535,-1.9633,-1.9797,-2.0332,-2.1069,-2.1964,-2.2488,-2.3056,-2.3595,-2.3595,-2.3595,-2.3332,-2.1643,-1.9926,-1.8169,-1.6576,-1.6044,-1.593,-1.5267,-1.5393,-1.5876,-1.6362,-1.6522,-1.6522,-1.6522,-1.6522,-1.6522,-1.6522,-1.6522,-1.6647,-1.7099,-1.6936,-1.681,-1.7137,-1.6923,-1.666,-1.6534,-1.638,-1.6486,-1.6933,-1.7016,-1.7107,-1.7352,-1.6915,-1.6515,-1.6406,-1.5803,-1.541,-1.541,-1.5921,-1.6265,-1.6265,-1.68,-1.7453,-1.8228,-1.8614,-1.921,-1.9861,-2.0389,-2.0322,-1.9716,-1.9716,-1.9215,-1.8282,-1.7639,-1.6899,-1.6122,-1.5271,-1.4879,-1.4879,-1.4665,-1.4593,-1.4593,-1.4593,-1.4593,-1.4601,-1.4681,-1.4848,-1.5097,-1.7411,-1.741,-1.7231,-1.7312,-1.6799,-1.6416,-1.6509,-1.5976,-1.5656,-1.6008,-1.6244,-1.633,-1.6051,-1.6527,-1.6795,-1.6522,-1.6522,-1.6522,-1.6522,-1.681,-1.6974,-1.6974,-1.725,-1.7526,-1.7802,-1.7798,-1.8331,-1.94,-1.861,-1.8572,-1.9302,-1.8749,-1.8782,-1.9305,-1.9305,-1.9421,-1.9704,-1.9704,-1.9716,-1.972,-2.0079,-2.0617,-2.1306,-2.1964,-2.2607,-2.3191,-2.349,-2.3213,-2.2498,-2.1327,-1.9854,-1.8164,-1.6145,-1.5485,-1.5336,-1.4518,-1.4698,-1.5276,-1.5908,-1.6281,-1.6522,-1.6522,-1.6522,-1.6522,-1.6522,-1.6735,-1.7024,-1.7313,-1.7564,-1.7727,-1.7765,-1.7739,-1.7626,-1.7363,-1.7325,-1.7426,-1.7739,-1.8003,-1.8223,-1.8411,-1.8001,-1.7396,-1.6574,-1.6065,-1.5635,-1.543,-1.6093,-1.6492,-1.6492,-1.7191,-1.8123,-1.9329,-1.9963,-2.081,-2.196,-2.258,-2.288,-2.288,-2.1318,-2.0364,-1.9857,-1.9412,-1.8864,-1.8368,-1.7494,-1.7095,-1.7086,-1.6597,-1.6131,-1.5738,-1.5738,-1.5553,-1.5188,-1.5353,-1.5454,-1.5798,-1.8201,-1.8302,-1.8106,-1.7666,-1.7435,-1.7146,-1.671,-1.6552,-1.6522,-1.6637,-1.7034,-1.7146,-1.6795,-1.7076,-1.7105,-1.668,-1.6552,-1.6522,-1.6522,-1.6522,-1.6522,-1.6522,-1.6595,-1.6865,-1.739,-1.7408,-1.7935,-1.8989,-1.8525,-1.8796,-1.9695,-1.9219,-1.9281,-1.969,-1.969,-1.969,-1.969,-1.969,-1.969,-1.969,-1.969,-2.0094,-2.0782,-2.1321,-2.2009,-2.2783,-2.3251,-2.276,-2.1756,-2.0997,-1.9908,-1.8467,-1.6091,-1.5314,-1.5034,-1.4073,-1.4143,-1.4698,-1.541,-1.5964,-1.638,-1.6466,-1.6522,-1.6547,-1.6635,-1.7036,-1.7438,-1.7626,-1.8317,-1.8781,-1.8405,-1.8643,-1.8744,-1.8279,-1.8204,-1.8242,-1.8329,-1.8819,-1.9146,-1.9296,-1.9008,-1.8322,-1.7113,-1.6665,-1.6287,-1.5956,-1.6597,-1.6963,-1.6877,-1.7677,-1.8881,-2.0494,-2.1396,-2.2628,-2.4254,-2.5039,-2.5398,-2.5342,-2.2699,-2.1381,-2.1204,-2.0974,-2.0846,-2.0782,-1.9846,-1.9424,-1.9348,-1.8573,-1.7764,-1.7126,-1.7126,-1.6684,-1.6158,-1.6394,-1.6564,-1.7063,-1.9169,-1.9132,-1.8765,-1.8688,-1.7907,-1.7271,-1.7188,-1.6795,-1.668,-1.7105,-1.7229,-1.7463,-1.7827,-1.7544,-1.7271,-1.7188,-1.6752,-1.6522,-1.6522,-1.6522,-1.6522,-1.6522,-1.6951,-1.7227,-1.7306,-1.7747,-1.8342,-1.8989,-1.8878,-1.9102,-1.9695,-1.9626,-1.9639,-1.969,-1.969,-1.969,-1.969,-1.969,-1.969,-1.969,-1.969,-2.0094,-2.0722,-2.0812,-2.1605,-2.2724,-2.2813,-2.2687,-2.2302,-2.0735,-1.9351,-1.789,-1.5533,-1.4474,-1.3994,-1.3836,-1.3862,-1.419,-1.5309,-1.5676,-1.5864,-1.638,-1.6522,-1.6647,-1.7149,-1.7325,-1.7652,-1.8606,-1.8543,-1.8442,-1.8844,-1.8593,-1.8292,-1.8216,-1.8204,-1.8367,-1.8844,-1.9359,-1.9886,-2.0388,-1.9648,-1.9028,-1.8932,-1.8223,-1.7821,-1.8041,-1.8736,-1.894,-1.8417,-1.9645,-2.0472,-2.0751,-2.2423,-2.3461,-2.3713,-2.4832,-2.5398,-2.5398,-2.498,-2.4412,-2.3728,-2.2347,-2.1753,-2.169,-2.0771,-2.044,-2.0375,-2.0224,-2.016,-2.003,-2.003,-1.9976,-1.9846,-1.9911,-1.9976,-2.0084,-1.9495,-1.953,-1.9244,-1.8968,-1.8263,-1.7666,-1.7353,-1.6837,-1.668,-1.7229,-1.7544,-1.7827,-1.8066,-1.7907,-1.7626,-1.7353,-1.7076,-1.6837,-1.6522,-1.6522,-1.6522,-1.6522,-1.6993,-1.7312,-1.7312,-1.8145,-1.8686,-1.8962,-1.8921,-1.915,-1.9706,-1.97,-1.969,-1.969,-1.969,-1.969,-1.969,-1.969,-1.969,-1.969,-1.969,-1.9869,-2.0183,-2.0572,-2.1081,-2.168,-2.2413,-2.2441,-2.197,-2.0925,-1.9459,-1.7791,-1.576,-1.4755,-1.4143,-1.3515,-1.3789,-1.4422,-1.4971,-1.5599,-1.6194,-1.6423,-1.6522,-1.6672,-1.725,-1.7614,-1.8066,-1.8869,-1.9058,-1.9171,-1.9409,-1.9258,-1.9095,-1.9095,-1.9371,-1.966,-1.9911,-2.0401,-2.084,-2.1091,-2.0589,-2.0074,-1.9925,-1.943,-1.907,-1.8997,-1.9684,-1.9982,-1.9788,-2.0766,-2.165,-2.2394,-2.3618,-2.4569,-2.5278,-2.6191,-2.6654,-2.664,-2.6215,-2.5618,-2.4908,-2.4182,-2.3878,-2.3807,-2.3428,-2.3072,-2.2688,-2.2688,-2.2139,-2.1302,-2.1302,-2.0791,-2.0102,-2.0102,-2.0102,-2.0147]}]]